[[{"header":{"parameterUnit":"m.s-1","parameterCategory":1,"la1":30.6,"la2":29.2853,"lo1":-89.7004,"lo2":-87.6739,"dy":0.0162,"dx":0.0183,"nx":112,"ny":82,"refTime":"2023-05-26T06:00:00:Z","depth":0,"parameterNumber":2,"parameterNumberName":"U-component_of_WINDS"},"data":[0.0,0.0,0.0,0.0,0.0,0.0,0.0,0.0,0.0,0.0,0.0,0.0,0.0,0.0,0.0,0.0,0.0,0.0,0.0,0.0,0.0,0.0,0.0,0.0,0.0,0.0,0.0,0.0,0.0,0.0,0.0,0.0,0.0,0.0,0.0,0.0,0.0,0.0,0.0,0.0,0.0,0.0,0.0,0.0,0.0,0.0,0.0,0.0,0.0,0.0,0.0,0.0,0.0,0.0,0.0,0.0,0.0,0.0,0.0,0.0,0.0,0.0,0.0,0.0,0.0,0.0,0.0,0.0,0.0,0.0,0.0,0.0,0.0,0.0,0.0,0.0,0.0,0.0,0.0,0.0,0.0,0.0,0.0,0.0,0.0,0.0,0.0,0.0,0.0,0.0,3.1087,3.4741,3.7358,3.9165,3.9978,3.8936,3.7227,3.4861,0.0,0.0,0.0,0.0,0.0,0.0,0.0,0.0,0.0,0.0,0.0,0.0,0.0,0.0,0.0,0.0,0.0,0.0,0.0,0.0,0.0,0.0,0.0,0.0,0.0,0.0,0.0,0.0,0.0,0.0,0.0,0.0,0.0,0.0,0.0,0.0,0.0,0.0,0.0,0.0,0.0,0.0,0.0,0.0,0.0,0.0,0.0,0.0,0.0,0.0,0.0,0.0,0.0,0.0,0.0,0.0,0.0,0.0,0.0,0.0,0.0,0.0,0.0,0.0,0.0,0.0,0.0,0.0,0.0,0.0,0.0,0.0,0.0,0.0,0.0,0.0,0.0,0.0,0.0,0.0,0.0,0.0,0.0,0.0,0.0,0.0,0.0,0.0,0.0,0.0,0.0,0.0,0.0,0.0,0.0,0.0,0.0,0.0,0.0,0.0,0.0,0.0,0.0,0.0,2.8946,3.2957,3.5999,3.7801,3.7942,3.8003,3.7093,3.4831,0.0,0.0,0.0,0.0,0.0,0.0,0.0,0.0,0.0,0.0,0.0,0.0,0.0,0.0,0.0,0.0,0.0,0.0,0.0,0.0,0.0,0.0,0.0,0.0,0.0,0.0,0.0,0.0,0.0,0.0,0.0,0.0,0.0,0.0,0.0,0.0,0.0,0.0,0.0,0.0,0.0,0.0,0.0,0.0,0.0,0.0,0.0,0.0,0.0,0.0,0.0,0.0,0.0,0.0,0.0,0.0,0.0,0.0,0.0,0.0,0.0,0.0,0.0,0.0,0.0,0.0,0.0,0.0,0.0,0.0,0.0,0.0,0.0,0.0,0.0,0.0,0.0,0.0,0.0,0.0,0.0,0.0,0.0,0.0,0.0,0.0,0.0,0.0,0.0,0.0,0.0,0.0,0.0,0.0,0.0,0.0,0.0,0.0,0.0,0.0,0.0,0.0,0.0,2.8498,2.9546,3.1741,3.408,3.5928,3.7027,3.6659,3.5892,3.4783,3.4148,0.0,0.0,0.0,0.0,0.0,0.0,0.0,0.0,0.0,0.0,0.0,0.0,0.0,0.0,0.0,0.0,0.0,0.0,0.0,0.0,0.0,0.0,0.0,0.0,0.0,0.0,0.0,0.0,0.0,0.0,0.0,0.0,0.0,0.0,0.0,0.0,0.0,0.0,0.0,0.0,0.0,0.0,0.0,0.0,0.0,0.0,0.0,0.0,0.0,0.0,0.0,0.0,0.0,0.0,0.0,0.0,0.0,0.0,0.0,0.0,0.0,0.0,0.0,0.0,0.0,0.0,0.0,0.0,0.0,0.0,0.0,0.0,0.0,0.0,0.0,0.0,0.0,0.0,0.0,0.0,0.0,0.0,0.0,0.0,0.0,0.0,0.0,0.0,0.0,0.0,0.0,0.0,0.0,0.0,0.0,0.0,0.0,0.0,0.0,0.0,0.0,0.0,2.9036,2.9908,3.0401,3.2055,3.3964,3.5937,3.5205,3.4607,3.4535,3.337,0.0,0.0,0.0,0.0,0.0,0.0,0.0,0.0,0.0,0.0,0.0,0.0,0.0,0.0,0.0,0.0,0.0,0.0,0.0,0.0,0.0,0.0,0.0,0.0,0.0,0.0,0.0,0.0,0.0,0.0,0.0,0.0,0.0,0.0,0.0,0.0,0.0,0.0,0.0,0.0,0.0,0.0,0.0,0.0,0.0,0.0,0.0,0.0,0.0,0.0,0.0,0.0,0.0,0.0,0.0,0.0,0.0,0.0,0.0,0.0,0.0,0.0,0.0,0.0,0.0,0.0,0.0,0.0,0.0,0.0,0.0,0.0,0.0,0.0,0.0,0.0,0.0,0.0,0.0,0.0,0.0,0.0,0.0,0.0,0.0,0.0,0.0,0.0,0.0,0.0,0.0,0.0,0.0,0.0,0.0,0.0,0.0,0.0,0.0,0.0,0.0,0.0,2.7123,2.8396,2.8476,3.0154,3.2028,3.3858,3.3761,3.3715,3.3934,3.2416,0.0,0.0,0.0,0.0,0.0,0.0,0.0,0.0,0.0,0.0,0.0,0.0,0.0,0.0,0.0,0.0,0.0,0.0,0.0,0.0,0.0,0.0,0.0,0.0,0.0,0.0,0.0,0.0,0.0,0.0,0.0,0.0,0.0,0.0,0.0,0.0,0.0,0.0,0.0,0.0,0.0,0.0,0.0,0.0,0.0,0.0,0.0,0.0,0.0,0.0,0.0,0.0,0.0,0.0,0.0,0.0,0.0,0.0,0.0,0.0,0.0,0.0,0.0,0.0,0.0,0.0,0.0,0.0,0.0,0.0,0.0,0.0,0.0,0.0,0.0,0.0,0.0,0.0,0.0,0.0,0.0,0.0,0.0,0.0,0.0,0.0,0.0,0.0,0.0,0.0,0.0,0.0,0.0,0.0,0.0,0.0,0.0,0.0,0.0,0.0,0.0,0.0,2.5785,2.6698,2.7813,2.9054,3.0422,3.199,3.1778,3.1879,3.2599,0.0,0.0,0.0,0.0,0.0,0.0,0.0,0.0,0.0,0.0,0.0,0.0,0.0,0.0,0.0,0.0,0.0,0.0,0.0,0.0,0.0,0.0,0.0,0.0,0.0,0.0,0.0,0.0,0.0,0.0,0.0,0.0,0.0,0.0,0.0,0.0,0.0,0.0,0.0,0.0,0.0,0.0,0.0,0.0,0.0,0.0,0.0,0.0,0.0,0.0,0.0,0.0,0.0,0.0,0.0,0.0,0.0,0.0,0.0,0.0,0.0,0.0,0.0,0.0,0.0,0.0,0.0,0.0,0.0,0.0,0.0,0.0,0.0,0.0,0.0,0.0,0.0,0.0,0.0,0.0,0.0,0.0,0.0,0.0,0.0,0.0,0.0,0.0,0.0,0.0,0.0,0.0,0.0,0.0,0.0,0.0,0.0,0.0,0.0,0.0,0.0,0.0,2.4672,2.4887,2.5512,2.7115,2.7814,2.8794,3.0317,2.9705,2.985,3.1329,0.0,0.0,0.0,0.0,0.0,0.0,0.0,0.0,0.0,0.0,0.0,0.0,0.0,0.0,0.0,0.0,0.0,0.0,0.0,0.0,0.0,0.0,0.0,0.0,0.0,0.0,0.0,0.0,0.0,0.0,0.0,0.0,0.0,0.0,0.0,0.0,0.0,0.0,0.0,0.0,0.0,0.0,0.0,0.0,0.0,0.0,0.0,0.0,0.0,0.0,0.0,0.0,0.0,0.0,0.0,0.0,0.0,0.0,0.0,0.0,0.0,0.0,0.0,0.0,0.0,0.0,0.0,0.0,0.0,0.0,0.0,0.0,0.0,0.0,0.0,0.0,0.0,0.0,0.0,0.0,0.0,0.0,0.0,0.0,0.0,0.0,0.0,0.0,0.0,0.0,0.0,0.0,0.0,0.0,0.0,0.0,0.0,0.0,0.0,0.0,0.0,0.0,2.4258,2.4391,2.4922,2.625,2.6412,2.7098,2.8827,2.7544,2.7734,0.0,0.0,0.0,0.0,0.0,0.0,0.0,0.0,0.0,0.0,0.0,0.0,0.0,0.0,0.0,0.0,0.0,0.0,0.0,0.0,0.0,0.0,0.0,0.0,0.0,0.0,0.0,0.0,0.0,0.0,0.0,0.0,0.0,0.0,0.0,0.0,0.0,0.0,0.0,0.0,0.0,0.0,0.0,0.0,0.0,0.0,0.0,0.0,0.0,0.0,0.0,0.0,0.0,0.0,0.0,0.0,0.0,0.0,0.0,0.0,0.0,0.0,0.0,0.0,0.0,0.0,0.0,0.0,0.0,0.0,0.0,0.0,0.0,0.0,0.0,0.0,0.0,0.0,0.0,0.0,0.0,0.0,0.0,0.0,0.0,0.0,0.0,0.0,0.0,0.0,0.0,0.0,0.0,0.0,0.0,0.0,0.0,0.0,0.0,0.0,0.0,0.0,0.0,2.4196,2.4391,2.4922,2.625,2.6113,2.6359,2.7471,2.6036,2.5844,2.7689,0.0,0.0,0.0,0.0,0.0,0.0,0.0,0.0,0.0,0.0,0.0,0.0,0.0,0.0,0.0,0.0,0.0,0.0,0.0,0.0,0.0,0.0,0.0,0.0,0.0,0.0,0.0,0.0,0.0,0.0,0.0,0.0,0.0,0.0,0.0,0.0,0.0,0.0,0.0,0.0,0.0,0.0,0.0,0.0,0.0,0.0,0.0,0.0,0.0,0.0,0.0,0.0,0.0,0.0,0.0,0.0,0.0,0.0,0.0,0.0,0.0,0.0,0.0,0.0,0.0,0.0,0.0,0.0,0.0,0.0,0.0,0.0,0.0,0.0,0.0,0.0,0.0,0.0,0.0,0.0,0.0,0.0,0.0,0.0,0.0,0.0,0.0,0.0,0.0,0.0,0.0,0.0,0.0,0.0,0.0,0.0,0.0,0.0,0.0,0.0,0.0,0.0,2.4196,2.4391,2.4785,2.5786,2.5757,2.5854,2.6211,2.5117,2.4917,2.6094,0.0,0.0,0.0,0.0,0.0,0.0,0.0,0.0,0.0,0.0,0.0,0.0,0.0,0.0,0.0,0.0,0.0,0.0,0.0,0.0,0.0,0.0,0.0,0.0,0.0,0.0,0.0,0.0,0.0,0.0,0.0,0.0,0.0,0.0,0.0,0.0,0.0,0.0,0.0,0.0,0.0,0.0,0.0,0.0,0.0,0.0,0.0,0.0,0.0,0.0,0.0,0.0,0.0,0.0,0.0,0.0,0.0,0.0,0.0,0.0,0.0,0.0,0.0,0.0,0.0,0.0,0.0,0.0,0.0,0.0,0.0,0.0,0.0,0.0,0.0,0.0,0.0,0.0,0.0,0.0,0.0,0.0,0.0,0.0,0.0,0.0,0.0,0.0,0.0,0.0,0.0,0.0,0.0,0.0,0.0,0.0,0.0,0.0,0.0,0.0,0.0,0.0,2.4016,2.4059,2.4187,2.4634,2.5015,2.5093,2.4712,2.4264,2.4274,2.4864,0.0,0.0,0.0,0.0,0.0,0.0,0.0,0.0,0.0,0.0,0.0,0.0,0.0,0.0,0.0,0.0,0.0,0.0,0.0,0.0,0.0,0.0,0.0,0.0,0.0,0.0,0.0,0.0,0.0,0.0,0.0,0.0,0.0,0.0,0.0,0.0,0.0,0.0,0.0,0.0,0.0,0.0,0.0,0.0,0.0,0.0,0.0,0.0,0.0,0.0,0.0,0.0,0.0,0.0,0.0,0.0,0.0,0.0,0.0,0.0,1.0575,1.295,0.0,0.0,0.0,0.0,0.0,0.0,0.0,0.0,0.0,0.0,0.0,0.0,0.0,0.0,0.0,0.0,0.0,0.0,0.0,0.0,0.0,0.0,0.0,0.0,0.0,0.0,0.0,0.0,0.0,0.0,0.0,0.0,0.0,0.0,0.0,0.0,0.0,0.0,0.0,0.0,2.2387,2.163,2.1193,2.1685,2.1806,2.1824,2.1737,2.1302,2.109,2.1217,2.2236,0.0,0.0,0.0,0.0,0.0,0.0,0.0,0.0,0.0,0.0,0.0,0.0,0.0,0.0,0.0,0.0,0.0,0.0,0.0,0.0,0.0,0.0,0.0,0.0,0.0,0.0,0.0,0.0,0.0,0.0,0.0,0.0,0.0,0.0,0.0,0.0,0.0,0.0,0.0,0.0,0.0,0.0,0.0,0.0,0.0,0.0,0.0,0.0,0.0,0.0,0.0,0.0,0.0,0.0,0.0,0.0,0.0,0.0,0.0,0.6636,0.894,0.0,0.0,0.0,0.0,0.0,0.0,0.0,0.0,0.0,0.0,0.0,0.0,0.0,0.0,0.0,0.0,0.0,0.0,0.0,0.0,0.0,0.0,0.0,0.0,0.0,0.0,0.0,0.0,0.0,0.0,0.0,0.0,0.0,0.0,0.0,0.0,0.0,0.0,0.0,0.0,2.0997,2.0492,2.0185,2.0455,2.0686,2.0719,2.0488,2.0241,2.0012,1.9823,2.1064,0.0,0.0,0.0,0.0,0.0,0.0,0.0,0.0,0.0,0.0,0.0,0.0,0.0,0.0,0.0,0.0,0.0,0.0,0.0,0.0,0.0,0.0,0.0,0.0,0.0,0.0,0.0,0.0,0.0,0.0,0.0,0.0,0.0,0.0,0.0,0.0,0.0,0.0,0.0,0.0,0.0,0.0,0.0,0.0,0.0,0.0,0.0,0.0,0.0,0.0,0.0,0.0,0.0,-0.6077,-0.5291,-0.325,-0.2561,-0.1584,-0.0215,0.3969,0.5749,0.5987,0.9801,0.0,0.0,0.0,0.0,0.0,0.0,0.0,0.0,0.0,0.0,0.0,0.0,0.0,0.0,0.0,0.0,0.0,0.0,0.0,0.0,0.0,0.0,0.8903,0.8851,0.8984,0.9451,1.0651,0.0,0.0,0.0,0.0,0.0,0.0,0.0,0.0,0.0,0.0,0.0,1.9578,1.945,1.9341,1.9341,1.9709,1.9757,1.9373,1.9341,1.9206,1.8872,2.0132,2.1014,0.0,0.0,0.0,0.0,0.0,0.0,0.0,0.0,0.0,0.0,0.0,0.0,0.0,0.0,0.0,0.0,0.0,0.0,0.0,0.0,0.0,0.0,0.0,0.0,0.0,0.0,0.0,0.0,0.0,0.0,0.0,0.0,-1.4611,-1.7046,0.0,0.0,0.0,0.0,0.0,0.0,0.0,0.0,0.0,0.0,0.0,0.0,0.0,-0.8197,-0.8183,-0.8447,-0.8448,-0.8167,-0.7252,-0.664,-0.6234,-0.3648,-0.235,-0.1915,0.2811,0.0,0.467,0.7634,0.0,0.0,0.0,0.0,0.0,0.0,0.0,0.0,0.0,0.0,0.0,0.0,0.0,0.0,0.0,0.0,0.0,0.0,0.0,0.0,0.0,0.0,0.4892,0.4669,0.47,0.5229,0.6704,0.9899,1.2816,1.3996,1.5003,1.6118,0.0,0.0,0.0,0.0,0.0,0.0,1.7606,1.6854,1.637,1.637,1.6435,1.6435,1.637,1.637,1.6333,1.6292,1.8092,1.934,1.9782,2.2171,0.0,0.0,0.0,0.0,0.0,0.0,0.0,0.0,0.0,0.0,0.0,0.0,0.0,0.0,0.0,0.0,0.0,0.0,0.0,0.0,0.0,0.0,0.0,0.0,0.0,0.0,0.0,0.0,0.0,-1.554,-1.6753,-1.7571,-1.6992,-1.5881,0.0,0.0,0.0,0.0,0.0,0.0,0.0,0.0,0.0,-1.0793,-0.9335,-0.8669,-0.9015,-0.8995,-0.9049,-0.9183,-0.8505,-0.7788,-0.6964,-0.5528,-0.3928,-0.2153,0.0847,0.301,0.4585,0.7487,0.9685,1.1436,0.0,0.0,0.0,0.0,1.8041,1.6578,1.6356,1.4809,1.2913,1.2971,0.0,0.0,0.0,0.0,0.0,0.0,0.0,0.5816,0.5707,0.431,0.2942,0.2823,0.2898,0.3169,0.3847,0.6574,0.9463,1.1479,1.2842,1.3824,1.4267,1.468,0.0,0.0,0.0,1.5113,1.4217,1.5089,1.5534,1.4806,1.5367,1.5808,1.5808,1.5808,1.5808,1.5808,1.7318,1.8457,1.9071,2.1502,2.2918,0.0,0.0,0.0,0.0,0.0,0.0,0.0,0.0,0.0,0.0,0.0,0.0,0.0,0.0,0.0,0.0,0.0,0.0,0.0,0.0,0.0,0.0,0.0,0.0,0.0,0.0,0.0,0.0,-1.7826,-1.8138,-1.8164,-1.8372,-1.7616,0.0,0.0,0.0,0.0,0.0,0.0,-1.6082,-1.3672,-1.2446,-1.2822,-1.0754,-0.9624,-0.9551,-0.943,-0.9451,-0.9605,-0.941,-0.8724,-0.7671,-0.703,-0.5515,-0.3262,-0.0856,0.1426,0.3651,0.6964,0.917,1.0698,1.2798,1.4153,1.5004,1.6293,1.5776,1.4312,1.3394,1.2218,1.1132,1.1233,1.0907,1.0381,1.0001,0.0,0.0,0.0,0.0,0.3476,0.35,0.2499,0.1477,0.1497,0.1571,0.1751,0.2111,0.3781,0.6005,0.868,1.054,1.1604,1.1433,1.1542,0.0,1.1654,1.2567,1.2849,1.1782,1.3482,1.4567,1.3968,1.4758,1.5462,1.5784,1.5808,1.5808,1.5808,1.6998,1.7911,1.8367,2.0264,2.1215,2.1059,0.0,0.0,0.0,0.0,0.0,0.0,0.0,0.0,0.0,0.0,0.0,0.0,0.0,0.0,0.0,0.0,0.0,0.0,0.0,0.0,0.0,0.0,0.0,0.0,0.0,0.0,0.0,0.0,0.0,-2.0563,-1.9173,0.0,0.0,0.0,0.0,-1.6257,-1.6754,-1.6626,-1.5683,-1.5901,-1.4909,-1.252,-1.229,-1.1488,-0.9981,-0.9832,-0.9727,-0.9612,-0.9591,-0.9487,-0.9229,-0.7629,-0.6796,-0.6403,-0.1796,0.0285,0.0741,0.505,0.8354,1.0823,1.2151,1.2618,1.2746,1.4196,1.293,1.0508,1.057,0.9544,0.8267,0.8584,0.7729,0.6312,0.4839,0.4314,0.0,0.0,0.3129,0.2093,0.2094,0.1117,0.0109,0.011,0.011,0.0493,0.1886,0.2204,0.3067,0.5934,0.8199,0.9727,1.0042,0.0,1.1502,1.1502,1.1788,1.1873,1.1556,1.1847,1.2546,1.3776,1.3968,1.4483,1.5713,1.5808,1.5808,1.5808,1.6998,1.7581,1.7289,1.8141,1.8639,1.8751,1.7937,0.0,0.0,0.0,0.0,0.0,0.0,0.0,0.0,0.0,0.0,0.0,0.0,0.0,0.0,0.0,0.0,0.0,0.0,0.0,0.0,0.0,0.0,0.0,0.0,0.0,0.0,0.0,0.0,-2.0219,-2.0528,0.0,-1.7728,-1.7729,-1.7809,-1.7702,-1.8277,-1.8536,-1.83,-1.7684,-1.6947,-1.6081,-1.3763,-1.2326,-1.187,-1.049,-0.9717,-0.9605,-0.951,-0.941,-0.926,-0.8514,-0.7662,-0.6616,-0.3967,-0.1715,0.0337,0.3832,0.6393,0.8348,1.0531,1.1272,1.119,1.1697,1.1304,1.0409,0.9584,0.8886,0.8168,0.7214,0.5959,0.4377,0.2002,0.1297,0.1117,0.026,-0.0337,-0.0494,0.0453,0.035,0.0,0.0,0.0,0.0136,0.0674,0.1423,0.2564,0.4449,0.6143,0.7563,0.8538,0.8943,0.9116,0.9116,0.9933,1.02,0.9244,1.0748,1.178,1.1429,1.211,1.3151,1.4459,1.4579,1.485,1.5495,1.5268,1.5341,1.5838,1.5128,1.4797,1.4927,1.4325,1.3807,0.0,0.0,0.0,0.0,0.0,0.0,0.0,0.0,0.0,0.0,0.0,0.0,0.0,0.0,0.0,0.0,0.0,0.0,0.0,0.0,0.0,0.0,0.0,0.0,0.0,-1.9052,-1.9959,-1.9885,-2.0855,-2.0686,-1.8506,-1.8784,-1.9038,-1.8945,-1.9508,-1.9923,-2.008,-1.9399,-1.8697,-1.8125,-1.569,-1.3843,-1.2744,-1.1286,-1.0204,-0.953,-0.9403,-0.9254,-0.9104,-0.8953,-0.838,-0.7343,-0.5361,-0.3068,-0.0473,0.304,0.5361,0.6966,0.9748,1.0447,0.9951,1.0447,1.0382,0.9816,0.8401,0.7869,0.7464,0.5348,0.37,0.2144,-0.0159,-0.1245,-0.1827,-0.2733,-0.2608,-0.1973,-0.1003,-0.038,0.0,0.0,0.0,0.0,0.0,0.0706,0.1846,0.3658,0.509,0.6431,0.7764,0.7932,0.7864,0.7864,0.8637,0.8872,0.7986,0.9453,1.0435,1.0051,1.1146,1.2425,1.3776,1.4292,1.461,1.4803,1.4052,1.3613,1.3642,1.2627,1.2077,1.2121,1.1864,1.1402,1.0733,0.0,0.0,0.0,0.0,0.0,0.0,0.0,0.0,0.0,0.0,0.0,0.0,0.0,0.0,0.0,0.0,0.0,0.0,0.0,0.0,0.0,0.0,0.0,-1.7949,-1.8568,-1.9194,-1.9898,-2.0111,-1.992,-1.9122,-1.976,-2.0117,-1.9867,-2.0374,-2.0726,-2.0726,-2.0949,-2.0194,-1.823,-1.799,-1.616,-1.2527,-1.2154,-1.1115,-0.941,-0.9254,-0.9104,-0.8912,-0.8912,-0.8885,-0.8657,-0.575,-0.3595,-0.1778,0.2672,0.5357,0.6977,0.9896,1.0159,0.9071,1.0507,1.0023,0.8393,0.6802,0.6253,0.5809,0.2886,0.0903,-0.0583,-0.194,-0.3377,-0.457,-0.457,-0.3483,-0.2323,-0.2228,-0.1148,-0.0055,0.0,0.0,0.0,0.0,0.0026,0.0832,0.3491,0.5072,0.6431,0.7764,0.7988,0.7988,0.7988,0.7988,0.0,0.7988,0.7988,0.8503,0.9854,1.1097,1.2401,1.3776,1.5008,1.513,1.3765,1.3444,1.2539,1.08,1.0693,1.0617,1.0476,1.0616,1.0619,1.0499,0.0,0.0,0.0,0.0,0.0,0.0,0.0,0.0,0.0,0.0,0.0,0.0,0.0,0.0,0.0,0.0,0.0,0.0,0.0,0.0,0.0,-1.7727,-1.8665,-1.8091,-1.8752,-1.9993,-2.1965,-2.1416,-2.1228,-2.2204,-2.142,-2.0842,-2.0762,-2.0895,-2.0989,-2.0989,-2.0869,-2.0562,-2.0003,-1.8405,-1.6472,-1.4324,-1.277,-1.1115,-0.941,-0.9254,-0.9104,-0.8912,-0.8912,-0.8325,-0.7199,-0.5319,-0.3006,-0.0361,0.2932,0.5243,0.6894,0.8754,0.9265,0.894,0.9348,0.8535,0.7023,0.5354,0.3466,0.1628,0.0706,-0.128,-0.3578,-0.5037,-0.5754,-0.6087,-0.6087,-0.5787,-0.4967,-0.2764,-0.19,-0.1336,-0.0244,0.0,0.0,0.0,0.0762,0.1962,0.3667,0.5072,0.6431,0.7764,0.7988,0.7988,0.7988,0.7988,0.7988,0.7988,0.7988,0.8503,0.9854,1.0313,1.1429,1.3704,1.3992,1.3808,1.3226,1.2136,1.0829,0.9344,0.8426,0.7996,0.8053,0.8237,0.8362,0.0,0.0,0.0,0.0,0.0,0.0,0.0,0.0,0.0,0.0,0.0,0.0,0.0,0.0,0.0,0.0,0.0,0.0,0.0,0.0,0.0,0.0,-1.9962,-2.0829,-2.0743,-2.0702,-2.1048,-2.1972,-2.1517,-2.1475,-2.2466,-2.1664,-2.1109,-2.1109,-2.1109,-2.1056,-2.0935,-2.0762,-2.0592,-2.0321,-1.9077,-1.7272,-1.4851,-1.3527,-1.1703,-0.941,-0.9192,-0.9022,-0.8912,-0.8912,-0.8094,-0.6628,-0.5142,-0.2432,0.1099,0.3297,0.5198,0.6833,0.0,0.0,0.0,0.0,0.6505,0.5464,0.3226,0.1383,-0.0223,-0.1571,-0.3128,-0.4665,-0.5528,-0.5778,-0.5778,-0.5778,-0.5323,-0.4402,-0.2642,-0.1741,-0.1065,-0.0191,0.0,0.0159,0.0726,0.1451,0.2565,0.4468,0.5477,0.0,0.7764,0.7988,0.7988,0.7988,0.7988,0.7988,0.7988,0.7988,0.8311,0.9065,0.9657,1.0632,1.2134,1.2524,0.0,0.0,0.0,0.9441,0.8007,0.7325,0.0,0.0,0.0,0.7529,0.7609,0.7743,0.0,0.0,0.9868,1.0618,0.0,0.0,0.0,0.0,0.0,0.0,0.0,0.0,0.0,0.0,0.0,0.0,0.0,0.0,0.0,0.0,-2.2265,-2.3175,-2.4376,-2.3569,-2.2451,-2.141,-2.1356,-2.1393,-2.1393,-2.1204,-2.1109,-2.1109,-2.1082,-2.0949,-2.0726,-2.0646,0.0,0.0,0.0,-1.782,-1.4331,-1.399,-1.2357,-0.9383,-0.9041,-0.8899,-0.8885,-0.8885,-0.7971,-0.6349,-0.504,-0.1918,0.2294,0.3477,0.4924,0.6543,0.7759,0.7494,0.6283,0.4777,0.4247,0.3798,0.0809,0.0,0.0,-0.3628,-0.4609,-0.4721,-0.4554,-0.4498,-0.4498,-0.4498,-0.3512,-0.2416,-0.2255,-0.1217,-0.022,-0.0028,0.0109,0.0557,0.1745,0.224,0.3168,0.5527,0.6132,0.6606,0.7789,0.7988,0.7988,0.7988,0.7988,0.7982,0.7968,0.7986,0.8036,0.8184,0.924,0.0,1.018,1.1082,1.1015,0.9538,0.9082,0.8265,0.6954,0.7018,0.7188,0.7389,0.7513,0.7601,0.7621,0.7731,0.7813,0.7864,0.9176,1.0374,0.0,0.0,0.0,0.0,0.0,0.0,0.0,0.0,0.0,0.0,0.0,0.0,0.0,0.0,0.0,-2.2857,-2.4471,-2.5361,-2.4882,-2.4786,-2.4815,-2.4956,-2.3885,-2.3107,-2.3107,-2.1884,-2.1109,-2.1109,-2.0895,-2.0766,-2.0712,-2.0227,-1.9326,-1.7901,-1.7653,-1.5906,-1.2548,-1.2318,-1.122,-0.9226,-0.9022,0.0,-0.873,-0.873,-0.726,-0.4661,-0.4384,-0.1814,0.2208,0.2371,0.3322,0.4725,0.5146,0.5151,0.4749,0.3212,0.2654,0.2234,-0.0754,-0.2596,-0.3714,-0.4303,-0.5306,-0.6061,-0.486,-0.4498,0.0,-0.4498,-0.4293,-0.3759,-0.2513,-0.1989,-0.1471,-0.027,0.082,0.1685,0.1939,0.3688,0.5377,0.5902,0.688,0.769,0.7963,0.7988,0.7988,0.7988,0.7988,0.7973,0.7844,0.7831,0.826,0.934,0.9535,1.0068,1.1277,1.128,1.0644,0.9261,0.8012,0.7189,0.6911,0.7018,0.7188,0.7389,0.7421,0.7546,0.7757,0.7784,0.7858,0.7963,0.8244,0.8517,0.0,0.0,0.0,0.0,0.0,0.0,0.0,0.0,0.0,0.0,0.0,-2.2056,-2.2639,0.0,-2.4329,-2.5668,-2.6865,-2.7604,-2.756,-2.6988,-2.6041,-2.4707,-2.3135,-2.2074,-2.1919,-2.1149,-2.0978,-2.172,-2.0951,-2.071,-2.1316,-2.0365,-1.9365,-1.8429,-1.7382,-1.5678,-1.3217,-1.2175,-1.0831,-0.9207,-0.8927,-0.8757,-0.871,-0.8628,-0.6991,-0.421,-0.4198,-0.1763,0.2148,0.14,0.1459,0.1884,0.0627,0.1467,0.3073,0.0838,0.0475,0.0783,-0.1425,-0.271,-0.3463,-0.4247,-0.447,-0.43,-0.3575,-0.2824,-0.2237,-0.2237,-0.2237,-0.2066,-0.1303,-0.11,-0.0926,-0.0187,0.1024,0.2192,0.2859,0.4578,0.6207,0.688,0.7534,0.7789,0.711,0.7011,0.7012,0.6996,0.7008,0.6741,0.5984,0.5896,0.6421,0.7756,0.7746,0.8206,0.9626,0.9445,0.8965,0.8303,0.746,0.6991,0.6991,0.7058,0.7229,0.7505,0.7512,0.7641,0.7889,0.7889,0.7943,0.7988,0.7988,0.7988,0.0,0.0,0.0,0.0,0.0,0.0,0.0,-1.861,-1.9951,-2.1382,-2.3148,-2.4652,-2.5336,-2.6197,-2.7129,-2.8242,-2.8828,-2.9414,-3.0098,-2.8576,-2.6371,-2.379,-2.2106,-2.0917,-2.0254,-2.0197,-2.0711,-2.1946,-2.0812,-2.0484,-2.1453,-2.0259,-1.9322,-1.8782,-1.7338,-1.5675,-1.3787,-1.2206,-1.0628,-0.9049,-0.8777,-0.8655,-0.8621,-0.823,-0.6655,-0.4135,-0.3622,-0.1567,0.1288,0.0208,-0.0499,-0.1186,-0.3642,-0.2149,0.108,-0.131,-0.1257,-0.0223,-0.1676,-0.2199,-0.2411,-0.3653,-0.3205,-0.2144,-0.1871,-0.0952,0.0,0.0,0.0,0.0,0.0,0.0,0.0,0.0,0.1019,0.2367,0.3696,0.5048,0.6406,0.7739,0.7789,0.726,0.6182,0.5787,0.5619,0.5606,0.5616,0.5205,0.4096,0.3964,0.4462,0.5787,0.5813,0.6251,0.7553,0.7461,0.7348,0.7348,0.7188,0.7098,0.7098,0.7148,0.729,0.7597,0.7624,0.7749,0.7988,0.7988,0.8137,0.8379,0.8379,0.8262,-1.1153,-1.1849,-1.3135,-1.5035,-1.5448,-1.6146,0.0,-2.0477,-2.1654,-2.3398,-2.5308,-2.668,-2.6777,-2.75,-2.8242,-2.8742,-2.9531,-3.0078,-3.0176,-2.7638,-2.5544,-2.4935,-2.3667,-2.2142,-2.0375,-2.0197,-2.0258,-2.0439,-1.9865,-1.9569,-1.9674,-1.9031,-1.7983,-1.6517,-1.6285,-1.4648,-1.1505,-1.1242,-1.0271,-0.858,-0.8553,-0.8464,-0.829,-0.7095,-0.5634,-0.3877,-0.1516,-0.0885,-0.154,-0.1694,-0.2475,-0.3753,-0.5416,-0.4201,-0.1582,-0.2046,-0.1276,-0.022,-0.1697,-0.2193,-0.2229,-0.2409,-0.2353,-0.1948,-0.0641,-0.014,0.0,0.0,0.0,0.0,0.0,0.0,0.0,0.0,0.1025,0.2372,0.3701,0.5056,0.6406,0.7739,0.7036,0.6182,0.6032,0.5008,0.4215,0.4229,0.4229,0.4125,0.3853,0.3813,0.43,0.5522,0.5534,0.5914,0.7077,0.7161,0.7148,0.7148,0.7105,0.7098,0.7098,0.7272,0.745,0.7597,0.7726,0.7844,0.7988,0.7988,0.8602,0.978,0.978,0.9147,-1.3009,-1.3251,-1.4,-1.5862,-1.65,-1.7052,-1.8528,-1.978,-2.0887,-2.1824,-2.4167,-2.6076,-2.6076,-2.7699,-2.9129,-2.9277,-3.0039,-3.0508,-3.0234,-2.7521,-2.526,-2.4566,-2.2386,-2.0611,-1.9805,-1.9733,-2.0021,-2.0686,-1.9714,-1.9423,-2.0116,-1.9098,-1.82,-1.752,-1.6317,-1.4647,-1.2534,-1.1309,-0.9939,-0.8505,-0.8423,-0.8355,-0.8243,-0.6794,-0.493,-0.2764,-0.1662,-0.1486,-0.2113,-0.3695,-0.4719,-0.539,-0.6062,-0.5062,-0.3297,-0.3345,-0.1946,-0.0081,-0.0706,-0.0916,-0.0908,-0.0921,-0.0927,-0.0792,-0.0191,0.0,0.0,0.0,0.0,0.0,0.0,0.0,0.0,0.0,0.1014,0.2364,0.3717,0.4443,0.5222,0.6581,0.5747,0.4577,0.3815,0.3218,0.2573,0.1781,0.2342,0.2539,0.1687,0.16,0.2311,0.4228,0.5716,0.6754,0.7227,0.7168,0.7154,0.7272,0.7168,0.7161,0.7272,0.7362,0.7505,0.7719,0.778,0.8247,0.9164,0.9164,0.983,1.1121,1.1121,1.0803,-1.3447,-1.3447,-1.3924,-1.5783,-1.6665,-1.7288,-1.806,-1.9367,-2.0479,-2.0754,-2.3026,-2.5119,-2.5649,-2.7427,-2.9007,-2.9651,-3.0302,-3.0586,-3.0234,-2.7401,-2.5015,-2.4089,-2.114,-1.916,-1.916,-1.916,-1.9495,-2.0323,-1.9319,-1.9043,-1.9899,-1.8864,-1.8237,-1.8157,-1.6679,-1.5024,-1.3203,-1.1685,-1.009,-0.8357,-0.8255,-0.8208,-0.815,-0.6294,-0.3996,-0.146,-0.1838,-0.2213,-0.2739,-0.5047,-0.6304,-0.6734,-0.6373,-0.5368,-0.4103,-0.3737,-0.2076,0.0,0.0,0.0,0.0,0.0,0.0,0.0,0.0,0.0,0.0,0.0,0.0,0.0,0.0,0.0,0.0,0.0,0.0732,0.1912,0.3642,0.3717,0.3942,0.5677,0.4627,0.3152,0.2157,0.1697,0.1123,0.014,0.0831,0.11,0.0115,0.0589,0.1791,0.3883,0.6037,0.7305,0.7305,0.7181,0.7168,0.7299,0.7181,0.7188,0.7389,0.7437,0.755,0.7807,0.8188,0.8942,1.0002,1.0337,1.1194,1.245,1.245,1.245,-1.1261,-1.1576,-1.2465,-1.4533,-1.5423,-1.631,-1.8392,-2.0075,-2.1251,-2.1509,-2.2798,-2.4423,-2.63,-2.6742,-2.752,-2.9812,-3.0195,-3.0215,-3.0195,-2.705,-2.4534,-2.4067,-2.077,-1.8517,-1.8517,-1.8517,-1.8545,-1.8587,-1.8237,-1.8036,-1.809,-1.7796,-1.7501,-1.7246,-1.7168,-1.5642,-1.2464,-1.2369,-1.0888,-0.8002,-0.802,-0.7995,-0.792,-0.5272,-0.2588,-0.0126,-0.1435,-0.2739,-0.4042,-0.5422,-0.6761,-0.7821,-0.6512,-0.5177,-0.3845,-0.2542,-0.1199,0.0,0.0,0.0,0.0,0.0,0.0,0.0,0.0,0.0,0.0,0.0,0.0,0.0,0.0,0.0,0.0,0.0,0.0025,0.0781,0.3441,0.299,0.2841,0.5477,0.3861,0.2056,0.2005,0.0926,0.0047,0.0,0.0046,0.0045,0.0,0.2037,0.3972,0.5225,0.6406,0.7105,0.7105,0.7098,0.7098,0.7105,0.7098,0.7188,0.7389,0.7516,0.7658,0.7807,0.9193,0.9944,1.0002,1.1243,1.2522,1.3848,1.3848,1.3848,-1.0299,-1.0742,-1.1571,-1.352,-1.4261,-1.4791,-1.5816,-1.7269,-1.8388,-1.824,-2.0116,-2.1885,-2.2371,-2.4232,-2.6051,-2.7099,-2.8701,-2.9687,-2.9394,-2.6793,-2.4544,-2.3407,-2.0462,-1.833,-1.7929,-1.8277,-1.841,-1.8183,-1.8049,-1.7929,-1.7756,-1.6635,-1.5963,-1.5864,-1.4667,-1.3056,-1.1105,-1.0893,-0.9863,-0.7988,-0.711,-0.6201,-0.5293,-0.3491,-0.1687,-0.0126,-0.2364,-0.3591,-0.4114,-0.5452,-0.6257,-0.6456,-0.4221,-0.3065,-0.2517,-0.1175,-0.0384,0.0,0.0,0.0,0.0,0.0,0.0,0.0,0.0,0.0,0.0,0.0,0.0,0.0,0.0,0.0,0.0233,0.1106,0.0636,0.0732,0.3416,0.2241,0.1212,0.301,0.1897,0.067,0.0662,0.0303,0.0277,0.1076,0.119,0.1183,0.119,0.3307,0.4954,0.5359,0.6428,0.7423,0.8237,0.845,0.8488,0.831,0.8553,0.8345,0.7569,0.8525,0.9116,0.9266,1.0571,1.1697,1.2595,1.303,1.3884,1.5164,1.5164,1.5164,-0.9301,-0.9731,-1.0516,-1.2414,-1.307,-1.3461,-1.4329,-1.533,-1.6118,-1.6261,-1.7736,-1.9213,-1.9975,-2.1849,-2.3566,-2.4526,-2.6061,-2.7138,-2.7141,-2.5108,-2.3311,-2.253,-2.012,-1.8343,-1.797,-1.7707,-1.7637,-1.7849,-1.7484,-1.7085,-1.6754,-1.526,-1.4357,-1.4213,-1.3042,-1.1719,-1.0271,-1.0086,-0.9089,-0.726,-0.5927,-0.4593,-0.3265,-0.2389,-0.1259,-0.0151,-0.2839,-0.3717,-0.3416,-0.5247,-0.5727,-0.5072,-0.2867,-0.1987,-0.1839,-0.0486,0.0,0.0,0.0,0.0,0.0,0.0,0.0,0.0,0.0,0.0,0.0,0.0,0.0,0.0133,0.0661,0.0759,0.0933,0.1863,0.1379,0.1184,0.2914,0.1562,0.0392,0.1738,0.0911,0.0,0.0,0.0367,0.1046,0.2263,0.2804,0.3086,0.309,0.4443,0.5752,0.6684,0.7456,0.8413,0.9718,0.9893,0.9916,0.9838,0.9981,0.9763,0.9099,0.9987,1.0545,1.0681,1.194,1.303,1.3896,1.4364,1.4997,1.5808,1.5808,1.5808,-0.8308,-0.8601,-0.9335,-1.1196,-1.1748,-1.2255,-1.3781,-1.4206,-1.4505,-1.5452,-1.5709,-1.6495,-1.8977,-1.9553,-2.0282,-2.2164,-2.2643,-2.3063,-2.3917,-2.2265,-2.1133,-2.1539,-1.978,-1.8504,-1.849,-1.6924,-1.6353,-1.7437,-1.6414,-1.5603,-1.5213,-1.3734,-1.2683,-1.2319,-1.2214,-1.1433,-0.9911,-0.9813,-0.8499,-0.5972,-0.4568,-0.324,-0.1987,-0.1937,-0.121,-0.0151,-0.2764,-0.3165,-0.2188,-0.4747,-0.5047,-0.3764,-0.2414,-0.1887,-0.1737,-0.0479,0.0,0.0,0.0,0.0,0.0,0.0,0.0,0.0,0.0,0.0,0.0,0.0,0.0,0.0345,0.1821,0.2044,0.1967,0.2225,0.209,0.1912,0.1987,0.0944,0.0368,0.1661,0.0924,0.0092,0.0092,0.1089,0.2303,0.3505,0.471,0.5492,0.5492,0.5564,0.656,0.9109,0.9382,0.9971,1.1438,1.1341,1.132,1.1583,1.1372,1.1386,1.1691,1.1758,1.1871,1.1989,1.3319,1.3992,1.3992,1.5224,1.5808,1.5808,1.5808,1.5808,-0.8423,-0.8676,-0.9064,-0.9695,-0.9888,-1.0061,-1.0555,-1.1482,-1.2263,-1.2311,-1.3013,-1.3724,-1.421,-1.6085,-1.7978,-1.9213,-2.1731,-2.3745,-2.4429,-2.3215,-2.2075,-2.1644,-1.9934,-1.8731,-1.8517,-1.7098,-1.6235,-1.6326,-1.4858,-1.4308,-1.5149,-1.2717,-1.1171,-1.0928,-0.9738,-0.8877,-0.8372,-0.7362,-0.6534,-0.5831,-0.3567,-0.2339,-0.1962,-0.0958,-0.0328,-0.0101,-0.1788,-0.2314,-0.2063,-0.2741,-0.2816,-0.2389,-0.1033,-0.0504,-0.0479,-0.0126,0.0,0.0,0.0,0.0,0.0,0.0,0.0,0.0,0.0,0.0,0.0,0.0,0.0,0.0313,0.1685,0.1295,0.101,0.3047,0.199,0.0781,0.1788,0.0944,0.0098,0.0433,0.0952,0.1331,0.1331,0.2332,0.3549,0.4754,0.5918,0.6656,0.6656,0.7634,0.8801,1.0139,1.0494,1.1138,1.236,1.2574,1.2677,1.2768,1.3031,1.2745,1.1735,1.2771,1.3348,1.3392,1.4663,1.532,1.532,1.5629,1.5808,1.5808,1.5808,1.5808,-0.7575,-0.7301,-0.7009,-0.7177,-0.7232,-0.725,-0.7325,-0.7943,-0.8603,-0.8904,-0.9933,-1.089,-1.1241,-1.3705,-1.5946,-1.6652,-1.9204,-2.138,-2.2236,-2.1598,-2.103,-2.0985,-1.988,-1.8998,-1.8704,-1.6662,-1.5484,-1.5877,-1.374,-1.2668,-1.32,-1.0966,-0.9558,-0.9361,-0.8478,-0.7692,-0.7009,-0.5688,-0.472,-0.4101,-0.2095,-0.112,-0.1095,-0.0352,0.0,-0.0076,-0.141,-0.1662,-0.1159,-0.1762,-0.1662,-0.1058,-0.0303,0.0,0.0,0.0,0.0,0.0,0.0,0.0,0.0,0.0,0.0,0.0,0.0,0.0,0.0,0.0,0.0,0.0312,0.1725,0.1485,0.1269,0.2843,0.2016,0.0932,0.1084,0.0522,0.0146,0.0685,0.1761,0.2747,0.3285,0.3953,0.4799,0.5958,0.7137,0.8119,0.8777,0.9584,1.0515,1.1618,1.2035,1.2746,1.4002,1.4143,1.4231,1.432,1.4472,1.4252,1.3519,1.4291,1.4735,1.4735,1.5439,1.5808,1.5808,1.5808,1.5808,1.5808,1.5808,1.5808,-0.6197,-0.5387,-0.4543,-0.4633,-0.4669,-0.468,-0.4667,-0.4655,-0.4878,-0.5745,-0.6846,-0.8,-0.9166,-1.1643,-1.3707,-1.4296,-1.5946,-1.7614,-1.9016,-1.8895,-1.9058,-2.002,-1.9476,-1.8939,-1.8647,-1.566,-1.4169,-1.5217,-1.2553,-1.0829,-1.0707,-0.9186,-0.8125,-0.7739,-0.772,-0.707,-0.5717,-0.438,-0.3114,-0.1967,-0.0631,0.0,0.0,0.0,0.0,-0.0076,-0.1235,-0.1184,-0.0353,-0.1335,-0.1159,-0.0252,-0.0076,0.0,0.0,0.0,0.0,0.0,0.0,0.0,0.0,0.0,0.0,0.0,0.0,0.0,0.0,0.0,0.0,0.0338,0.1789,0.196,0.181,0.2115,0.1961,0.146,0.0479,0.0397,0.0797,0.1837,0.3012,0.4172,0.5225,0.5514,0.5958,0.6937,0.8251,0.9613,1.0941,1.1259,1.1902,1.3278,1.3725,1.4436,1.5634,1.5538,1.5524,1.5781,1.5568,1.5565,1.5795,1.5808,1.5808,1.5808,1.5808,1.5808,1.5808,1.5808,1.5808,1.5808,1.5808,1.5821,-0.4788,-0.4682,-0.4501,-0.4543,-0.4526,-0.4535,-0.4523,-0.4409,-0.4335,-0.4516,-0.4651,-0.5131,-0.644,-0.8181,-1.0056,-1.201,-1.3666,-1.5527,-1.7817,-1.7865,-1.8203,-1.9704,-1.8273,-1.715,-1.7101,-1.3859,-1.1863,-1.2073,-1.0071,-0.9357,-1.0638,-0.9186,-0.7712,-0.6387,-0.6235,-0.5543,-0.4197,-0.2843,-0.2059,-0.1811,-0.0579,0.0,0.0,0.0,0.0,-0.0025,-0.0252,-0.0832,-0.1586,-0.0706,-0.0857,-0.1536,-0.0429,0.0,0.0,0.0,0.0,0.0,0.0,0.0,0.0,0.0,0.0,0.0,0.0,0.0,0.0,0.0,0.0,0.031,0.1683,0.1206,0.062,0.1777,0.1161,0.058,0.146,0.2449,0.3175,0.3262,0.4258,0.5154,0.5359,0.6185,0.6871,0.707,0.8921,1.05,1.103,1.2125,1.33,1.4569,1.4943,1.5209,1.5448,1.5431,1.5524,1.5781,1.5755,1.5755,1.5808,1.5808,1.5808,1.5808,1.5808,1.5808,1.5808,1.5808,1.5808,1.5808,1.5808,1.5941,-0.3246,-0.274,-0.2153,-0.2153,-0.2155,-0.2162,-0.2164,-0.2079,-0.2024,-0.2015,-0.2509,-0.3155,-0.3814,-0.581,-0.8001,-0.9984,-1.1746,-1.3623,-1.5865,-1.6035,-1.6276,-1.7176,-1.6247,-1.5426,-1.5266,-1.2907,-1.1325,-1.1101,-0.9429,-0.8714,-0.9414,-0.796,-0.6774,-0.6032,-0.5253,-0.4223,-0.2868,-0.2222,-0.1555,-0.0855,-0.0286,0.0,0.0,0.0,0.0,0.0,0.0,-0.0353,-0.0907,-0.0278,-0.0378,-0.0907,-0.0252,0.0,0.0,0.0,0.0,0.0,0.0,0.0,0.0,0.0,0.0,0.0,0.0,0.0,0.0,0.0,0.0,0.0154,0.0793,0.0486,0.0332,0.169,0.2037,0.2233,0.2808,0.3874,0.4876,0.5339,0.6406,0.721,0.721,0.768,0.7849,0.7341,0.9165,1.0799,1.1347,1.3007,1.4417,1.5132,1.5444,1.5618,1.5618,1.5618,1.5661,1.5795,1.5808,1.5808,1.5808,1.5808,1.5808,1.5808,1.5808,1.5808,1.5808,1.5808,1.5888,1.6059,1.6059,1.6219,-0.1226,-0.0649,0.0,0.0,0.0,0.0081,0.0362,0.0203,0.0075,0.0362,-0.0632,-0.1657,-0.1957,-0.39,-0.6006,-0.7689,-0.9439,-1.1255,-1.3222,-1.3798,-1.4199,-1.4729,-1.4231,-1.373,-1.3429,-1.1857,-1.0729,-1.0416,-0.8872,-0.7917,-0.7814,-0.6662,-0.5727,-0.5147,-0.4117,-0.2939,-0.1591,-0.1569,-0.1044,0.0,0.0,0.0,0.0,0.0,0.0,0.0,0.0,-0.0151,-0.0404,-0.0126,-0.0177,-0.0404,-0.0101,0.0,0.0,0.0,0.0,0.0,0.0,0.0,0.0,0.0,0.0,0.0,0.0,0.0,0.0,0.0,0.0,0.0,0.0,0.0204,0.0756,0.2113,0.3441,0.4392,0.4221,0.5155,0.6322,0.729,0.8286,0.9046,0.9244,0.9314,0.9009,0.7892,0.9623,1.1221,1.1605,1.3664,1.5186,1.5458,1.5675,1.5808,1.5808,1.5808,1.5808,1.5808,1.5808,1.5808,1.5808,1.5808,1.5808,1.5808,1.5808,1.5808,1.5808,1.5861,1.6046,1.6297,1.6364,1.6551,0.1764,0.0926,0.0,0.0,0.0,0.0326,0.1542,0.0878,0.0351,0.1569,0.0744,-0.0554,-0.1786,-0.2215,-0.2956,-0.4639,-0.6078,-0.7678,-0.9686,-1.1159,-1.2583,-1.4013,-1.2907,-1.1959,-1.1731,-0.9942,-0.8764,-0.8709,-0.7182,-0.6233,-0.6222,-0.6087,-0.4872,-0.244,-0.2238,-0.1547,-0.0196,-0.0196,-0.0121,0.0,0.0,0.0,0.0,0.0,0.0,0.0,0.0,-0.0681,-0.1712,-0.0504,-0.0706,-0.1687,-0.0479,0.0,0.0,0.0,0.0,0.0,0.0,0.0,0.0,0.0,0.0,0.0,0.0,0.0,0.0,0.0,0.0,0.0,0.0,0.0909,0.2163,0.3491,0.4847,0.5743,0.5489,0.6484,0.7671,0.8559,0.9007,0.9504,1.0321,1.069,1.0416,0.8981,1.0951,1.2348,1.1617,1.377,1.5471,1.5728,1.5795,1.5808,1.5808,1.5808,1.5808,1.5808,1.5808,1.5808,1.5808,1.5808,1.5808,1.5808,1.5808,1.5808,1.5808,1.6099,1.627,1.631,1.654,1.6846,0.3569,0.3279,0.2731,0.1734,0.1502,0.1602,0.1922,0.159,0.1581,0.2938,0.2142,0.1043,0.0502,-0.0252,-0.1544,-0.3818,-0.4643,-0.562,-0.7454,-0.8913,-0.9829,-0.9872,-0.9991,-1.0074,-1.0096,-0.9207,-0.8223,-0.7257,-0.5703,-0.4447,-0.3645,-0.3594,-0.3102,-0.2029,-0.1214,-0.054,0.0,0.0,0.0,0.0,0.0,0.0,0.0,0.0,0.0,0.0,0.0,-0.0303,-0.0756,-0.0227,-0.0303,-0.0732,-0.0202,0.0,0.0,0.0,0.0,0.0,0.0,0.0,0.0,0.0,0.0,0.0,0.0,0.0555,0.1033,0.0227,0.1159,0.2213,0.141,0.2791,0.4547,0.5072,0.6226,0.7328,0.7749,0.8248,0.9137,1.0913,1.1321,1.1529,1.186,1.2025,1.1716,1.0516,1.1749,1.2831,1.2924,1.4384,1.5511,1.5768,1.5808,1.5808,1.5808,1.5808,1.5808,1.5808,1.5808,1.5808,1.5808,1.5808,1.5808,1.5808,1.6005,1.6005,1.5808,1.6299,1.6526,1.654,1.6859,1.7153,0.5115,0.5012,0.4578,0.3428,0.3134,0.3114,0.3248,0.2925,0.2981,0.4311,0.3524,0.2598,0.2584,0.1486,-0.0025,-0.1907,-0.3213,-0.4289,-0.5105,-0.7104,-0.7955,-0.649,-0.7818,-0.8575,-0.7885,-0.7553,-0.6891,-0.572,-0.4246,-0.299,-0.2037,-0.1637,-0.1398,-0.1396,-0.049,0.0,0.0,0.0385,0.0386,0.0,0.0393,0.0396,0.0,0.0,0.0,0.0,0.0,0.0,0.0,0.0,0.0,0.0,0.0,0.0,0.0,0.0,0.0,0.0,0.0,0.0,0.0,0.0,0.0278,0.058,0.058,0.1259,0.1887,0.1335,0.254,0.3867,0.3316,0.4572,0.6107,0.6506,0.7602,0.8735,0.9192,0.9621,1.048,1.2425,1.2868,1.2992,1.3273,1.3449,1.3135,1.192,1.2788,1.3633,1.3815,1.4829,1.5581,1.5781,1.5808,1.5808,1.5808,1.5808,1.5808,1.5808,1.5888,1.5965,1.5965,1.5965,1.5981,1.6061,1.6206,1.6206,1.6061,1.6593,1.6859,1.6872,1.7167,1.7408,0.6599,0.5706,0.4711,0.4681,0.4576,0.4782,0.5981,0.5062,0.4368,0.5702,0.4918,0.3989,0.3989,0.2889,0.1962,0.1937,-0.1405,-0.3591,-0.24,-0.5844,-0.7501,-0.4858,-0.7006,-0.7597,-0.4823,-0.437,-0.4181,-0.4028,-0.2791,-0.2012,-0.2012,-0.0732,-0.0025,-0.0025,0.0,0.0,0.0,0.1322,0.131,0.0025,0.1335,0.1284,0.0,0.0,0.0,0.0,0.0,0.0,0.0,0.0,0.0,0.0,0.0,0.0,0.0,0.0,0.0,0.0,0.0,0.0,0.0,0.0,0.0907,0.1987,0.1987,0.1987,0.2264,0.3591,0.3989,0.4293,0.5627,0.5977,0.6331,0.7658,0.8998,0.9852,0.9403,1.0338,1.1577,1.2614,1.3,1.3466,1.4322,1.4981,1.479,1.3047,1.4269,1.4962,1.3847,1.4927,1.5808,1.5808,1.5808,1.5808,1.5808,1.5808,1.5808,1.5808,1.6112,1.6297,1.6297,1.6297,1.6431,1.6687,1.6444,1.6444,1.67,1.702,1.7192,1.7206,1.7461,1.7608,0.7905,0.7741,0.7317,0.6199,0.5913,0.592,0.6069,0.5721,0.5752,0.7086,0.6301,0.5372,0.5372,0.3519,0.1709,0.0777,-0.1205,-0.2494,-0.2105,-0.4013,-0.481,-0.3128,-0.4657,-0.5435,-0.4397,-0.3409,-0.2774,-0.2647,-0.1385,-0.0631,-0.0631,-0.0227,0.0,0.0,0.0,0.0403,0.1223,0.1753,0.219,0.2591,0.2187,0.1788,0.1335,0.0429,0.0,0.0,0.0,0.0,0.0,0.0,0.0,0.0,0.0,0.0,0.0,0.0,0.0,0.0,0.0,0.0,0.0151,0.1058,0.1662,0.2339,0.4171,0.4722,0.5022,0.6351,0.6077,0.5677,0.7005,0.736,0.7708,0.904,0.9682,1.0389,1.1791,1.2428,1.309,1.4338,1.4498,1.4585,1.5029,1.511,1.5006,1.4621,1.5042,1.5355,1.5164,1.5528,1.5808,1.5808,1.5808,1.5808,1.5808,1.5808,1.5808,1.5808,1.6112,1.6297,1.6297,1.6297,1.6431,1.67,1.662,1.662,1.67,1.7234,1.7474,1.7474,1.7568,1.7608,0.9324,0.9404,0.9221,0.7709,0.7281,0.7194,0.6934,0.6797,0.6986,0.7839,0.7335,0.6756,0.6756,0.4572,0.2486,0.1653,-0.0477,-0.1816,-0.1323,-0.2848,-0.3716,-0.2967,-0.2844,-0.2957,-0.3347,-0.2157,-0.1328,-0.1262,-0.0479,0.0,0.0,0.0426,0.0689,0.0668,0.0691,0.1031,0.1789,0.2875,0.3552,0.3792,0.3592,0.2967,0.1962,0.1134,0.0479,0.0,0.0,0.0,0.0,0.0,0.0,0.0,0.0,0.0,0.0,0.0,0.0,0.0,0.0,0.0328,0.0882,0.1737,0.2691,0.392,0.6102,0.6756,0.6936,0.7764,0.7409,0.6961,0.7789,0.8386,0.8973,0.9805,1.0754,1.1831,1.3121,1.38,1.4393,1.5229,1.528,1.52,1.5364,1.5337,1.5311,1.5391,1.5484,1.5595,1.5781,1.6221,1.6527,1.6527,1.6913,1.7203,1.7203,1.6339,1.5848,1.5992,1.6273,1.6511,1.6618,1.6632,1.6765,1.7034,1.6927,1.6953,1.7034,1.7434,1.7608,1.7608,1.7608,1.7608,0.0,1.0584,1.0355,0.911,0.8633,0.8444,0.8308,0.814,0.0,0.7988,0.7988,0.7988,0.7988,0.5797,0.3989,0.3989,0.0703,-0.1418,-0.0181,-0.2148,-0.3722,-0.3713,-0.1519,-0.0477,-0.1737,-0.0726,0.0,0.0,0.0,0.005,0.0126,0.1189,0.1845,0.1929,0.2018,0.2046,0.2049,0.455,0.5217,0.41,0.5376,0.4697,0.2289,0.2088,0.1309,0.0126,0.005,0.005,0.0151,0.0151,0.0202,0.0278,0.0278,0.0278,0.0278,0.0177,0.0202,0.0278,0.0177,0.1008,0.2163,0.2264,0.4046,0.6381,0.7615,0.7988,0.7988,0.7988,0.7988,0.7988,0.7988,0.8998,1.0018,1.0116,1.2061,1.3838,1.3614,1.4547,1.5431,1.5431,1.5404,1.5404,1.5431,1.5608,1.5688,1.5471,1.5728,1.595,1.595,1.703,1.7824,1.7824,1.8833,1.9497,1.9497,1.739,1.6215,1.6562,1.6738,1.6985,1.7333,1.7257,1.734,1.7595,1.7367,1.7341,1.7608,1.7608,1.7608,1.7608,1.7635,1.7635,1.1899,0.0,1.0096,0.9769,0.8891,0.8108,0.0,0.804,0.7988,0.7988,0.7988,0.7988,0.7988,0.5797,0.3989,0.3989,0.1484,-0.0354,-0.0051,-0.0546,-0.0932,-0.0949,-0.0381,-0.0134,-0.0442,-0.0182,0.0,0.0,0.0,0.0454,0.1486,0.1708,0.228,0.3302,0.4115,0.4547,0.4544,0.538,0.6107,0.6691,0.623,0.5677,0.4997,0.2942,0.1838,0.146,0.0454,0.058,0.1536,0.1536,0.2138,0.3065,0.3065,0.3065,0.2939,0.1912,0.2188,0.2914,0.1887,0.2414,0.3692,0.4722,0.6176,0.7584,0.7914,0.7988,0.7988,0.7988,0.7988,0.7988,0.7988,0.8998,1.0248,1.1219,1.2716,1.4148,1.504,1.5476,1.5701,1.5701,1.5551,1.5471,1.5661,1.5605,1.5551,1.5675,1.6603,1.7241,1.7241,1.8319,1.9085,1.9085,1.9337,1.9497,1.9497,1.8971,1.8791,1.9186,1.8486,1.8259,1.8705,1.7742,1.734,1.7595,1.7541,1.7541,1.7608,1.7608,1.7608,1.7582,1.7796,1.7809,1.2256,1.0974,0.9854,0.9238,0.8528,0.7988,0.7988,0.7988,0.7988,0.7988,0.7988,0.7814,0.7185,0.5397,0.3792,0.319,0.136,0.0,0.0,0.0,0.0,0.0,0.0,0.0,0.0,0.0,0.0255,0.0883,0.0907,0.1511,0.2839,0.3305,0.3885,0.46,0.5647,0.5936,0.5403,0.615,0.6887,0.7604,0.707,0.6525,0.5952,0.4497,0.3491,0.2839,0.1511,0.1687,0.2864,0.2264,0.2789,0.3989,0.3989,0.3989,0.3917,0.319,0.3366,0.3892,0.3165,0.3792,0.5147,0.6481,0.7409,0.7988,0.7988,0.7988,0.7988,0.7988,0.7988,0.8137,0.8751,0.9895,1.1194,1.2498,1.3836,1.4949,1.5652,1.5808,1.5808,1.5808,1.5675,1.5832,1.6546,1.6551,1.6704,1.7383,1.8087,1.8526,1.8526,1.9588,2.0336,2.0336,2.0809,2.1235,2.1459,2.1477,2.1158,2.0374,1.9169,1.8766,1.9369,1.8105,1.7448,1.7608,1.7608,1.7608,1.7608,1.7608,1.7662,1.7796,1.7942,1.7929,1.1916,1.052,0.9168,0.8237,0.7832,0.769,0.769,0.769,0.769,0.769,0.769,0.7285,0.5952,0.4593,0.3316,0.2188,0.0884,0.0077,0.0313,0.0133,0.0081,0.0299,0.0319,0.0314,0.0317,0.0488,0.1083,0.2179,0.2279,0.285,0.4182,0.5078,0.5665,0.5876,0.667,0.6628,0.5669,0.6818,0.7471,0.7604,0.7746,0.7272,0.6306,0.6107,0.5372,0.4243,0.2889,0.3065,0.4218,0.309,0.3391,0.4618,0.4618,0.4618,0.4593,0.4393,0.4443,0.4618,0.4618,0.5347,0.6481,0.764,0.7988,0.7988,0.7988,0.8137,0.8311,0.8311,0.8311,0.8577,0.9706,1.1097,1.2498,1.3632,1.4878,1.5855,1.6045,1.6079,1.6126,1.6339,1.6362,1.6702,1.78,1.7986,1.8319,1.936,1.9656,1.9753,1.9753,2.0814,2.1569,2.1569,2.2492,2.3298,2.375,2.3789,2.3077,2.1388,1.9973,1.9324,1.9598,1.8304,1.7608,1.7608,1.7608,1.7608,1.7608,1.7608,1.7742,1.7995,1.8035,1.8076,1.0337,0.8491,0.6846,0.7759,0.7142,0.6306,0.6306,0.6306,0.6306,0.6306,0.6306,0.5902,0.4543,0.3215,0.2238,0.2037,0.0868,0.0444,0.1699,0.0788,0.0461,0.1712,0.1753,0.1703,0.168,0.2725,0.3418,0.3515,0.3534,0.4068,0.5289,0.5409,0.5943,0.708,0.7119,0.7003,0.6849,0.7202,0.7471,0.7604,0.7746,0.7767,0.7658,0.6506,0.5877,0.5627,0.4268,0.4443,0.5677,0.5477,0.6176,0.7385,0.7385,0.7385,0.726,0.6102,0.6401,0.7385,0.7385,0.7509,0.7739,0.7939,0.7988,0.7988,0.7988,0.88,0.9682,0.9682,0.9682,0.9731,0.9953,1.1794,1.3632,1.3848,1.4878,1.6116,1.7185,1.7404,1.7707,1.8741,1.8925,1.8993,1.92,1.9222,1.9291,1.9474,2.0364,2.1016,2.1016,2.2076,2.2818,2.2818,2.2972,2.3298,2.375,2.3789,2.3961,2.4383,2.3094,2.1486,1.969,1.8304,1.7608,1.7608,1.7608,1.7608,1.7608,1.7608,1.7742,1.7995,1.8276,1.8424,0.8234,0.6931,0.5795,0.4979,0.4842,0.4922,0.4926,0.4914,0.4927,0.4929,0.4921,0.4496,0.3171,0.2407,0.177,0.1037,0.0393,0.0238,0.0914,0.0432,0.0242,0.0933,0.1609,0.2004,0.1995,0.3209,0.4278,0.4938,0.4983,0.5556,0.6827,0.6774,0.6937,0.7495,0.7346,0.7202,0.7098,0.7188,0.7366,0.7597,0.7665,0.7797,0.7988,0.736,0.7086,0.7011,0.5672,0.5852,0.7036,0.6306,0.6781,0.7988,0.7988,0.7988,0.7914,0.731,0.7459,0.7988,0.7988,0.7988,0.7988,0.7988,0.7988,0.8137,0.8874,0.9509,1.0141,1.0828,1.1023,1.1194,1.1916,1.3006,1.4064,1.4758,1.59,1.6998,1.7568,1.8203,1.8833,1.9382,1.9497,1.9724,2.0364,2.0477,2.0697,2.1364,2.1921,2.2271,2.2271,2.2967,2.3496,2.3496,2.3669,2.3981,2.4476,2.4496,2.4349,2.3978,2.2919,2.1478,1.9679,1.8304,1.7662,1.7796,1.7662,1.7662,1.7836,1.7662,1.7822,1.8263,1.8424,1.8571,0.665,0.5766,0.4967,0.2597,0.2764,0.3532,0.3543,0.3524,0.3522,0.3528,0.3802,0.3641,0.2249,0.2286,0.2186,0.1141,0.1015,0.118,0.1508,0.1235,0.1123,0.1491,0.2354,0.2942,0.293,0.4152,0.5359,0.6338,0.6413,0.6847,0.7863,0.777,0.7658,0.755,0.74,0.7258,0.7098,0.7154,0.731,0.7597,0.7597,0.7729,0.7988,0.7988,0.7988,0.7939,0.6905,0.7061,0.7914,0.688,0.7086,0.7988,0.7988,0.7988,0.7988,0.7988,0.7988,0.7988,0.7988,0.7988,0.8063,0.8361,0.8478,0.8726,1.0043,1.0656,1.1112,1.2086,1.2571,1.2993,1.3704,1.4124,1.4579,1.5557,1.6763,1.7777,1.8056,1.9062,2.0019,2.0291,2.0336,2.0629,2.1547,2.1725,2.2031,2.295,2.3179,2.3218,2.3101,2.3571,2.3906,2.3809,2.416,2.459,2.5063,2.518,2.4785,2.3711,2.2711,2.1684,2.059,1.904,1.8288,1.8481,1.8036,1.7916,1.8129,1.7916,1.8063,1.8597,1.8973,1.9291,0.6381,0.5099,0.3791,0.2366,0.2075,0.2139,0.2145,0.2149,0.2145,0.2158,0.3238,0.3725,0.2257,0.3106,0.3998,0.3915,0.4062,0.4647,0.6024,0.4884,0.4428,0.5867,0.5846,0.572,0.5721,0.6911,0.7705,0.7665,0.7682,0.7647,0.7638,0.7512,0.7423,0.741,0.7215,0.7105,0.7098,0.7285,0.7464,0.7597,0.7597,0.7729,0.7988,0.7988,0.7988,0.7988,0.7889,0.7914,0.7988,0.7889,0.7914,0.7988,0.7988,0.7988,0.7988,0.7988,0.7988,0.7988,0.7988,0.7988,0.8212,0.946,0.9854,1.0092,1.139,1.2619,1.3632,1.3728,1.4603,1.5272,1.4172,1.4782,1.5689,1.5784,1.6763,1.801,1.9131,2.0319,2.1502,2.2621,2.284,2.2862,2.295,2.2972,2.2994,2.3101,2.3454,2.3594,2.3162,2.3845,2.4196,2.3828,2.416,2.459,2.5063,2.5449,2.5611,2.5514,2.4276,2.3509,2.3409,2.1163,1.992,1.995,1.896,1.8437,1.8464,1.8437,1.8584,1.892,2.034,2.1158,0.6356,0.5779,0.5185,0.3631,0.2772,0.2322,0.2324,0.1497,0.1048,0.2093,0.2748,0.3233,0.3499,0.3847,0.4093,0.4186,0.4256,0.4504,0.508,0.4593,0.4391,0.4892,0.5576,0.6001,0.5992,0.721,0.7993,0.7932,0.7925,0.7905,0.7851,0.7797,0.7706,0.7516,0.7455,0.731,0.7098,0.7292,0.7471,0.7604,0.7692,0.7817,0.7988,0.7988,0.7988,0.7988,0.7988,0.7988,0.7988,0.7988,0.7988,0.7988,0.7988,0.7988,0.7988,0.7988,0.7988,0.7988,0.7988,0.8552,0.9336,0.983,1.0534,1.1439,1.274,1.3488,1.4076,1.4854,1.5439,1.5689,1.5224,1.5439,1.5998,1.6786,1.7925,1.9154,2.0364,2.1569,2.2558,2.2994,2.3101,2.3101,2.3101,2.3101,2.3198,2.3474,2.3435,2.3493,2.3864,2.4196,2.4453,2.4593,2.498,2.5386,2.5884,2.6055,2.6225,2.6498,2.4963,2.396,2.3701,2.1621,2.042,2.0354,1.9126,1.8584,1.8758,1.9513,1.9997,2.0299,2.184,2.2704,0.6257,0.5859,0.5452,0.4332,0.3595,0.3275,0.3823,0.23,0.1127,0.227,0.3176,0.4195,0.5582,0.558,0.5387,0.5466,0.554,0.5558,0.5558,0.5531,0.5466,0.5356,0.6113,0.6625,0.6637,0.7459,0.7988,0.7988,0.7988,0.7993,0.7946,0.7946,0.781,0.7536,0.7577,0.766,0.779,0.7613,0.7797,0.8297,0.8007,0.7912,0.7988,0.7988,0.7988,0.7988,0.7988,0.7988,0.7988,0.7988,0.7988,0.7988,0.7988,0.7988,0.7988,0.7988,0.7988,0.8063,0.8478,0.9238,1.0141,1.0965,1.1818,1.2788,1.41,1.4507,1.4674,1.5557,1.5808,1.5808,1.5808,1.6103,1.6622,1.7474,1.8902,2.0274,2.1105,2.2249,2.3101,2.3101,2.322,2.3318,2.3318,2.3435,2.363,2.3945,2.3825,2.3884,2.4332,2.4645,2.5,2.5454,2.562,2.5932,2.6543,2.6465,2.6562,2.6967,2.5976,2.5184,2.4751,2.3111,2.1918,2.1363,2.0125,1.957,1.975,2.0589,2.1322,2.1995,2.3524,2.436,0.6032,0.5047,0.4088,0.4212,0.437,0.4978,0.6702,0.4718,0.2536,0.2551,0.4645,0.694,0.8439,0.8472,0.8294,0.8301,0.8417,0.8505,0.8505,0.8383,0.8294,0.8294,0.8133,0.7988,0.7988,0.7988,0.7988,0.7988,0.7988,0.7946,0.7821,0.7814,0.7702,0.7455,0.7569,0.8166,0.93,0.832,0.8475,0.9762,0.8571,0.7988,0.7988,0.7988,0.7988,0.7988,0.7988,0.7988,0.7988,0.7988,0.7988,0.7988,0.7988,0.7988,0.7988,0.7988,0.8013,0.8212,0.9534,1.0026,1.046,1.3054,1.3896,1.4148,1.5415,1.5808,1.5808,1.5808,1.5808,1.5832,1.5832,1.6763,1.7731,1.7707,1.9565,2.1302,2.1306,2.2252,2.3101,2.3101,2.3474,2.3789,2.3789,2.4141,2.4391,2.4391,2.4785,2.4926,2.4473,2.5171,2.5874,2.6348,2.5971,2.6069,2.6928,2.6641,2.6582,2.6992,2.7467,2.7506,2.7006,2.5982,2.4728,2.3239,2.2165,2.1614,2.1614,2.1643,2.2392,2.385,2.5398,2.6127,0.7441,0.7293,0.7156,0.709,0.6637,0.6308,0.6732,0.5382,0.4354,0.5373,0.6067,0.698,0.8551,0.854,0.8328,0.843,0.8396,0.8362,0.8362,0.8321,0.8253,0.8094,0.804,0.7988,0.7988,0.7988,0.7988,0.7988,0.7988,0.8382,0.9314,0.9123,0.9426,1.0389,1.0292,0.9965,0.9443,0.9289,0.8932,0.8386,0.8136,0.7988,0.7988,0.7988,0.7988,0.7988,0.7988,0.7988,0.7988,0.7988,0.7988,0.7988,0.7988,0.7988,0.7988,0.7988,0.8602,0.946,0.9854,1.1209,1.2861,1.3656,1.4507,1.532,1.5689,1.5808,1.5808,1.5808,1.6457,1.7138,1.7138,1.8672,2.0003,1.9177,2.0161,2.1525,2.2381,2.284,2.3101,2.3101,2.3474,2.3789,2.3789,2.4141,2.4508,2.4824,2.4727,2.4668,2.4887,2.5367,2.5874,2.6348,2.6269,2.6543,2.7428,2.7389,2.7487,2.7891,2.8054,2.7773,2.7025,2.6287,2.5532,2.4754,2.3695,2.3151,2.3151,2.4239,2.4986,2.5453,2.6952,2.7645,0.789,0.7826,0.7767,0.8327,0.8129,0.7809,0.7795,0.6671,0.6109,0.7645,0.7686,0.7734,0.8647,0.8533,0.8308,0.8303,0.8235,0.818,0.818,0.818,0.8147,0.8027,0.7988,0.8212,0.8751,0.88,0.8998,0.9509,0.9558,0.9886,1.0636,1.0518,1.0772,1.1446,1.1498,1.1105,1.0214,0.9999,0.947,0.8676,0.8213,0.7988,0.7988,0.7988,0.7988,0.7988,0.7988,0.7988,0.7988,0.7988,0.7988,0.7988,0.7988,0.7988,0.8063,0.8602,0.9312,1.0141,1.1185,1.2595,1.3968,1.4483,1.5164,1.5808,1.5808,1.5808,1.5903,1.641,1.7115,1.78,1.8295,1.9844,2.1105,2.0387,2.1145,2.2208,2.2928,2.3101,2.3101,2.3101,2.3474,2.3789,2.3789,2.4277,2.4766,2.5043,2.5,2.5015,2.5293,2.5698,2.6152,2.6602,2.6641,2.6973,2.7858,2.778,2.7878,2.8262,2.8301,2.8066,2.7539,2.7191,2.6579,2.5685,2.5029,2.471,2.471,2.5663,2.64,2.6987,2.7906,2.8301,0.7709,0.7269,0.6857,0.8354,0.8995,0.926,0.9396,0.8337,0.7719,0.9225,0.9183,0.8845,0.871,0.8472,0.8247,0.806,0.8027,0.7988,0.7988,0.7988,0.7988,0.7988,0.7988,0.8528,0.9879,1.0002,1.0534,1.1804,1.1901,1.1907,1.1907,1.1987,1.1884,1.1544,1.1984,1.199,1.1528,1.062,1.0116,0.9977,0.8651,0.7988,0.7988,0.7988,0.7988,0.7988,0.7988,0.7988,0.7988,0.7988,0.7988,0.8013,0.8137,0.8187,0.8329,0.9682,1.0239,1.0705,1.3078,1.3968,1.4268,1.5415,1.5808,1.5808,1.5808,1.5808,1.6069,1.7334,1.7777,1.8149,1.9392,2.0579,2.1458,2.1516,2.2334,2.3101,2.3101,2.3101,2.3101,2.3101,2.3493,2.3848,2.3848,2.4593,2.516,2.516,2.5508,2.5776,2.5776,2.6172,2.6602,2.7031,2.7045,2.7402,2.8223,2.7976,2.7917,2.8262,2.8301,2.8301,2.8301,2.8301,2.7672,2.6318,2.6291,2.6291,2.6291,2.6291,2.7006,2.8301,2.8301,2.832,0.817,0.8143,0.8157,0.8729,0.9205,0.9517,0.9551,0.9225,0.892,0.9017,0.8885,0.8723,0.8716,0.8472,0.8287,0.8253,0.8094,0.7988,0.7988,0.7988,0.7988,0.7988,0.7988,0.8528,0.9879,1.0002,1.0534,1.1804,1.1901,1.2356,1.336,1.32,1.359,1.4754,1.4693,1.4226,1.3352,1.2107,1.0999,0.9977,0.8651,0.7988,0.7988,0.7988,0.7988,0.7988,0.7988,0.7988,0.7988,0.7988,0.7988,0.8113,0.9164,0.9558,0.9731,1.1023,1.2159,1.3151,1.3704,1.4555,1.5439,1.57,1.5808,1.5808,1.5808,1.5808,1.6069,1.7334,1.8388,1.9471,2.1037,2.209,2.2807,2.3175,2.318,2.3101,2.3101,2.3101,2.3101,2.3101,2.3728,2.4277,2.4277,2.4996,2.5562,2.5562,2.5977,2.625,2.625,2.6621,2.7051,2.7506,2.7545,2.7761,2.8242,2.8203,2.823,2.8281,2.8301,2.8301,2.8301,2.8301,2.8147,2.7833,2.7853,2.7853,2.7853,2.7853,2.7987,2.8301,2.8301,2.8476,0.8274,0.8403,0.8614,0.9035,0.9435,0.9673,0.953,0.9442,0.9279,0.8879,0.8737,0.8689,0.8615,0.8444,0.8274,0.8174,0.8067,0.7988,0.7988,0.8552,0.8949,0.8949,0.9509,1.0386,1.1745,1.1867,1.2401,1.3668,1.3764,1.4076,1.4782,1.4645,1.4876,1.5595,1.5605,1.4982,1.3661,1.2493,1.1268,0.9977,0.8651,0.7988,0.7988,0.7988,0.7988,0.7988,0.7988,0.7988,0.8038,0.8701,0.8949,0.9097,1.0411,1.0901,1.1072,1.2377,1.3295,1.3992,1.4603,1.5248,1.5808,1.5808,1.5808,1.5927,1.6527,1.6716,1.7077,1.8902,1.9883,2.0739,2.2417,2.299,2.322,2.3691,2.3435,2.3101,2.3101,2.3101,2.3101,2.3101,2.3649,2.4121,2.4121,2.4844,2.5488,2.5679,2.5913,2.6152,2.6367,2.6758,2.7187,2.7643,2.7878,2.8073,2.8281,2.8301,2.8301,2.8301,2.8301,2.8379,2.8574,2.8398,2.8301,2.8301,2.8301,2.8301,2.8301,2.8301,2.8301,2.8301,2.8301,2.8516,0.8253,0.8437,0.8689,0.924,0.9544,0.9673,0.943,0.9369,0.926,0.8832,0.871,0.8621,0.8498,0.8355,0.8187,0.8033,0.7988,0.8088,0.8311,0.9287,1.0076,1.0288,1.1268,1.2425,1.3776,1.3896,1.4435,1.5713,1.5808,1.5808,1.5808,1.5808,1.5688,1.5484,1.5675,1.5061,1.3508,1.2427,1.1268,0.9977,0.8651,0.7988,0.7988,0.7988,0.7988,0.8013,0.8237,0.8354,0.8453,0.978,1.0337,1.046,1.1745,1.2266,1.2401,1.374,1.4244,1.4388,1.5439,1.5808,1.5855,1.6055,1.6126,1.6362,1.7638,1.801,1.848,2.0679,2.1302,2.1683,2.3361,2.3435,2.322,2.3691,2.3493,2.3198,2.312,2.3101,2.312,2.322,2.3672,2.4066,2.4121,2.473,2.5312,2.5659,2.5835,2.6069,2.6445,2.6934,2.7363,2.7761,2.8086,2.8301,2.8301,2.8301,2.8301,2.8301,2.8301,2.8476,2.8879,2.8574,2.8437,2.8516,2.8359,2.8301,2.8301,2.8301,2.8301,2.8301,2.8359,2.8633,0.8253,0.8567,0.8899,0.9158,0.9342,0.9424,0.9254,0.9241,0.9158,0.8919,0.8696,0.8498,0.8349,0.8174,0.804,0.7995,0.7988,0.8411,0.9558,0.9879,1.0411,1.1512,1.1804,1.2425,1.3776,1.3896,1.4435,1.5713,1.5808,1.5808,1.5808,1.5808,1.5781,1.5741,1.5781,1.5175,1.3849,1.256,1.1268,0.9977,0.8651,0.7988,0.7988,0.7988,0.7988,0.8063,0.9238,0.9731,0.983,1.1121,1.1658,1.178,1.3102,1.3632,1.3776,1.5069,1.5557,1.5557,1.5737,1.5808,1.5984,1.7091,1.7451,1.7661,1.8879,1.9268,1.9542,2.0904,2.1302,2.1683,2.3361,2.3435,2.322,2.3691,2.375,2.3594,2.3201,2.3101,2.322,2.3633,2.4378,2.5043,2.5386,2.5542,2.564,2.5698,2.6342,2.683,2.6889,2.7637,2.8144,2.8203,2.8262,2.8301,2.8301,2.8301,2.8301,2.8301,2.8301,2.8476,2.8879,2.884,2.9004,2.9422,2.8672,2.8301,2.8301,2.8301,2.8301,2.8301,2.8672,2.9062,0.9524,1.014,1.0864,1.0386,1.0314,1.0357,1.0365,0.9765,0.9117,0.8859,0.8703,0.8567,0.8444,0.8194,0.8237,0.8998,0.9114,0.9583,1.0877,1.1697,1.2401,1.2958,1.3644,1.4316,1.4902,1.4949,1.5188,1.5761,1.5808,1.5808,1.5808,1.5808,1.5808,1.5808,1.5808,1.5534,1.4973,1.2944,1.1268,1.0002,1.0116,1.019,1.019,1.019,0.9797,0.9139,0.9756,1.0411,1.117,1.2474,1.303,1.3151,1.4459,1.4949,1.5021,1.5581,1.5808,1.5808,1.5808,1.5808,1.6008,1.7288,1.7684,1.8056,1.9951,2.0517,2.0759,2.1965,2.2315,2.2542,2.3538,2.3435,2.322,2.3691,2.3789,2.373,2.3555,2.3669,2.3962,2.4437,2.4828,2.5239,2.564,2.5693,2.5796,2.603,2.6426,2.6836,2.7324,2.7741,2.8054,2.8262,2.8301,2.8398,2.8633,2.8652,2.875,2.9012,2.9031,2.9227,2.9609,2.9414,2.952,2.995,2.9344,2.8887,2.8652,2.8652,2.8652,2.8652,2.8801,2.9277,1.0852,1.1559,1.2313,1.1576,1.1475,1.1457,1.1209,1.0389,0.9614,0.9349,0.9207,0.9219,0.9489,0.9002,0.887,0.983,1.0264,1.0925,1.2231,1.3271,1.4016,1.434,1.5211,1.5808,1.5808,1.5808,1.5808,1.5808,1.5808,1.5808,1.5808,1.5808,1.5808,1.5808,1.5808,1.5629,1.532,1.303,1.1414,1.0485,1.1463,1.1901,1.1901,1.1901,1.1585,1.099,1.099,1.1526,1.2498,1.3836,1.4388,1.4483,1.5439,1.5808,1.5808,1.5808,1.5984,1.6268,1.6268,1.648,1.696,1.8203,1.8619,1.8993,2.1123,2.1765,2.1939,2.284,2.3101,2.322,2.3672,2.3555,2.3396,2.3848,2.4023,2.4105,2.3965,2.4277,2.4668,2.5024,2.518,2.5352,2.5659,2.5815,2.5991,2.6348,2.6607,2.6979,2.7604,2.778,2.7976,2.8262,2.8398,2.8574,2.8859,2.9023,2.9219,2.9579,2.9598,2.9794,3.0176,2.9931,2.995,3.0371,3.0087,2.959,2.8898,2.9023,2.9023,2.8898,2.9141,2.959,1.1838,1.2009,1.2204,1.2164,1.2442,1.2363,1.1016,1.0864,1.1008,1.0992,1.0627,1.0733,1.2135,1.1138,1.0071,1.0003,1.1023,1.2256,1.3608,1.3848,1.434,1.5557,1.5761,1.5808,1.5808,1.5808,1.5808,1.5808,1.5808,1.5808,1.5808,1.5808,1.5808,1.5808,1.5808,1.5211,1.4016,1.2595,1.1877,1.1804,1.1877,1.1901,1.1901,1.1901,1.2546,1.3704,1.3704,1.3728,1.3896,1.5164,1.5713,1.57,1.5784,1.5808,1.5808,1.5808,1.6551,1.7591,1.7591,1.8342,1.9519,2.0724,2.1105,2.1346,2.2624,2.2994,2.3035,2.3079,2.3101,2.322,2.3672,2.3769,2.3867,2.4254,2.4707,2.4906,2.4473,2.4727,2.5063,2.5106,2.541,2.5679,2.5718,2.6074,2.6367,2.6412,2.7096,2.7643,2.7682,2.8034,2.8262,2.8301,2.8652,2.8879,2.8898,2.9297,2.9579,2.9598,2.9598,2.9794,3.0176,3.0176,3.0391,3.084,3.084,3.0195,2.8898,2.9364,2.9316,2.8918,2.9746,3.0156,1.3416,1.3822,1.4352,1.372,1.3591,1.3565,1.3255,1.268,1.22,1.22,1.2244,1.2334,1.257,1.1878,1.1565,1.2363,1.2885,1.3632,1.4949,1.5116,1.5296,1.5761,1.5808,1.5808,1.5808,1.5808,1.5808,1.5808,1.5808,1.5808,1.5808,1.5808,1.5808,1.5808,1.5808,1.5188,1.3896,1.422,1.398,1.3199,1.4004,1.44,1.44,1.44,1.4663,1.5116,1.5116,1.5116,1.514,1.5605,1.5808,1.5808,1.5808,1.5808,1.5903,1.6716,1.7311,1.78,1.8596,1.9131,1.9702,2.0921,2.1302,2.1525,2.2731,2.3101,2.3101,2.3101,2.3318,2.3594,2.375,2.3984,2.4297,2.4727,2.4984,2.5121,2.521,2.5367,2.5508,2.5508,2.5835,2.6152,2.6152,2.6504,2.6894,2.7194,2.7487,2.778,2.8054,2.8203,2.8398,2.8672,2.8801,2.9141,2.9687,2.9883,3.0098,3.0419,3.041,3.0517,3.0644,3.0644,3.0723,3.0879,3.0898,3.0508,2.9746,2.9902,2.9883,2.9746,3.0059,3.0351,1.4782,1.5164,1.5684,1.512,1.4888,1.4788,1.4626,1.3957,1.3414,1.3525,1.3651,1.3793,1.3941,1.3651,1.3494,1.3848,1.4268,1.483,1.5676,1.5808,1.5808,1.5808,1.5808,1.5808,1.5808,1.5808,1.5808,1.5808,1.5808,1.5808,1.5808,1.5808,1.5808,1.5808,1.5808,1.5391,1.4555,1.5391,1.5391,1.4555,1.5391,1.5808,1.5808,1.5808,1.5808,1.5808,1.5808,1.5808,1.5808,1.5808,1.5808,1.5808,1.5808,1.6055,1.6551,1.7381,1.8203,1.9016,1.9838,2.0381,2.0832,2.1636,2.2013,2.2262,2.2901,2.3296,2.3513,2.3376,2.3672,2.4043,2.4202,2.4531,2.4918,2.5234,2.5293,2.5371,2.564,2.5693,2.5757,2.5893,2.6191,2.6426,2.6582,2.6953,2.7324,2.7643,2.7819,2.8015,2.8262,2.8301,2.8457,2.884,2.9043,2.9434,3.0137,3.0332,3.0566,3.0879,3.0898,3.0898,3.0898,3.0898,3.0898,3.0898,3.0898,3.0742,3.043,3.043,3.0351,3.0195,3.0351,3.0586,0.0,0.0,0.0,1.6217,1.6284,1.5983,1.4804,1.4611,1.4718,1.4991,1.4849,1.509,1.6437,1.6484,1.5802,1.422,1.501,1.5808,1.5808,1.5808,1.5808,1.5808,1.5808,1.5808,1.5808,1.5808,1.5808,1.5808,1.5808,1.5808,1.5808,1.5808,1.5808,1.5808,1.5808,1.5808,1.5808,1.5808,1.5808,1.5808,1.5808,1.5808,1.5808,1.5808,1.5808,1.5808,1.5808,1.5832,1.5855,1.5832,1.5832,1.5855,1.5855,1.6622,1.7754,1.78,1.9291,2.1324,2.1346,2.212,2.3101,2.312,2.3415,2.3691,2.3279,2.3728,2.4293,2.3926,2.4102,2.4531,2.5004,2.541,2.5693,2.5693,2.5693,2.5693,2.5737,2.5737,2.5854,2.6309,2.6406,2.6543,2.6947,2.7428,2.7702,2.7702,2.8054,2.8301,2.832,2.832,2.8476,2.8879,2.9336,2.9794,3.0176,3.0625,3.0898,3.0898,3.0898,3.0898,3.0898,3.0898,3.0898,3.0898,3.0898,3.0898,3.0898,3.0898,3.0664,3.0234,3.0684,3.0898,1.5808,0.0,0.0,0.0,0.0,0.0,1.5502,1.5635,1.5864,1.5942,1.6033,1.6184,1.6384,1.6351,1.6149,1.5716,1.5726,1.5808,1.5808,1.5808,1.5808,1.5808,1.5808,1.5808,1.5808,1.5808,1.5808,1.5808,1.5808,1.5808,1.5808,1.5808,1.5808,1.5808,1.5808,1.5808,1.5808,1.5808,1.5808,1.5808,1.5808,1.5808,1.5808,1.5808,1.5808,1.5808,1.5808,1.6315,1.71,1.6173,1.6339,1.7171,1.7171,1.7925,1.9108,1.998,2.0724,2.1436,2.2315,2.2818,2.3162,2.3516,2.3454,2.3396,2.3884,2.4023,2.4004,2.418,2.4551,2.5,2.5406,2.562,2.5693,2.5693,2.5693,2.5796,2.6133,2.6211,2.625,2.6367,2.6641,2.6973,2.7448,2.7858,2.8125,2.8125,2.8223,2.8398,2.8711,2.8723,2.9023,2.9766,2.9941,3.0215,3.0664,3.082,3.0898,3.0898,3.0898,3.0898,3.0898,3.0898,3.0898,3.0898,3.0898,3.0898,3.0898,3.0898,3.082,3.0703,3.084,3.0898,1.5808,1.5808,1.5835,1.5955,0.0,0.0,1.5979,1.6046,1.6126,1.627,1.6431,1.6498,1.6324,1.6297,1.6297,1.6297,1.6126,1.6059,1.6155,1.5955,1.5848,1.6005,1.5875,1.5808,1.5808,1.5808,1.5808,1.5808,1.5808,1.5808,1.5808,1.5808,1.5808,1.5808,1.5808,1.5808,1.5808,1.5808,1.5808,1.5808,1.5808,1.5808,1.5808,1.5808,1.6079,1.6598,1.6598,1.7311,1.8388,1.7646,1.7785,1.8457,1.8457,1.9177,2.0342,2.1038,2.1614,2.2142,2.2862,2.324,2.3435,2.3711,2.3867,2.3981,2.4316,2.4489,2.4609,2.4668,2.5,2.541,2.564,2.5693,2.5693,2.5693,2.5854,2.6074,2.6328,2.6523,2.6699,2.692,2.7135,2.7422,2.7878,2.8125,2.8301,2.8301,2.8437,2.8633,2.8859,2.9082,2.9453,3.0137,3.0195,3.0391,3.0859,3.0898,3.0898,3.0898,3.0898,3.0898,3.0898,3.0898,3.0898,3.0898,3.0898,3.0898,3.0898,3.0898,3.0898,3.0898,3.0898,3.0898,1.5888,1.597,1.613,1.6424,1.6358,0.0,1.6587,1.6412,1.6289,1.6587,1.6656,1.6656,1.6656,1.6656,1.6656,1.6697,1.6576,1.6538,1.6685,1.6235,1.5995,1.631,1.6086,1.5888,1.5861,1.5848,1.5848,1.5808,1.5808,1.5808,1.5808,1.5808,1.5808,1.5808,1.5808,1.5808,1.5808,1.5808,1.5808,1.5808,1.5808,1.5879,1.6008,1.6008,1.6716,1.7893,1.7893,1.8572,1.9702,1.9702,1.9702,1.9702,1.9702,2.0449,2.1502,2.1502,2.2164,2.3101,2.3162,2.3435,2.3831,2.3906,2.4437,2.4965,2.4648,2.5054,2.5562,2.5234,2.543,2.5693,2.5693,2.5757,2.5776,2.5776,2.6128,2.6465,2.6523,2.6816,2.7207,2.7682,2.7721,2.7819,2.8223,2.8301,2.832,2.8359,2.8672,2.8918,2.9015,2.9394,2.9833,3.0234,3.0273,3.0449,3.0859,3.0898,3.0898,3.0898,3.0898,3.0898,3.0898,3.0898,3.0898,3.0898,3.0898,3.0898,3.0898,3.0898,3.0898,3.0898,3.0898,3.0898,1.6473,1.7086,1.7673,1.7731,1.8261,0.0,1.8843,1.8835,1.8803,1.8843,1.8882,1.8882,1.8882,1.8882,1.8955,1.917,1.8377,1.7499,1.681,1.6607,1.6553,1.662,1.6567,1.6446,1.6206,1.6217,1.6086,1.5821,1.5808,1.5808,1.5808,1.5808,1.5808,1.5808,1.5808,1.5808,1.5808,1.5808,1.5808,1.5808,1.5808,1.6339,1.7326,1.7326,1.7994,1.9154,1.9154,1.9821,2.0966,2.0966,2.0966,2.0966,2.0966,2.1699,2.2753,2.2753,2.2906,2.314,2.3535,2.3711,2.3929,2.4613,2.4711,2.4668,2.5269,2.5352,2.5278,2.5503,2.564,2.5693,2.5693,2.5971,2.6269,2.6269,2.6582,2.6992,2.737,2.7506,2.7682,2.8086,2.7917,2.7819,2.8223,2.8301,2.8398,2.8723,2.884,2.9133,2.9863,3.0019,3.0254,3.0703,3.0762,3.0801,3.0879,3.0898,3.0898,3.0898,3.0898,3.0898,3.0898,3.0898,3.0898,3.0898,3.0898,3.0898,3.0898,3.0898,3.0898,3.0898,3.0898,3.0898,1.7492,1.8047,1.8571,1.9255,1.9626,0.0,0.0,1.9635,1.9497,1.9497,1.9497,1.9497,1.9497,1.9497,1.9662,2.0159,1.9566,1.9047,1.918,1.7742,1.6767,1.6939,1.6794,1.6647,1.65,1.6391,1.6152,1.5821,1.5808,1.5808,1.5808,1.5808,1.5808,1.5808,1.5808,1.5808,1.5808,1.5808,1.5808,1.5808,1.6433,1.7091,1.7707,1.8319,1.9268,2.0387,2.0387,2.1078,2.2186,2.2186,2.2186,2.2186,2.2186,2.2558,2.3101,2.3101,2.3259,2.3474,2.3711,2.4085,2.4515,2.4945,2.5078,2.5132,2.5581,2.5562,2.5449,2.5659,2.5874,2.603,2.603,2.6387,2.6699,2.6699,2.7031,2.7402,2.7643,2.7858,2.8073,2.8262,2.8151,2.8073,2.8262,2.8476,2.8672,2.8859,2.925,2.9707,3.0137,3.0391,3.0625,3.0859,3.0898,3.0898,3.0898,3.0898,3.0898,3.0898,3.0898,3.0898,3.0898,3.0898,3.0898,3.0898,3.0898,3.0996,3.1211,3.2002,3.1973,3.124,3.2222,3.2705,1.8954,1.9392,1.981,2.0934,2.107,2.0903,0.0,0.0,0.0,2.0343,2.0326,2.0326,2.0326,2.0252,2.0389,2.0981,2.0688,2.0724,2.1686,1.9355,1.7569,1.7644,1.7294,1.6977,1.6805,1.6498,1.6203,1.5915,1.5835,1.5808,1.5808,1.5808,1.5808,1.5808,1.5808,1.5808,1.5808,1.6032,1.6173,1.6173,1.7451,1.8172,1.8434,1.9405,2.0499,2.1636,2.1636,2.2264,2.324,2.324,2.3276,2.3335,2.3279,2.324,2.3237,2.3315,2.3591,2.3926,2.4027,2.4515,2.5102,2.52,2.5449,2.5737,2.5815,2.5776,2.5713,2.5913,2.6172,2.6431,2.6509,2.6816,2.7129,2.7129,2.748,2.7819,2.7819,2.8073,2.8301,2.8301,2.8359,2.8398,2.8301,2.8633,2.8918,2.9023,2.9707,3.0234,3.0312,3.0664,3.0898,3.0898,3.0898,3.0898,3.0898,3.0898,3.0898,3.0898,3.0898,3.0898,3.0898,3.0898,3.0937,3.1016,3.1318,3.1662,3.2098,3.3797,3.3739,3.2127,3.4068,3.4979,2.1121,2.1917,2.2556,2.2701,2.3343,2.3825,2.3464,0.0,2.3729,2.3387,0.0,2.331,2.331,0.0,0.0,2.2802,2.2437,2.2162,2.2286,2.129,2.021,1.9435,1.8728,1.7981,1.7228,1.6618,1.6284,1.6244,1.5979,1.5808,1.5808,1.5808,1.5808,1.5808,1.5808,1.5808,1.5808,1.6927,1.7474,1.7498,1.8734,1.9861,2.0904,2.1016,2.1765,2.2906,2.2906,2.3227,2.3711,2.3711,2.3926,2.4215,2.3867,2.3711,2.375,2.4118,2.4274,2.4394,2.4809,2.5004,2.516,2.5503,2.5654,2.5776,2.6191,2.603,2.5874,2.6635,2.6641,2.6465,2.6855,2.7266,2.7624,2.7624,2.7936,2.8223,2.8223,2.8262,2.8301,2.8301,2.8594,2.873,2.8359,2.8633,2.9043,2.9461,2.9931,3.0351,3.0762,3.0859,3.0898,3.0898,3.0898,3.0898,3.0898,3.0898,3.0898,3.0898,3.0898,3.0898,3.0898,3.0898,3.1074,3.1416,3.2808,3.3772,3.4152,3.6173,3.6143,3.4211,3.5866,3.6636,2.2556,2.3136,2.3595,2.4371,2.4693,2.4746,2.4593,2.4473,2.4332,2.418,0.0,0.0,0.0,0.0,0.0,0.0,2.3875,2.3678,2.3928,2.319,2.2184,2.0953,2.03,1.9762,1.9222,1.8683,1.8334,1.8161,1.8047,1.7646,1.6951,1.6904,1.6551,1.5832,1.6527,1.6904,1.6904,1.8133,1.8757,1.8757,1.9974,2.0792,2.1324,2.2031,2.2624,2.3123,2.3376,2.3613,2.3831,2.4043,2.4258,2.4391,2.4492,2.4375,2.418,2.4332,2.457,2.4824,2.5024,2.5234,2.5488,2.5659,2.5874,2.6152,2.6328,2.6426,2.6537,2.6889,2.707,2.7194,2.7344,2.7741,2.8054,2.8054,2.8191,2.8301,2.8301,2.8301,2.8359,2.8613,2.8762,2.8918,2.9051,2.9375,2.9726,2.9931,3.0312,3.0664,3.0859,3.0898,3.0898,3.0898,3.0898,3.0898,3.0898,3.0898,3.0898,3.0898,3.2009,3.2653,3.2653,3.3757,3.4459,3.4622,3.5287,3.5873,3.6319,3.8119,3.866,3.8063,3.873,3.9046,2.3761,2.4079,2.4337,2.5416,2.5488,2.5239,2.5121,2.4922,2.4762,2.4762,2.4664,0.0,0.0,0.0,2.4508,2.4867,0.0,2.457,2.5024,2.4359,2.3372,2.2217,2.1545,2.109,2.08,2.0447,2.0126,1.981,1.9718,1.9228,1.8265,1.818,1.7762,1.6842,1.7692,1.818,1.818,1.9382,1.998,2.0019,2.1212,2.1791,2.1832,2.2709,2.3159,2.3318,2.3652,2.3948,2.4183,2.4473,2.4668,2.4781,2.5137,2.5059,2.4762,2.4762,2.498,2.5254,2.5254,2.5547,2.5893,2.5893,2.6211,2.6582,2.6724,2.6875,2.707,2.7305,2.75,2.7721,2.7839,2.8093,2.8301,2.8301,2.8301,2.832,2.8437,2.8457,2.8594,2.9023,2.918,2.9375,2.9715,3.0,3.0195,3.0195,3.0586,3.0898,3.0898,3.0898,3.0898,3.0898,3.0898,3.0898,3.0898,3.0898,3.1142,3.1687,3.3186,3.4257,3.4697,3.6143,3.6961,3.7096,3.7525,3.7971,3.8439,4.0045,4.0971,4.1248,4.1248,4.1248,2.4816,2.5074,2.5171,2.5577,2.5698,2.5581,2.52,2.5391,2.5654,2.5654,2.5352,2.52,2.5581,2.4976,2.4391,0.0,2.441,0.0,0.0,2.4359,2.358,2.3039,2.2202,2.1569,2.1213,2.1163,2.099,2.0577,2.0254,1.9906,1.9467,1.9451,1.9428,1.9382,1.9428,1.9451,1.9451,2.0634,2.1239,2.1261,2.247,2.3057,2.3057,2.3079,2.3357,2.3769,2.3789,2.4281,2.5043,2.5063,2.5293,2.5654,2.5654,2.5654,2.5654,2.5654,2.5679,2.5698,2.5698,2.5971,2.6392,2.6392,2.6641,2.707,2.7526,2.7344,2.7187,2.8027,2.7995,2.778,2.8164,2.8281,2.8301,2.8301,2.8301,2.8398,2.8809,2.8879,2.9023,2.95,2.9883,3.0156,3.0176,3.0176,3.0195,3.0195,3.0586,3.0898,3.0898,3.0898,3.0898,3.0898,3.0898,3.0898,3.0898,3.0898,3.1736,3.3678,3.4227,3.5191,3.6735,3.6871,3.709,3.7572,3.9101,4.0097,4.051,4.2125,4.2905,4.2905,4.2905,4.2905,2.4926,0.0,2.52,2.5601,2.5693,2.5654,2.5523,2.5859,2.6172,2.6172,2.6269,2.6309,2.6191,2.5918,2.5625,0.0,2.5269,2.521,0.0,2.4848,2.4489,2.3979,2.3935,2.377,2.3362,2.3084,2.2728,2.2298,2.2131,2.167,2.0742,2.0988,2.0761,1.9913,2.0715,2.1146,2.1146,2.2047,2.2492,2.2492,2.2906,2.3101,2.3101,2.3101,2.3357,2.3809,2.4082,2.4531,2.5121,2.5391,2.5581,2.5693,2.5693,2.5893,2.6133,2.5815,2.5693,2.5732,2.6074,2.6269,2.6426,2.6719,2.709,2.7506,2.7643,2.778,2.793,2.8203,2.8184,2.8151,2.8262,2.8301,2.8359,2.8633,2.8711,2.8828,2.9258,2.9355,2.9473,2.9902,3.0098,3.0293,3.0605,3.0644,3.0644,3.0644,3.0801,3.0898,3.0898,3.0898,3.0898,3.0898,3.0898,3.0898,3.0898,3.2116,3.319,3.3865,3.6589,3.8389,3.8924,4.0218,4.1015,4.1153,4.171,4.2062,4.2206,4.2737,4.3014,4.3014,4.3014,4.3014,2.4965,2.5082,0.0,2.5601,2.5693,0.0,2.5913,2.6191,2.6509,2.6803,2.6934,0.0,0.0,2.6484,2.625,2.5776,2.5581,2.5352,0.0,2.5121,2.5137,2.4707,2.5039,2.5137,2.4687,2.4394,2.4004,2.3396,2.3357,2.2928,2.1987,2.2396,2.2277,2.1437,2.2359,2.2768,2.2638,2.3118,2.3279,2.3101,2.3101,2.3201,2.3357,2.3357,2.3691,2.4281,2.4531,2.4902,2.5332,2.5601,2.5796,2.5952,2.5952,2.623,2.6562,2.6108,2.605,2.6206,2.6523,2.6719,2.692,2.7168,2.7539,2.7917,2.7917,2.8093,2.832,2.8476,2.8516,2.8555,2.8738,2.8777,2.8836,2.9082,2.9141,2.9258,2.9735,2.9813,2.995,3.0351,3.0449,3.0527,3.084,3.0898,3.0898,3.0898,3.0898,3.0898,3.0898,3.0898,3.0898,3.0898,3.1016,3.1387,3.2113,3.4059,3.5454,3.6029,3.8658,4.0458,4.1047,4.2314,4.3291,4.3894,4.3316,4.3291,4.3894,4.3291,4.3115,4.3263,4.3263,4.3391]},{"header":{"parameterUnit":"m.s-1","parameterCategory":1,"la1":30.6,"la2":29.2853,"lo1":-89.7004,"lo2":-87.6739,"dy":0.0162,"dx":0.0183,"nx":112,"ny":82,"refTime":"2023-05-26T06:00:00:Z","depth":0,"parameterNumber":3,"parameterNumberName":"V-component_of_WINDS"},"data":[0.0,0.0,0.0,0.0,0.0,0.0,0.0,0.0,0.0,0.0,0.0,0.0,0.0,0.0,0.0,0.0,0.0,0.0,0.0,0.0,0.0,0.0,0.0,0.0,0.0,0.0,0.0,0.0,0.0,0.0,0.0,0.0,0.0,0.0,0.0,0.0,0.0,0.0,0.0,0.0,0.0,0.0,0.0,0.0,0.0,0.0,0.0,0.0,0.0,0.0,0.0,0.0,0.0,0.0,0.0,0.0,0.0,0.0,0.0,0.0,0.0,0.0,0.0,0.0,0.0,0.0,0.0,0.0,0.0,0.0,0.0,0.0,0.0,0.0,0.0,0.0,0.0,0.0,0.0,0.0,0.0,0.0,0.0,0.0,0.0,0.0,0.0,0.0,0.0,0.0,4.2935,4.3141,4.7548,4.9904,4.8498,4.884,4.6905,4.173,0.0,0.0,0.0,0.0,0.0,0.0,0.0,0.0,0.0,0.0,0.0,0.0,0.0,0.0,0.0,0.0,0.0,0.0,0.0,0.0,0.0,0.0,0.0,0.0,0.0,0.0,0.0,0.0,0.0,0.0,0.0,0.0,0.0,0.0,0.0,0.0,0.0,0.0,0.0,0.0,0.0,0.0,0.0,0.0,0.0,0.0,0.0,0.0,0.0,0.0,0.0,0.0,0.0,0.0,0.0,0.0,0.0,0.0,0.0,0.0,0.0,0.0,0.0,0.0,0.0,0.0,0.0,0.0,0.0,0.0,0.0,0.0,0.0,0.0,0.0,0.0,0.0,0.0,0.0,0.0,0.0,0.0,0.0,0.0,0.0,0.0,0.0,0.0,0.0,0.0,0.0,0.0,0.0,0.0,0.0,0.0,0.0,0.0,0.0,0.0,0.0,0.0,0.0,0.0,4.3424,4.6257,4.8098,4.8986,4.8728,4.7034,4.4649,4.1602,0.0,0.0,0.0,0.0,0.0,0.0,0.0,0.0,0.0,0.0,0.0,0.0,0.0,0.0,0.0,0.0,0.0,0.0,0.0,0.0,0.0,0.0,0.0,0.0,0.0,0.0,0.0,0.0,0.0,0.0,0.0,0.0,0.0,0.0,0.0,0.0,0.0,0.0,0.0,0.0,0.0,0.0,0.0,0.0,0.0,0.0,0.0,0.0,0.0,0.0,0.0,0.0,0.0,0.0,0.0,0.0,0.0,0.0,0.0,0.0,0.0,0.0,0.0,0.0,0.0,0.0,0.0,0.0,0.0,0.0,0.0,0.0,0.0,0.0,0.0,0.0,0.0,0.0,0.0,0.0,0.0,0.0,0.0,0.0,0.0,0.0,0.0,0.0,0.0,0.0,0.0,0.0,0.0,0.0,0.0,0.0,0.0,0.0,0.0,0.0,0.0,0.0,0.0,4.2549,4.401,4.7617,4.8334,4.8443,4.8201,4.6607,4.4421,4.1591,4.0696,0.0,0.0,0.0,0.0,0.0,0.0,0.0,0.0,0.0,0.0,0.0,0.0,0.0,0.0,0.0,0.0,0.0,0.0,0.0,0.0,0.0,0.0,0.0,0.0,0.0,0.0,0.0,0.0,0.0,0.0,0.0,0.0,0.0,0.0,0.0,0.0,0.0,0.0,0.0,0.0,0.0,0.0,0.0,0.0,0.0,0.0,0.0,0.0,0.0,0.0,0.0,0.0,0.0,0.0,0.0,0.0,0.0,0.0,0.0,0.0,0.0,0.0,0.0,0.0,0.0,0.0,0.0,0.0,0.0,0.0,0.0,0.0,0.0,0.0,0.0,0.0,0.0,0.0,0.0,0.0,0.0,0.0,0.0,0.0,0.0,0.0,0.0,0.0,0.0,0.0,0.0,0.0,0.0,0.0,0.0,0.0,0.0,0.0,0.0,0.0,0.0,0.0,4.3973,4.4708,4.8299,4.8487,4.8225,4.7852,4.6349,4.4195,4.134,3.9768,0.0,0.0,0.0,0.0,0.0,0.0,0.0,0.0,0.0,0.0,0.0,0.0,0.0,0.0,0.0,0.0,0.0,0.0,0.0,0.0,0.0,0.0,0.0,0.0,0.0,0.0,0.0,0.0,0.0,0.0,0.0,0.0,0.0,0.0,0.0,0.0,0.0,0.0,0.0,0.0,0.0,0.0,0.0,0.0,0.0,0.0,0.0,0.0,0.0,0.0,0.0,0.0,0.0,0.0,0.0,0.0,0.0,0.0,0.0,0.0,0.0,0.0,0.0,0.0,0.0,0.0,0.0,0.0,0.0,0.0,0.0,0.0,0.0,0.0,0.0,0.0,0.0,0.0,0.0,0.0,0.0,0.0,0.0,0.0,0.0,0.0,0.0,0.0,0.0,0.0,0.0,0.0,0.0,0.0,0.0,0.0,0.0,0.0,0.0,0.0,0.0,0.0,4.399,4.5499,4.8645,4.8729,4.8504,4.8299,4.5625,4.2959,4.0621,3.8631,0.0,0.0,0.0,0.0,0.0,0.0,0.0,0.0,0.0,0.0,0.0,0.0,0.0,0.0,0.0,0.0,0.0,0.0,0.0,0.0,0.0,0.0,0.0,0.0,0.0,0.0,0.0,0.0,0.0,0.0,0.0,0.0,0.0,0.0,0.0,0.0,0.0,0.0,0.0,0.0,0.0,0.0,0.0,0.0,0.0,0.0,0.0,0.0,0.0,0.0,0.0,0.0,0.0,0.0,0.0,0.0,0.0,0.0,0.0,0.0,0.0,0.0,0.0,0.0,0.0,0.0,0.0,0.0,0.0,0.0,0.0,0.0,0.0,0.0,0.0,0.0,0.0,0.0,0.0,0.0,0.0,0.0,0.0,0.0,0.0,0.0,0.0,0.0,0.0,0.0,0.0,0.0,0.0,0.0,0.0,0.0,0.0,0.0,0.0,0.0,0.0,0.0,4.3611,4.4932,4.7992,4.7296,4.7127,4.8389,4.5225,4.2643,4.1352,0.0,0.0,0.0,0.0,0.0,0.0,0.0,0.0,0.0,0.0,0.0,0.0,0.0,0.0,0.0,0.0,0.0,0.0,0.0,0.0,0.0,0.0,0.0,0.0,0.0,0.0,0.0,0.0,0.0,0.0,0.0,0.0,0.0,0.0,0.0,0.0,0.0,0.0,0.0,0.0,0.0,0.0,0.0,0.0,0.0,0.0,0.0,0.0,0.0,0.0,0.0,0.0,0.0,0.0,0.0,0.0,0.0,0.0,0.0,0.0,0.0,0.0,0.0,0.0,0.0,0.0,0.0,0.0,0.0,0.0,0.0,0.0,0.0,0.0,0.0,0.0,0.0,0.0,0.0,0.0,0.0,0.0,0.0,0.0,0.0,0.0,0.0,0.0,0.0,0.0,0.0,0.0,0.0,0.0,0.0,0.0,0.0,0.0,0.0,0.0,0.0,0.0,4.2679,4.3051,4.4133,4.6906,4.6176,4.6079,4.7474,4.4561,4.2187,4.1199,0.0,0.0,0.0,0.0,0.0,0.0,0.0,0.0,0.0,0.0,0.0,0.0,0.0,0.0,0.0,0.0,0.0,0.0,0.0,0.0,0.0,0.0,0.0,0.0,0.0,0.0,0.0,0.0,0.0,0.0,0.0,0.0,0.0,0.0,0.0,0.0,0.0,0.0,0.0,0.0,0.0,0.0,0.0,0.0,0.0,0.0,0.0,0.0,0.0,0.0,0.0,0.0,0.0,0.0,0.0,0.0,0.0,0.0,0.0,0.0,0.0,0.0,0.0,0.0,0.0,0.0,0.0,0.0,0.0,0.0,0.0,0.0,0.0,0.0,0.0,0.0,0.0,0.0,0.0,0.0,0.0,0.0,0.0,0.0,0.0,0.0,0.0,0.0,0.0,0.0,0.0,0.0,0.0,0.0,0.0,0.0,0.0,0.0,0.0,0.0,0.0,0.0,4.2016,4.23,4.3166,4.5466,4.5689,4.5604,4.5412,4.3497,4.1556,0.0,0.0,0.0,0.0,0.0,0.0,0.0,0.0,0.0,0.0,0.0,0.0,0.0,0.0,0.0,0.0,0.0,0.0,0.0,0.0,0.0,0.0,0.0,0.0,0.0,0.0,0.0,0.0,0.0,0.0,0.0,0.0,0.0,0.0,0.0,0.0,0.0,0.0,0.0,0.0,0.0,0.0,0.0,0.0,0.0,0.0,0.0,0.0,0.0,0.0,0.0,0.0,0.0,0.0,0.0,0.0,0.0,0.0,0.0,0.0,0.0,0.0,0.0,0.0,0.0,0.0,0.0,0.0,0.0,0.0,0.0,0.0,0.0,0.0,0.0,0.0,0.0,0.0,0.0,0.0,0.0,0.0,0.0,0.0,0.0,0.0,0.0,0.0,0.0,0.0,0.0,0.0,0.0,0.0,0.0,0.0,0.0,0.0,0.0,0.0,0.0,0.0,0.0,4.1961,4.23,4.3166,4.5466,4.5229,4.5313,4.629,4.3871,4.2071,4.1586,0.0,0.0,0.0,0.0,0.0,0.0,0.0,0.0,0.0,0.0,0.0,0.0,0.0,0.0,0.0,0.0,0.0,0.0,0.0,0.0,0.0,0.0,0.0,0.0,0.0,0.0,0.0,0.0,0.0,0.0,0.0,0.0,0.0,0.0,0.0,0.0,0.0,0.0,0.0,0.0,0.0,0.0,0.0,0.0,0.0,0.0,0.0,0.0,0.0,0.0,0.0,0.0,0.0,0.0,0.0,0.0,0.0,0.0,0.0,0.0,0.0,0.0,0.0,0.0,0.0,0.0,0.0,0.0,0.0,0.0,0.0,0.0,0.0,0.0,0.0,0.0,0.0,0.0,0.0,0.0,0.0,0.0,0.0,0.0,0.0,0.0,0.0,0.0,0.0,0.0,0.0,0.0,0.0,0.0,0.0,0.0,0.0,0.0,0.0,0.0,0.0,0.0,4.1961,4.23,4.2929,4.4606,4.4668,4.4838,4.5399,4.3504,4.2038,4.1456,0.0,0.0,0.0,0.0,0.0,0.0,0.0,0.0,0.0,0.0,0.0,0.0,0.0,0.0,0.0,0.0,0.0,0.0,0.0,0.0,0.0,0.0,0.0,0.0,0.0,0.0,0.0,0.0,0.0,0.0,0.0,0.0,0.0,0.0,0.0,0.0,0.0,0.0,0.0,0.0,0.0,0.0,0.0,0.0,0.0,0.0,0.0,0.0,0.0,0.0,0.0,0.0,0.0,0.0,0.0,0.0,0.0,0.0,0.0,0.0,0.0,0.0,0.0,0.0,0.0,0.0,0.0,0.0,0.0,0.0,0.0,0.0,0.0,0.0,0.0,0.0,0.0,0.0,0.0,0.0,0.0,0.0,0.0,0.0,0.0,0.0,0.0,0.0,0.0,0.0,0.0,0.0,0.0,0.0,0.0,0.0,0.0,0.0,0.0,0.0,0.0,0.0,4.2019,4.2309,4.2641,4.3375,4.4102,4.4238,4.3511,4.2777,4.178,4.0426,0.0,0.0,0.0,0.0,0.0,0.0,0.0,0.0,0.0,0.0,0.0,0.0,0.0,0.0,0.0,0.0,0.0,0.0,0.0,0.0,0.0,0.0,0.0,0.0,0.0,0.0,0.0,0.0,0.0,0.0,0.0,0.0,0.0,0.0,0.0,0.0,0.0,0.0,0.0,0.0,0.0,0.0,0.0,0.0,0.0,0.0,0.0,0.0,0.0,0.0,0.0,0.0,0.0,0.0,0.0,0.0,0.0,0.0,0.0,0.0,4.2614,4.1707,0.0,0.0,0.0,0.0,0.0,0.0,0.0,0.0,0.0,0.0,0.0,0.0,0.0,0.0,0.0,0.0,0.0,0.0,0.0,0.0,0.0,0.0,0.0,0.0,0.0,0.0,0.0,0.0,0.0,0.0,0.0,0.0,0.0,0.0,0.0,0.0,0.0,0.0,0.0,0.0,4.1938,4.2509,4.3033,4.3792,4.4037,4.4072,4.3897,4.3197,4.2648,4.2323,4.0063,0.0,0.0,0.0,0.0,0.0,0.0,0.0,0.0,0.0,0.0,0.0,0.0,0.0,0.0,0.0,0.0,0.0,0.0,0.0,0.0,0.0,0.0,0.0,0.0,0.0,0.0,0.0,0.0,0.0,0.0,0.0,0.0,0.0,0.0,0.0,0.0,0.0,0.0,0.0,0.0,0.0,0.0,0.0,0.0,0.0,0.0,0.0,0.0,0.0,0.0,0.0,0.0,0.0,0.0,0.0,0.0,0.0,0.0,0.0,4.4903,4.4063,0.0,0.0,0.0,0.0,0.0,0.0,0.0,0.0,0.0,0.0,0.0,0.0,0.0,0.0,0.0,0.0,0.0,0.0,0.0,0.0,0.0,0.0,0.0,0.0,0.0,0.0,0.0,0.0,0.0,0.0,0.0,0.0,0.0,0.0,0.0,0.0,0.0,0.0,0.0,0.0,4.2345,4.2722,4.3041,4.3432,4.3798,4.3869,4.3503,4.3101,4.2734,4.2391,4.0735,0.0,0.0,0.0,0.0,0.0,0.0,0.0,0.0,0.0,0.0,0.0,0.0,0.0,0.0,0.0,0.0,0.0,0.0,0.0,0.0,0.0,0.0,0.0,0.0,0.0,0.0,0.0,0.0,0.0,0.0,0.0,0.0,0.0,0.0,0.0,0.0,0.0,0.0,0.0,0.0,0.0,0.0,0.0,0.0,0.0,0.0,0.0,0.0,0.0,0.0,0.0,0.0,0.0,4.6952,4.7126,4.7976,4.7861,4.8372,4.9218,4.7451,4.7033,4.7475,4.6358,0.0,0.0,0.0,0.0,0.0,0.0,0.0,0.0,0.0,0.0,0.0,0.0,0.0,0.0,0.0,0.0,0.0,0.0,0.0,0.0,0.0,0.0,4.634,4.6071,4.6762,4.7108,4.5568,0.0,0.0,0.0,0.0,0.0,0.0,0.0,0.0,0.0,0.0,0.0,4.259,4.2864,4.2999,4.2999,4.3561,4.3668,4.307,4.2999,4.276,4.2139,4.1334,4.0101,0.0,0.0,0.0,0.0,0.0,0.0,0.0,0.0,0.0,0.0,0.0,0.0,0.0,0.0,0.0,0.0,0.0,0.0,0.0,0.0,0.0,0.0,0.0,0.0,0.0,0.0,0.0,0.0,0.0,0.0,0.0,0.0,4.3511,4.3414,0.0,0.0,0.0,0.0,0.0,0.0,0.0,0.0,0.0,0.0,0.0,0.0,0.0,4.6787,4.7622,4.8369,4.8845,4.913,4.9826,5.0227,5.0318,4.9827,5.0062,5.0862,5.0469,0.0,4.935,4.803,0.0,0.0,0.0,0.0,0.0,0.0,0.0,0.0,0.0,0.0,0.0,0.0,0.0,0.0,0.0,0.0,0.0,0.0,0.0,0.0,0.0,0.0,4.7797,4.6367,4.7188,4.8233,4.7892,4.6697,4.5536,4.49,4.3418,4.2265,0.0,0.0,0.0,0.0,0.0,0.0,4.1667,4.265,4.3423,4.3423,4.3524,4.3524,4.3423,4.3423,4.3395,4.3286,4.1672,4.0891,4.1243,3.8304,0.0,0.0,0.0,0.0,0.0,0.0,0.0,0.0,0.0,0.0,0.0,0.0,0.0,0.0,0.0,0.0,0.0,0.0,0.0,0.0,0.0,0.0,0.0,0.0,0.0,0.0,0.0,0.0,0.0,4.1982,4.2941,4.2486,4.2931,4.2688,0.0,0.0,0.0,0.0,0.0,0.0,0.0,0.0,0.0,4.782,4.8166,4.9163,5.0966,5.0851,5.1318,5.2246,5.1688,5.1722,5.2233,5.099,5.0982,5.1908,5.179,5.1514,5.1123,4.991,4.8416,4.6626,0.0,0.0,0.0,0.0,4.2374,4.347,4.3386,4.4021,4.4939,4.5329,0.0,0.0,0.0,0.0,0.0,0.0,0.0,4.6119,4.5857,4.7186,4.8544,4.8316,4.9133,5.0017,4.993,4.8502,4.6906,4.5931,4.4878,4.4013,4.3666,4.2786,0.0,0.0,0.0,4.2677,4.2489,4.3058,4.3563,4.3775,4.3622,4.3506,4.3506,4.3506,4.3506,4.3506,4.2464,4.1639,4.119,3.9041,3.7907,0.0,0.0,0.0,0.0,0.0,0.0,0.0,0.0,0.0,0.0,0.0,0.0,0.0,0.0,0.0,0.0,0.0,0.0,0.0,0.0,0.0,0.0,0.0,0.0,0.0,0.0,0.0,0.0,4.238,4.352,4.2534,4.4015,4.4155,0.0,0.0,0.0,0.0,0.0,0.0,4.5731,4.7485,4.9232,5.095,5.0868,5.1928,5.4164,5.3313,5.3428,5.4472,5.3197,5.2839,5.3318,5.1869,5.1659,5.2398,5.2337,5.2285,5.2216,5.1169,4.9629,4.7762,4.6149,4.4974,4.412,4.3577,4.4016,4.4965,4.5491,4.5699,4.5815,4.6233,4.587,4.519,4.4996,0.0,0.0,0.0,0.0,4.6432,4.7097,4.8177,4.9236,4.9899,5.0522,5.0946,5.0894,4.9426,4.7828,4.6978,4.5995,4.5174,4.4814,4.3939,0.0,4.3303,4.3291,4.329,4.3309,4.3587,4.3855,4.3967,4.3791,4.3589,4.3515,4.3506,4.3506,4.3506,4.3013,4.2132,4.0952,3.961,3.8619,3.7991,0.0,0.0,0.0,0.0,0.0,0.0,0.0,0.0,0.0,0.0,0.0,0.0,0.0,0.0,0.0,0.0,0.0,0.0,0.0,0.0,0.0,0.0,0.0,0.0,0.0,0.0,0.0,0.0,0.0,4.5318,4.7529,0.0,0.0,0.0,0.0,4.459,4.603,4.7444,4.8627,5.0239,5.221,5.4638,5.4731,5.5383,5.6786,5.5939,5.5164,5.4511,5.4395,5.3977,5.3189,5.2416,5.2058,5.2147,5.2235,5.2304,5.2221,5.1275,5.0089,4.8694,4.7413,4.6886,4.6852,4.6433,4.6234,4.6323,4.719,4.6651,4.5862,4.7472,4.7461,4.6763,4.6035,4.5852,0.0,0.0,4.6575,4.7336,4.7375,4.8737,5.0156,5.0195,5.0234,5.0232,5.0082,4.8661,4.7596,4.8112,4.5914,4.4216,4.4947,0.0,4.3303,4.3303,4.3995,4.4215,4.341,4.402,4.4394,4.4028,4.3967,4.3841,4.354,4.3506,4.3506,4.3506,4.3013,4.2313,4.1419,4.0155,3.9408,3.9312,3.7925,0.0,0.0,0.0,0.0,0.0,0.0,0.0,0.0,0.0,0.0,0.0,0.0,0.0,0.0,0.0,0.0,0.0,0.0,0.0,0.0,0.0,0.0,0.0,0.0,0.0,0.0,0.0,0.0,4.756,5.0098,0.0,4.8461,4.871,4.893,4.8636,5.0131,5.145,5.2404,5.3727,5.5109,5.6547,5.611,5.6323,5.7379,5.6257,5.5285,5.4472,5.3933,5.3197,5.2351,5.1567,5.1266,5.1333,5.1488,5.1534,5.1483,5.1185,5.0692,5.0051,4.8758,4.787,4.7408,4.7245,4.7542,4.8065,4.8595,4.8092,4.7228,4.7384,4.7676,4.7925,4.7653,4.756,4.7604,4.7694,4.7577,4.7693,4.8904,4.9296,4.9492,5.0078,5.0195,5.0039,4.9409,4.8299,4.7431,4.7566,4.6274,4.5192,4.5376,4.458,4.3947,4.3947,4.401,4.4069,4.396,4.4341,4.4644,4.4695,4.4515,4.4219,4.3849,4.381,4.3512,4.2789,4.2746,4.2221,4.0992,4.0259,3.9841,3.9792,3.8766,3.8456,0.0,0.0,0.0,0.0,0.0,0.0,0.0,0.0,0.0,0.0,0.0,0.0,0.0,0.0,0.0,0.0,0.0,0.0,0.0,0.0,0.0,0.0,0.0,0.0,0.0,4.6861,4.9401,4.8757,5.1862,5.3022,5.0588,5.161,5.2307,5.205,5.3508,5.4645,5.517,5.624,5.7012,5.7484,5.6697,5.6573,5.7191,5.5784,5.4721,5.4049,5.3159,5.2313,5.1467,5.0938,5.0758,5.084,5.1008,5.108,5.1052,5.1081,5.1008,5.0774,4.9717,4.9016,4.8641,4.8497,4.8711,4.9067,4.9051,4.8823,4.8491,4.7866,4.8022,4.8507,4.8554,4.8539,4.852,4.8595,4.825,4.8202,4.9716,4.9725,4.9531,5.0391,5.0156,4.9609,4.9023,4.7924,4.6995,4.681,4.6244,4.5761,4.5633,4.5128,4.4744,4.4744,4.4561,4.4475,4.4722,4.4834,4.4977,4.5105,4.4806,4.4428,4.4028,4.3904,4.3429,4.2537,4.238,4.1742,4.0333,4.0049,3.9891,3.9878,3.9344,3.9439,4.0233,0.0,0.0,0.0,0.0,0.0,0.0,0.0,0.0,0.0,0.0,0.0,0.0,0.0,0.0,0.0,0.0,0.0,0.0,0.0,0.0,0.0,0.0,0.0,4.4147,4.8689,5.125,4.9173,5.2908,5.473,5.236,5.4289,5.5365,5.4583,5.5978,5.6847,5.6847,5.7556,5.7825,5.7491,5.6625,5.624,5.6359,5.4681,5.3586,5.3197,5.2313,5.1467,5.0707,5.0707,5.0712,5.0712,5.0966,5.1006,5.0906,5.0985,5.0969,5.0852,5.0325,5.0353,5.0639,5.0241,4.9822,4.933,4.8589,4.8938,4.9543,4.8938,4.8663,4.859,4.8711,4.8672,4.8574,4.8574,4.8664,4.8929,4.9794,5.0104,5.039,5.1133,5.0078,4.8906,4.8828,4.75,4.6203,4.5961,4.5853,4.5761,4.5633,4.5594,4.5594,4.5594,4.5594,0.0,4.5594,4.5594,4.5462,4.5148,4.4818,4.4435,4.4028,4.3664,4.325,4.2761,4.192,4.0853,3.9528,3.9476,3.9537,3.9615,3.9618,4.0425,4.2109,0.0,0.0,0.0,0.0,0.0,0.0,0.0,0.0,0.0,0.0,0.0,0.0,0.0,0.0,0.0,0.0,0.0,0.0,0.0,0.0,0.0,4.4152,4.6932,4.7909,5.0831,5.312,5.3688,5.5881,5.687,5.5656,5.6631,5.7262,5.7042,5.7409,5.7666,5.7666,5.7336,5.7073,5.6981,5.5916,5.5498,5.5889,5.45,5.3586,5.3197,5.2313,5.1467,5.0707,5.0707,5.0767,5.0821,5.0345,5.0496,5.0936,4.9718,4.9881,5.0863,5.0616,5.0604,5.0702,5.0589,5.0495,5.0372,4.9634,4.9958,5.056,4.9761,4.9905,5.0381,5.0295,5.0258,5.0258,5.0258,4.9821,4.9596,5.0628,5.0472,4.9982,4.9648,4.9258,4.8555,4.7305,4.6556,4.6091,4.5948,4.5853,4.5761,4.5633,4.5594,4.5594,4.5594,4.5594,4.5594,4.5594,4.5594,4.5462,4.5148,4.5005,4.4695,4.405,4.3385,4.2418,4.1088,4.0404,3.9722,3.9014,3.9222,3.9631,4.0257,4.026,4.0872,0.0,0.0,0.0,0.0,0.0,0.0,0.0,0.0,0.0,0.0,0.0,0.0,0.0,0.0,0.0,0.0,0.0,0.0,0.0,0.0,0.0,0.0,4.5501,4.8191,5.0389,5.247,5.4389,5.5958,5.7263,5.7821,5.7401,5.775,5.7997,5.7997,5.7997,5.785,5.7519,5.7042,5.648,5.5831,5.5112,5.4885,5.5185,5.3754,5.3061,5.3197,5.1967,5.1164,5.0707,5.0707,5.0567,5.0347,4.997,5.0058,5.0379,4.9069,4.9454,5.0832,0.0,0.0,0.0,0.0,5.0914,5.0918,5.0483,5.0684,5.1015,5.0522,5.0685,5.1076,5.099,5.0962,5.0962,5.0962,5.0384,5.0002,5.0947,5.0634,5.0067,4.996,4.9414,4.8593,4.7533,4.6657,4.6061,4.5877,4.5846,0.0,4.5633,4.5594,4.5594,4.5594,4.5594,4.5594,4.5594,4.5594,4.5537,4.5313,4.5191,4.4931,4.4508,4.3588,0.0,0.0,0.0,3.9513,3.9031,3.9522,0.0,0.0,0.0,4.2026,4.221,4.3496,0.0,0.0,4.4625,4.4332,0.0,0.0,0.0,0.0,0.0,0.0,0.0,0.0,0.0,0.0,0.0,0.0,0.0,0.0,0.0,0.0,4.668,4.893,5.1905,5.3644,5.5135,5.651,5.7406,5.7892,5.7892,5.7962,5.7997,5.7997,5.7923,5.7556,5.6847,5.6627,0.0,0.0,0.0,5.434,5.4434,5.2787,5.235,5.3044,5.1438,5.063,5.0553,5.0553,5.0152,4.9477,4.951,4.9494,4.9439,4.8587,4.9168,5.0555,4.9869,5.0146,5.0942,5.1066,5.1113,5.1109,5.1126,0.0,0.0,5.1082,5.1081,5.1071,5.1086,5.1091,5.1091,5.1091,5.062,5.0293,5.1005,5.0688,5.0351,5.0976,4.9883,4.8669,4.8445,4.7173,4.6024,4.584,4.5802,4.5736,4.5629,4.5594,4.5594,4.5594,4.5594,4.5556,4.5479,4.5436,4.5427,4.5401,4.5038,0.0,4.4875,4.3735,4.2784,4.2257,4.0758,3.9735,3.9311,4.0054,4.0896,4.1773,4.3021,4.3243,4.2407,4.441,4.5466,4.5616,4.5609,4.5272,0.0,0.0,0.0,0.0,0.0,0.0,0.0,0.0,0.0,0.0,0.0,0.0,0.0,0.0,0.0,4.5346,4.7769,5.0383,5.2832,5.3997,5.4928,5.5807,5.6613,5.7103,5.7103,5.7667,5.7997,5.7997,5.7409,5.6957,5.6811,5.5574,5.4859,5.4889,5.423,5.3913,5.395,5.2961,5.2366,5.2159,5.1164,0.0,4.9668,4.9668,4.9312,4.8684,4.8003,4.8169,4.8739,4.7206,4.7501,4.907,5.0284,5.0873,5.1069,5.1149,5.1181,5.1162,5.1166,5.1145,5.1115,5.1108,5.1014,5.0969,5.1058,5.1091,0.0,5.1091,5.0991,5.0955,5.1149,5.0625,4.9939,4.9491,4.8509,4.7509,4.6757,4.622,4.5858,4.5793,4.5696,4.5646,4.5599,4.5594,4.5594,4.5594,4.5594,4.5359,4.4628,4.4551,4.4434,4.418,4.3458,4.3178,4.3604,4.219,4.1065,4.0517,3.9827,3.9388,3.9319,4.0054,4.0896,4.1773,4.2085,4.2658,4.3573,4.4004,4.4705,4.5599,4.5589,4.5538,0.0,0.0,0.0,0.0,0.0,0.0,0.0,0.0,0.0,0.0,0.0,4.1318,4.1001,0.0,4.5816,4.7091,4.8841,5.0708,5.2591,5.3544,5.4444,5.5575,5.6375,5.6673,5.6272,5.6566,5.6672,5.6307,5.6223,5.5854,5.5082,5.4649,5.4307,5.4095,5.3497,5.3248,5.3509,5.2473,5.1929,5.1885,5.0625,4.9822,4.9394,4.8933,4.8404,4.7823,4.7392,4.7506,4.7999,4.7518,4.7751,4.8635,4.9957,5.0721,5.1158,5.1204,5.1248,5.1283,5.123,5.1178,5.1133,5.1113,5.1094,5.1069,5.1125,5.1211,5.124,5.124,5.124,5.1169,5.0803,5.0418,4.9913,4.9101,4.8114,4.7254,4.6748,4.6219,4.5792,4.5696,4.5632,4.5629,4.57,4.5715,4.5557,4.5125,4.5044,4.4769,4.397,4.3863,4.3947,4.4128,4.3376,4.3093,4.3758,4.2278,4.1184,4.0924,4.0252,3.99,3.99,4.0285,4.1127,4.2427,4.2466,4.3196,4.4739,4.4739,4.5047,4.5594,4.5594,4.5594,0.0,0.0,0.0,0.0,0.0,0.0,0.0,4.217,4.1595,4.2021,4.2192,4.2645,4.3829,4.5317,4.6989,4.8917,4.9932,5.0947,5.2131,5.3113,5.4068,5.5124,5.6031,5.6319,5.5647,5.5585,5.5395,5.4834,5.5023,5.4605,5.3348,5.3562,5.345,5.2856,5.2484,5.2393,5.2598,5.1583,5.1094,5.1159,4.9779,4.9086,4.8894,4.8209,4.7544,4.6967,4.7009,4.7083,4.7209,4.7773,4.8122,4.8306,4.9005,4.9836,5.077,5.1077,5.1195,5.1171,5.1183,5.1007,5.0763,5.1041,5.1032,5.101,5.1177,5.1319,5.1406,5.1406,5.1406,5.1211,5.0391,5.0078,4.9726,4.8867,4.788,4.7128,4.6964,4.6327,4.5765,4.5637,4.5629,4.5677,4.5796,4.569,4.5356,4.4649,4.453,4.4187,4.3283,4.3138,4.3365,4.3957,4.3244,4.2946,4.3529,4.2316,4.1542,4.1542,4.0896,4.0516,4.0516,4.0666,4.1474,4.3085,4.3239,4.409,4.5594,4.5594,4.5568,4.5485,4.5485,4.5546,4.1172,4.0652,4.1035,4.2828,4.2806,4.3257,0.0,4.6128,4.4894,4.586,4.6131,4.621,4.638,4.7631,4.8917,4.9846,5.115,5.2097,5.2266,5.3519,5.4161,5.3627,5.4922,5.5765,5.5603,5.5585,5.5563,5.5496,5.4209,5.3402,5.3239,5.1935,5.1315,5.16,5.1551,5.1188,5.0463,5.0322,4.9652,4.8505,4.8351,4.7851,4.7167,4.7125,4.6732,4.6048,4.6303,4.6359,4.6263,4.6336,4.6731,4.7351,4.7308,4.802,4.9154,5.0662,5.0843,5.0429,5.0987,5.0225,4.9207,5.0724,5.0727,5.0275,5.1129,5.1406,5.1406,5.1406,5.1406,5.1211,5.0391,4.9648,4.8828,4.7969,4.6981,4.6228,4.6062,4.5933,4.5765,4.5637,4.5712,4.5796,4.5815,4.5271,4.4802,4.4683,4.4683,4.4104,4.2443,4.225,4.2243,4.2297,4.1508,4.0942,4.0916,4.0743,4.0666,4.0666,4.0554,4.0516,4.0516,4.1239,4.2119,4.3085,4.3816,4.4628,4.5594,4.5594,4.5443,4.5164,4.5164,4.5336,4.3568,4.2923,4.2849,4.4483,4.5333,4.6378,4.8662,4.8125,4.7399,4.8307,4.8273,4.8026,4.8026,4.9271,5.0389,5.071,5.2029,5.2841,5.2367,5.3579,5.3863,5.2161,5.3302,5.4223,5.4231,5.4216,5.3818,5.2938,5.264,5.2123,5.1231,5.0911,5.0865,5.1062,5.0311,4.9846,4.9694,4.8985,4.8444,4.8082,4.762,4.7235,4.6898,4.6498,4.6183,4.6011,4.6142,4.6148,4.6084,4.5985,4.6362,4.7075,4.7033,4.7662,4.8677,4.9379,4.9532,4.9492,4.9761,4.9405,4.8937,4.964,4.9991,5.0072,4.996,5.0625,5.1289,5.082,5.1055,5.1094,4.9766,4.918,4.8555,4.7187,4.6473,4.6072,4.5944,4.5879,4.5836,4.574,4.5773,4.5709,4.5308,4.4963,4.4457,4.3518,4.3335,4.305,4.2349,4.1883,4.1498,4.1308,4.1325,4.1327,4.1247,4.0781,4.0704,4.1239,4.0781,4.0743,4.1239,4.1619,4.2427,4.3778,4.4124,4.4635,4.5293,4.5293,4.5153,4.4812,4.4812,4.489,4.4415,4.4415,4.4841,4.6083,4.7638,4.9075,5.0044,4.9721,4.9442,5.0259,4.9948,4.9499,4.9535,5.0448,5.1269,5.1486,5.2418,5.2976,5.2367,5.3202,5.3115,5.122,5.1915,5.2553,5.2553,5.2553,5.2055,5.0939,5.1161,5.0848,4.972,4.9955,5.0021,4.9801,4.8873,4.8385,4.8428,4.753,4.7215,4.7394,4.6817,4.6547,4.6518,4.6056,4.5959,4.6149,4.6135,4.608,4.6012,4.5856,4.6134,4.6625,4.6637,4.7117,4.7793,4.7823,4.8158,4.8594,4.9101,4.8789,4.8242,4.875,4.9141,4.9414,4.9023,4.9922,5.0898,5.0078,5.043,5.0664,4.8984,4.8555,4.8164,4.6641,4.6244,4.6093,4.595,4.5944,4.5925,4.5821,4.5704,4.5438,4.4909,4.4421,4.3814,4.289,4.2335,4.2017,4.207,4.1519,4.1016,4.0792,4.1161,4.1431,4.1431,4.0858,4.0781,4.1393,4.0858,4.0896,4.1773,4.2043,4.2816,4.4278,4.4447,4.47,4.5115,4.5,4.4794,4.4421,4.4421,4.4421,4.2397,4.397,4.6118,4.7351,4.8915,5.0477,5.1668,5.1373,5.1067,5.1848,5.1508,5.1061,5.1133,5.1167,5.1419,5.216,5.23,5.2334,5.23,5.224,5.1873,5.1101,5.0927,5.0875,5.0875,5.0875,5.0865,5.0808,5.0105,4.9637,4.9618,4.881,4.8003,4.7223,4.7168,4.6749,4.5916,4.5861,4.5794,4.5671,4.5629,4.5633,4.5646,4.583,4.6021,4.6289,4.6149,4.6012,4.5916,4.5813,4.5753,4.5663,4.5789,4.5881,4.5972,4.6102,4.6781,4.7891,4.957,4.8516,4.6641,4.8359,4.8359,4.7812,4.8633,4.9531,5.0078,4.918,4.957,4.9844,4.8086,4.7656,4.7422,4.6523,4.6289,4.6204,4.5965,4.5997,4.6045,4.5846,4.5265,4.4836,4.4799,4.3506,4.2734,4.3555,4.2266,4.1211,4.125,4.1004,4.0784,4.0721,4.0591,4.0554,4.0554,4.0516,4.0516,4.0554,4.0516,4.0896,4.1773,4.2624,4.3431,4.4278,4.4809,4.5088,4.5115,4.4782,4.4401,4.4005,4.4005,4.4005,4.3846,4.5507,4.7397,4.9272,5.0566,5.1797,5.3288,5.3246,5.2746,5.2508,5.1231,5.0032,4.9517,4.9069,4.9059,4.9781,5.0859,5.142,5.0913,5.2021,5.2041,4.977,5.0251,5.0362,4.926,5.0131,5.0582,5.0041,4.9757,4.9344,4.8783,4.8227,4.7795,4.7499,4.6696,4.6198,4.6143,4.5592,4.5426,4.5594,4.57,4.5753,4.5789,4.5961,4.6141,4.6289,4.6072,4.5954,4.587,4.5849,4.5785,4.5758,4.5939,4.5992,4.6103,4.6821,4.6951,4.6836,4.7422,4.7031,4.6406,4.6992,4.7383,4.7539,4.7266,4.8203,4.9141,4.8281,4.8672,4.9219,4.8594,4.8047,4.7499,4.7135,4.6675,4.6244,4.5967,4.5609,4.5335,4.5173,4.4569,4.3901,4.3315,4.2772,4.2304,4.1978,4.1936,4.1702,4.1155,4.0882,4.0715,4.0703,4.0588,4.0418,4.026,4.0734,4.0806,4.0284,4.1232,4.2071,4.2654,4.323,4.3947,4.4794,4.4785,4.4625,4.438,4.4254,4.4035,4.3652,4.3652,4.3652,4.5464,4.7171,4.9081,5.0971,5.2056,5.2884,5.3828,5.3796,5.3238,5.1968,5.0698,4.9487,4.8298,4.7737,4.7656,4.8135,4.9142,4.9983,5.0381,5.1337,5.1449,5.0088,5.0431,5.0398,4.9287,5.0004,5.0153,4.9206,4.9544,4.927,4.8145,4.7942,4.7609,4.704,4.6243,4.583,4.5856,4.5377,4.5308,4.5677,4.579,4.5864,4.5978,4.6071,4.6155,4.6289,4.6006,4.5944,4.5967,4.5833,4.5815,4.5853,4.6044,4.609,4.6174,4.6872,4.6797,4.6328,4.6641,4.6562,4.6289,4.6289,4.668,4.7031,4.6484,4.7305,4.8242,4.7383,4.8008,4.8828,4.8472,4.7963,4.7491,4.7424,4.6816,4.6196,4.6001,4.5442,4.4959,4.4849,4.3936,4.3047,4.25,4.2108,4.1666,4.1031,4.1389,4.1526,4.0977,4.0774,4.0768,4.0903,4.0849,4.0782,4.0772,4.1011,4.1006,4.0783,4.1472,4.2286,4.3153,4.3477,4.4028,4.4919,4.4561,4.4254,4.399,4.3881,4.371,4.3506,4.3506,4.3506,4.6966,4.8779,5.0988,5.2251,5.3131,5.3617,5.3286,5.3134,5.2526,5.0542,5.0013,4.9388,4.7565,4.7204,4.7278,4.7463,4.7539,4.8421,5.0783,5.0377,5.0397,5.192,5.1362,5.0839,5.0802,5.0398,4.9683,4.8483,4.9415,4.9391,4.7793,4.7995,4.7435,4.5875,4.5782,4.554,4.5055,4.5077,4.5303,4.5745,4.5867,4.598,4.609,4.6092,4.6195,4.6289,4.6011,4.5985,4.6081,4.5888,4.5856,4.5901,4.6069,4.6094,4.6139,4.6247,4.6289,4.6406,4.7266,4.6992,4.6289,4.6289,4.6289,4.6289,4.6289,4.6875,4.7344,4.6523,4.7539,4.8592,4.766,4.7417,4.742,4.7409,4.6711,4.6093,4.609,4.5537,4.4959,4.4774,4.3428,4.2344,4.2344,4.1587,4.0951,4.0826,4.0744,4.0686,4.0686,4.0715,4.0844,4.1192,4.1251,4.1434,4.1864,4.1243,4.1167,4.1946,4.1356,4.1676,4.3253,4.3315,4.373,4.4548,4.4168,4.396,4.396,4.3672,4.3506,4.3506,4.3506,4.3506,4.762,4.9202,5.0918,5.1835,5.2236,5.2522,5.3062,5.2469,5.1449,5.0312,4.8884,4.747,4.6388,4.6061,4.653,4.8312,4.946,5.0777,5.2613,5.3074,5.2967,5.2173,5.1846,5.1463,5.0875,5.0917,5.0624,4.9691,4.9661,4.909,4.7773,4.7669,4.7212,4.6185,4.5812,4.5271,4.4493,4.4592,4.472,4.4857,4.5642,4.6073,4.6091,4.6201,4.6288,4.6289,4.6137,4.6075,4.6087,4.6051,4.6047,4.6071,4.6199,4.6247,4.6247,4.6289,4.6289,4.6328,4.6562,4.6484,4.6289,4.6289,4.6289,4.6289,4.6289,4.6445,4.6601,4.6367,4.7109,4.785,4.7509,4.7482,4.7489,4.7285,4.6754,4.6204,4.6137,4.5537,4.4804,4.4099,4.2567,4.1346,4.1346,4.1067,4.0822,4.0739,4.0507,4.0314,4.0314,4.0816,4.086,4.0105,4.0579,4.0853,4.0745,4.1128,4.1465,4.1682,4.2623,4.3198,4.3322,4.3638,4.3915,4.4146,4.3823,4.3639,4.3639,4.3529,4.3506,4.3506,4.3506,4.3506,4.8514,4.978,5.1084,5.1889,5.2078,5.1997,5.171,5.1421,5.0562,4.8486,4.7368,4.6475,4.5507,4.5357,4.5903,4.7601,4.8987,5.0674,5.3026,5.3374,5.3474,5.3617,5.2995,5.2197,5.1389,5.1472,5.1145,5.0164,4.986,4.9095,4.7699,4.738,4.6847,4.601,4.5744,4.521,4.4411,4.4521,4.4437,4.4106,4.5147,4.5611,4.5612,4.6092,4.6289,4.6289,4.615,4.6142,4.6196,4.6138,4.6142,4.6199,4.6288,4.6289,4.6289,4.6289,4.6289,4.6289,4.6289,4.6289,4.6289,4.6289,4.6289,4.6289,4.6289,4.6289,4.6367,4.6758,4.7226,4.7655,4.7899,4.775,4.7483,4.7336,4.6753,4.6201,4.6198,4.5544,4.4609,4.3315,4.1916,4.0884,4.0884,4.0825,4.0734,4.062,4.035,4.0244,4.0425,4.0803,4.0937,4.0516,4.1208,4.1689,4.1696,4.1813,4.2072,4.2413,4.2939,4.3301,4.3371,4.3658,4.3799,4.3799,4.3597,4.3506,4.3506,4.3506,4.3506,4.3506,4.3506,4.3506,4.9575,5.0455,5.1283,5.1981,5.2057,5.1546,4.9899,5.0057,4.9526,4.6167,4.5977,4.6108,4.5053,4.5123,4.5724,4.6852,4.8007,4.9913,5.3146,5.2898,5.3172,5.5192,5.406,5.2841,5.2116,5.1826,5.12,5.0164,4.9769,4.8973,4.756,4.7121,4.6522,4.5637,4.5522,4.5113,4.436,4.4472,4.4187,4.3432,4.4488,4.5,4.5039,4.5898,4.6289,4.6289,4.6194,4.6196,4.6288,4.6152,4.6196,4.6288,4.6289,4.6289,4.6289,4.6289,4.6289,4.6289,4.6289,4.6289,4.6289,4.6289,4.6289,4.6289,4.6289,4.6289,4.6445,4.7226,4.75,4.7733,4.8209,4.7889,4.7387,4.7257,4.6677,4.6149,4.6247,4.5506,4.429,4.2617,4.1453,4.0764,4.0721,4.0683,4.062,4.0504,4.0217,4.0235,4.0744,4.086,4.1084,4.1481,4.224,4.291,4.332,4.269,4.2653,4.3433,4.2845,4.2763,4.3469,4.3506,4.3506,4.3506,4.3506,4.3506,4.3506,4.3506,4.3506,4.3506,4.3506,4.3543,5.0594,5.0957,5.113,5.1283,5.0775,4.9951,4.8932,4.8275,4.7459,4.6107,4.5937,4.5925,4.5642,4.5957,4.7182,4.9903,5.0892,5.2315,5.5245,5.4983,5.4501,5.46,5.3447,5.2587,5.2438,5.1164,5.0259,5.0049,4.8417,4.7445,4.7495,4.7121,4.6553,4.5807,4.5079,4.4342,4.3587,4.3736,4.3349,4.254,4.4215,4.5,4.5039,4.5898,4.6289,4.6289,4.6288,4.6203,4.6145,4.6245,4.6203,4.6146,4.6248,4.6289,4.6289,4.6289,4.6289,4.6289,4.6289,4.6289,4.6289,4.6289,4.6289,4.6289,4.6289,4.6289,4.6328,4.6484,4.7031,4.7421,4.6727,4.7055,4.7379,4.6528,4.6274,4.6246,4.6149,4.4855,4.336,4.2335,4.1383,4.069,4.0703,4.0626,4.0515,4.0481,4.0034,3.9972,4.072,4.1182,4.1392,4.1212,4.1908,4.2435,4.2515,4.2396,4.2653,4.3433,4.3359,4.3359,4.3506,4.3506,4.3506,4.3506,4.3506,4.3506,4.3506,4.3506,4.3506,4.3506,4.3506,4.3873,5.0795,5.1216,5.1244,5.1244,5.0618,4.9523,4.7763,4.7024,4.6362,4.5033,4.5047,4.5477,4.5896,4.6277,4.7178,4.9073,5.0127,5.1631,5.421,5.4242,5.4293,5.4997,5.3771,5.2711,5.2269,5.1291,5.0303,4.9433,4.8227,4.7449,4.7195,4.663,4.6185,4.5815,4.544,4.488,4.4126,4.3772,4.3175,4.2374,4.3671,4.4336,4.4375,4.5703,4.6289,4.6289,4.6289,4.6249,4.6202,4.6288,4.6248,4.6202,4.6288,4.6289,4.6289,4.6289,4.6289,4.6289,4.6289,4.6289,4.6289,4.6289,4.6289,4.6289,4.6289,4.6289,4.6406,4.6836,4.6953,4.6914,4.6907,4.6911,4.6796,4.6219,4.6088,4.5961,4.5499,4.4284,4.3006,4.1966,4.1026,4.0377,4.0377,4.033,4.0496,4.1107,4.0299,4.0216,4.1889,4.1649,4.143,4.1715,4.2433,4.291,4.291,4.291,4.3102,4.3469,4.3506,4.3506,4.3506,4.3506,4.3506,4.3506,4.3506,4.3506,4.3506,4.3506,4.3726,4.4121,4.4121,4.4562,5.1079,5.1715,5.1953,5.1953,5.1055,4.9609,4.7342,4.6562,4.5859,4.4256,4.4566,4.5321,4.5974,4.632,4.6804,4.7705,4.8703,5.0119,5.2421,5.2878,5.3459,5.4732,5.3814,5.2734,5.1924,5.1103,5.0074,4.8743,4.8015,4.7311,4.6694,4.6123,4.5815,4.5845,4.5909,4.5608,4.4855,4.423,4.3503,4.2695,4.3555,4.3984,4.4023,4.5586,4.6289,4.6289,4.6289,4.6289,4.6248,4.6289,4.6289,4.6248,4.6289,4.6289,4.6289,4.6289,4.6289,4.6289,4.6289,4.6289,4.6289,4.6289,4.6289,4.6289,4.6289,4.6289,4.6445,4.7148,4.6836,4.6445,4.7148,4.6796,4.6205,4.6084,4.5965,4.5609,4.4605,4.376,4.2778,4.1474,4.0728,4.0286,4.004,4.0144,4.0534,4.1323,4.0473,4.0546,4.275,4.2054,4.1654,4.247,4.3139,4.3506,4.3506,4.3506,4.3506,4.3506,4.3506,4.3506,4.3506,4.3506,4.3506,4.3506,4.3506,4.3506,4.3506,4.3653,4.4085,4.47,4.4883,4.5397,5.2158,5.3078,5.375,5.375,5.1953,4.9882,4.8725,4.7336,4.6014,4.4933,4.5463,4.6168,4.6098,4.6119,4.6664,4.8176,4.8409,4.917,5.132,5.2219,5.2538,5.2296,5.2499,5.2322,5.1453,4.9559,4.8313,4.8164,4.6835,4.5986,4.5908,4.5848,4.5875,4.6068,4.6078,4.5716,4.4999,4.4921,4.4453,4.3594,4.4453,4.4883,4.4922,4.5859,4.6289,4.6289,4.6289,4.6245,4.614,4.6247,4.6245,4.6141,4.6247,4.6289,4.6289,4.6289,4.6289,4.6289,4.6289,4.6289,4.6289,4.6289,4.6289,4.6289,4.6289,4.6289,4.6328,4.6406,4.6367,4.6328,4.6406,4.628,4.6082,4.5961,4.5877,4.5341,4.3719,4.3227,4.2556,4.0592,4.0735,4.0862,3.9817,4.0245,4.064,4.03,4.0256,4.0707,4.1977,4.2143,4.2506,4.3286,4.3469,4.3506,4.3506,4.3506,4.3506,4.3506,4.3506,4.3506,4.3506,4.3506,4.3506,4.3506,4.3506,4.3506,4.3506,4.4232,4.4626,4.4737,4.5443,4.6205,5.1439,5.2671,5.3798,5.3878,5.1931,4.9779,4.8907,4.7004,4.5285,4.4826,4.5105,4.5535,4.6013,4.6171,4.638,4.6876,4.688,4.7481,4.9323,4.9755,5.0418,5.1842,5.17,5.1524,5.1639,4.9979,4.8487,4.7496,4.6448,4.5918,4.5989,4.5992,4.5793,4.5345,4.5413,4.5036,4.4219,4.4219,4.4023,4.3711,4.457,4.5,4.5039,4.5898,4.6289,4.6289,4.6289,4.6288,4.6205,4.6288,4.6288,4.6244,4.6289,4.6289,4.6289,4.6289,4.6289,4.6289,4.6289,4.6289,4.6289,4.6289,4.6289,4.6289,4.6289,4.6247,4.6199,4.6288,4.6196,4.608,4.615,4.6048,4.5908,4.5853,4.575,4.5151,4.3257,4.2806,4.2306,4.0549,4.0478,4.0541,4.012,4.0274,4.0691,4.1219,4.0722,4.1008,4.2941,4.268,4.2616,4.3396,4.3506,4.3506,4.3506,4.3506,4.3506,4.3506,4.3506,4.3506,4.3506,4.3506,4.3506,4.3506,4.3975,4.3975,4.3506,4.4782,4.5406,4.5443,4.6241,4.7049,5.1073,5.2653,5.4025,5.411,5.2171,5.002,4.915,4.6979,4.5097,4.5028,4.5097,4.5316,4.5943,4.6148,4.6172,4.5976,4.5942,4.6404,4.7814,4.8072,4.8848,5.0798,5.0611,5.0567,5.1233,4.9979,4.8458,4.68,4.6211,4.5997,4.6088,4.6143,4.576,4.49,4.4958,4.4726,4.4101,4.4061,4.4178,4.4492,4.5037,4.535,4.5391,4.6016,4.6289,4.6289,4.6289,4.6289,4.6289,4.6289,4.6289,4.6289,4.6289,4.6289,4.6289,4.6289,4.6289,4.6289,4.6289,4.6289,4.6289,4.6289,4.6288,4.6246,4.6246,4.6155,4.6094,4.6152,4.6063,4.5931,4.5974,4.5906,4.5806,4.5751,4.5581,4.494,4.3013,4.2519,4.2033,4.0561,4.0505,4.0588,4.0251,4.0563,4.1035,4.1485,4.1185,4.1572,4.3401,4.3065,4.2882,4.3433,4.3506,4.3506,4.3506,4.3506,4.3506,4.3506,4.3726,4.3864,4.3864,4.3864,4.3983,4.4204,4.4525,4.4525,4.4204,4.559,4.6241,4.6278,4.7085,4.7746,5.165,5.3446,5.4876,5.4879,5.2967,5.083,4.9838,4.7662,4.5886,4.5818,4.5831,4.5882,4.5882,4.6003,4.6091,4.6092,4.5994,4.6267,4.7283,4.7808,4.8209,4.8507,4.9073,4.9538,4.9806,4.9024,4.7786,4.6035,4.6048,4.6089,4.6089,4.6244,4.5898,4.5039,4.5,4.5,4.5,4.4863,4.5293,4.6289,4.6152,4.6154,4.6289,4.6289,4.6289,4.6289,4.6289,4.6289,4.6289,4.6289,4.6289,4.6289,4.6289,4.6289,4.6289,4.6289,4.6289,4.6289,4.6289,4.6289,4.6289,4.6289,4.6202,4.609,4.609,4.609,4.6077,4.5954,4.5882,4.5893,4.5828,4.5783,4.5775,4.5611,4.5366,4.4669,4.2967,4.235,4.1745,4.0544,4.0996,4.1215,4.0097,4.123,4.1838,4.053,4.144,4.2398,4.2775,4.3197,4.3506,4.3506,4.3506,4.3506,4.3506,4.3506,4.3506,4.3506,4.4268,4.47,4.47,4.47,4.5067,4.5847,4.5104,4.5104,4.5883,4.6682,4.7076,4.7113,4.7893,4.8296,4.9213,5.0662,5.2066,5.2133,5.0672,4.9097,4.8764,4.7233,4.5812,4.5704,4.574,4.5819,4.5819,4.5998,4.6062,4.597,4.6,4.6143,4.6476,4.7056,4.7766,4.8532,4.9783,5.0136,4.9022,4.8748,4.7927,4.6174,4.6151,4.6246,4.6246,4.6288,4.5625,4.4141,4.4101,4.3514,4.2287,4.3402,4.4086,4.4338,4.5533,4.6137,4.6152,4.6248,4.6289,4.6289,4.6289,4.6289,4.6289,4.6289,4.6289,4.6289,4.6289,4.6289,4.6289,4.6289,4.6289,4.6289,4.6289,4.6289,4.6289,4.6199,4.6142,4.6073,4.5944,4.589,4.5859,4.5733,4.577,4.5821,4.5677,4.5661,4.5603,4.5318,4.5185,4.4667,4.3063,4.264,4.24,4.1788,4.1443,4.133,4.1503,4.1515,4.1511,4.1649,4.2038,4.2548,4.3197,4.3399,4.3506,4.3506,4.3506,4.3506,4.3506,4.3506,4.3506,4.3506,4.4268,4.47,4.47,4.47,4.5067,4.5883,4.5663,4.5663,4.5883,4.7269,4.7929,4.7929,4.8186,4.8296,4.7691,4.8948,5.0056,5.0272,4.9269,4.8137,4.782,4.6695,4.5719,4.562,4.5665,4.5714,4.5714,4.5906,4.5987,4.5908,4.6013,4.6214,4.6622,4.6984,4.755,4.8503,4.9606,4.9678,4.8243,4.8194,4.7716,4.6272,4.6247,4.6289,4.6289,4.5974,4.5112,4.3706,4.3666,4.2956,4.1485,4.2794,4.3606,4.3899,4.5327,4.6037,4.6091,4.6197,4.6247,4.6289,4.6289,4.6289,0.0,4.6289,4.6289,4.6289,4.6289,4.6289,4.6289,4.6289,4.6289,4.6289,4.6289,4.6288,4.6202,4.6139,4.6054,4.5966,4.5767,4.5714,4.5727,4.5633,4.5653,4.5723,4.5629,4.5523,4.5371,4.5159,4.4902,4.4347,4.3085,4.2709,4.2554,4.2345,4.1911,4.169,4.2213,4.2139,4.2066,4.2286,4.2543,4.2919,4.3433,4.3312,4.3196,4.3196,4.3005,4.2847,4.2847,4.3268,4.3616,4.3938,4.4709,4.5287,4.5581,4.5617,4.5984,4.6801,4.6507,4.6498,4.6801,4.7819,4.8296,4.8296,4.8296,4.8296,0.0,4.7987,4.8716,4.9004,4.8495,4.7735,4.6966,4.6163,0.0,4.5594,4.5594,4.5594,4.5594,4.5767,4.5882,4.5882,4.601,4.6424,4.7382,4.7412,4.7628,4.853,4.8843,4.8591,4.7507,4.7533,4.7226,4.6367,4.6289,4.6289,4.6289,4.5414,4.4493,4.3629,4.3508,4.3076,4.2177,4.2845,4.3674,4.4617,4.5425,4.5893,4.6076,4.6085,4.6153,4.6289,4.6289,4.6289,4.6289,4.6289,4.6289,4.6288,4.6288,4.6288,4.6288,4.6289,4.6289,4.6288,4.6289,4.62,4.6082,4.6077,4.5955,4.5768,4.5658,4.5594,4.5594,4.5594,4.5594,4.5594,4.5594,4.5366,4.5072,4.505,4.4528,4.3804,4.3014,4.2625,4.2396,4.2396,4.2323,4.2323,4.2396,4.2955,4.3176,4.2506,4.2995,4.3454,4.3454,4.2958,4.2635,4.2635,4.2114,4.181,4.181,4.2772,4.3731,4.4519,4.537,4.6195,4.6983,4.7094,4.748,4.826,4.7553,4.7562,4.8296,4.8296,4.8296,4.8296,4.837,4.837,4.5097,0.0,4.6015,4.6085,4.6143,4.6129,0.0,4.5744,4.5594,4.5594,4.5594,4.5594,4.5594,4.5767,4.5882,4.5882,4.6109,4.6327,4.6562,4.7692,4.8819,4.9717,4.9842,4.9297,4.7693,4.7578,4.7226,4.6367,4.6289,4.6248,4.6148,4.5358,4.4434,4.3468,4.2732,4.1942,4.1077,4.2473,4.3282,4.3472,4.504,4.5821,4.5861,4.6039,4.6135,4.6149,4.6248,4.6246,4.6146,4.6146,4.6083,4.5992,4.5992,4.5992,4.6,4.6093,4.6081,4.6001,4.6094,4.6069,4.5946,4.589,4.5757,4.5624,4.5607,4.5594,4.5594,4.5594,4.5594,4.5594,4.5594,4.5366,4.506,4.4788,4.4346,4.3869,4.3447,4.3252,4.3212,4.3212,4.2727,4.2506,4.3102,4.2873,4.2727,4.3139,4.3041,4.2874,4.2874,4.2382,4.2,4.2,4.1885,4.181,4.181,4.2052,4.2517,4.3282,4.456,4.5622,4.6369,4.683,4.748,4.826,4.8113,4.8113,4.8296,4.8296,4.8296,4.8306,4.8976,4.893,4.4475,4.4849,4.5148,4.5278,4.5457,4.5594,4.5594,4.5594,4.5594,4.5594,4.5594,4.5625,4.5688,4.5816,4.5937,4.5983,4.6152,4.6445,4.6836,4.8047,4.9219,5.0117,4.9492,4.8789,4.8242,4.7461,4.6796,4.6241,4.6202,4.6147,4.6006,4.48,4.3852,4.3311,4.2005,4.1097,4.0697,4.1934,4.273,4.3124,4.4481,4.5353,4.5787,4.5913,4.5961,4.6006,4.6147,4.6141,4.6005,4.6077,4.6009,4.5882,4.5882,4.5882,4.5927,4.5983,4.5971,4.5929,4.5985,4.5937,4.5845,4.5754,4.5653,4.5594,4.5594,4.5594,4.5594,4.5594,4.5594,4.5568,4.5415,4.5099,4.4794,4.4407,4.405,4.3726,4.3521,4.3506,4.3506,4.3506,4.3139,4.2915,4.3105,4.2768,4.2541,4.269,4.2482,4.2292,4.2292,4.1768,4.1408,4.1408,4.1173,4.1175,4.1499,4.1533,4.2091,4.3384,4.4483,4.5585,4.6689,4.7319,4.7856,4.8296,4.8296,4.8296,4.8296,4.8296,4.8526,4.8893,4.938,4.9344,4.4567,4.5118,4.5571,4.555,4.5582,4.5646,4.5646,4.5646,4.5646,4.5646,4.5646,4.5673,4.5787,4.5864,4.5974,4.6081,4.632,4.6836,4.7811,4.8633,4.9336,4.9882,4.8671,4.7968,4.8436,4.7107,4.6159,4.5886,4.5881,4.5771,4.5511,4.3926,4.3027,4.2999,4.138,4.0556,4.0661,4.1435,4.2235,4.3124,4.3932,4.4804,4.5778,4.5806,4.5819,4.5898,4.6003,4.5992,4.59,4.599,4.5969,4.5862,4.5862,4.5862,4.5864,4.5884,4.5879,4.5862,4.5862,4.5822,4.5754,4.5654,4.5594,4.5594,4.5594,4.5568,4.5537,4.5537,4.5537,4.5448,4.518,4.4818,4.4407,4.4073,4.375,4.3489,4.3419,4.3365,4.3347,4.3268,4.3259,4.3087,4.2645,4.2567,4.2382,4.1874,4.1736,4.1647,4.1647,4.1127,4.078,4.078,4.0368,4.0405,4.1136,4.1204,4.2009,4.3851,4.4599,4.5733,4.7313,4.7995,4.8296,4.8296,4.8296,4.8296,4.8296,4.8296,4.8746,4.961,4.9721,4.9747,4.5,4.6377,4.7399,4.5753,4.5576,4.5778,4.5778,4.5778,4.5778,4.5778,4.5778,4.5793,4.5869,4.5981,4.6078,4.6088,4.6828,4.7928,4.9424,4.9837,4.9724,4.9032,4.8679,4.8017,4.6649,4.6209,4.5653,4.498,4.49,4.4541,4.3665,4.2706,4.2122,4.2025,4.1027,4.0492,4.0519,4.137,4.2235,4.3124,4.3932,4.4761,4.5611,4.5751,4.5796,4.5828,4.5896,4.5879,4.5821,4.5846,4.5757,4.5657,4.5657,4.5657,4.5677,4.5767,4.5726,4.5657,4.5657,4.5636,4.5637,4.5603,4.5594,4.5594,4.5594,4.5405,4.5185,4.5185,4.5185,4.5175,4.5126,4.46,4.4073,4.4005,4.375,4.3393,4.2939,4.2808,4.2684,4.2155,4.2072,4.2041,4.1948,4.1937,4.1906,4.1821,4.1351,4.1024,4.1024,4.0552,4.0229,4.0229,4.0142,4.0405,4.1136,4.1204,4.1871,4.3428,4.4127,4.5364,4.7317,4.7995,4.8296,4.8296,4.8296,4.8296,4.8296,4.8296,4.8746,4.961,5.0298,5.0618,4.5392,4.6202,4.6988,4.712,4.7567,4.7833,4.7362,4.7245,4.7126,4.6654,4.6577,4.6423,4.6063,4.6422,4.6998,4.7528,4.8006,4.8554,4.9288,4.9451,4.9335,4.8858,4.8332,4.7692,4.6872,4.6256,4.5738,4.5318,4.5273,4.5049,4.4519,4.3697,4.3038,4.2508,4.1662,4.0973,4.0516,4.0896,4.1777,4.3085,4.347,4.4359,4.5594,4.5661,4.5704,4.5715,4.5783,4.5799,4.5712,4.5778,4.5711,4.5594,4.5594,4.5594,4.5607,4.5669,4.5644,4.5594,4.5594,4.5594,4.5594,4.5594,4.5594,4.5568,4.539,4.5222,4.5044,4.4884,4.4837,4.4794,4.4567,4.4261,4.3937,4.3791,4.3389,4.3013,4.2741,4.2432,4.2114,4.1863,4.181,4.1703,4.1351,4.1296,4.1229,4.0932,4.0636,4.049,4.049,4.0594,4.0696,4.0696,4.1048,4.1589,4.2341,4.2374,4.2819,4.3876,4.4921,4.6059,4.7363,4.7995,4.8526,4.8976,4.8526,4.8526,4.9003,4.8526,4.8967,5.0261,5.0618,5.1022,4.569,4.6125,4.6768,4.8055,4.8671,4.8974,4.913,4.8857,4.8466,4.8191,4.7974,4.7595,4.6821,4.7054,4.7684,4.8658,4.8974,4.9165,4.9352,4.9203,4.901,4.8805,4.7911,4.7252,4.7057,4.6298,4.5702,4.5459,4.5448,4.5306,4.5022,4.4205,4.3431,4.2816,4.197,4.1162,4.0516,4.0704,4.1589,4.3085,4.3085,4.3974,4.5594,4.5594,4.5594,4.5603,4.5692,4.5708,4.5607,4.5696,4.5704,4.5594,4.5594,4.5594,4.5594,4.5594,4.5594,4.5594,4.5594,4.5594,4.5581,4.5528,4.5466,4.5419,4.5066,4.4925,4.4775,4.4521,4.4387,4.4306,4.405,4.3958,4.381,4.3555,4.3105,4.2655,4.2537,4.201,4.1563,4.1431,4.1408,4.1263,4.0792,4.0697,4.0577,4.0154,4.0248,4.0316,4.0113,4.0878,4.1407,4.1238,4.1847,4.2591,4.3355,4.3558,4.3919,4.4419,4.5551,4.6436,4.6932,4.7876,4.867,4.9348,4.9055,4.9224,4.9894,4.9224,4.9627,5.1096,5.0916,5.1255,4.5768,4.7029,4.8171,4.7636,4.6946,4.7217,5.0384,4.9836,4.9133,5.0696,5.0247,4.9391,4.8658,4.779,4.7488,4.8396,4.9208,4.998,5.0659,5.0153,4.9372,4.8435,4.7611,4.68,4.5973,4.5731,4.5287,4.4461,4.4419,4.4068,4.3316,4.2466,4.1966,4.1889,4.105,4.0554,4.0516,4.1316,4.2196,4.3085,4.3085,4.3974,4.5594,4.5594,4.5594,4.5594,4.5612,4.5607,4.5594,4.5612,4.5607,4.5594,4.5594,4.5594,4.5594,4.5594,4.5594,4.5594,4.5594,4.5594,4.5555,4.5232,4.5148,4.5055,4.4745,4.4373,4.4073,4.4043,4.3802,4.3656,4.3943,4.3783,4.3549,4.3515,4.3105,4.2557,4.1979,4.1373,4.0815,4.0341,4.0217,4.0204,4.0154,4.0142,4.0129,4.0113,4.0675,4.0865,4.0168,4.1352,4.1961,4.1271,4.1847,4.2591,4.3355,4.4079,4.4527,4.4583,4.518,4.5584,4.5635,4.7533,4.8616,4.8688,4.9961,5.0655,5.0729,5.0655,5.1059,5.1893,5.1227,5.1317,4.5772,4.7068,4.8316,4.8144,4.7888,4.8343,5.0689,5.0798,5.0536,5.1129,5.1372,5.103,4.9642,4.8206,4.7676,4.908,4.9583,4.9914,5.0173,4.9985,4.9258,4.7797,4.7329,4.6765,4.59,4.5684,4.5475,4.5128,4.509,4.4975,4.4667,4.4359,4.3701,4.2624,4.2277,4.1589,4.0516,4.1354,4.2235,4.3124,4.3624,4.4474,4.5594,4.5594,4.5594,4.5594,4.5594,4.5594,4.5594,4.5594,4.5594,4.5594,4.5594,4.5594,4.5594,4.5594,4.5594,4.5594,4.5594,4.5452,4.5258,4.5153,4.4954,4.4732,4.4339,4.4117,4.3974,4.3758,4.3597,4.3549,4.3672,4.3597,4.3437,4.3096,4.255,4.1969,4.1351,4.078,4.0331,4.0129,4.0113,4.0113,4.0113,4.0113,4.0282,4.0709,4.0641,4.0743,4.1386,4.1961,4.2354,4.2544,4.3267,4.4025,4.4776,4.5128,4.5481,4.5954,4.6096,4.5966,4.5528,4.7927,4.9298,4.9367,5.0316,5.1059,5.1536,5.0586,5.0522,5.1285,5.0605,5.0695,4.5785,4.6665,4.7619,4.8008,4.8382,4.9149,5.1068,5.1394,5.1628,5.2646,5.2404,5.1509,4.9962,4.8272,4.7508,4.8678,4.9102,4.9258,4.9258,4.9025,4.8443,4.7236,4.6829,4.6404,4.5771,4.5644,4.5594,4.5594,4.5594,4.5475,4.5205,4.5205,4.4436,4.2739,4.297,4.236,4.0786,4.1971,4.2851,4.3314,4.4282,4.5013,4.5594,4.5594,4.5594,4.5594,4.5594,4.5594,4.5594,4.5594,4.5594,4.5594,4.5594,4.5594,4.5594,4.5594,4.5594,4.5581,4.5466,4.5278,4.5044,4.4811,4.4593,4.4325,4.3966,4.3833,4.3778,4.3555,4.3506,4.3506,4.3506,4.3356,4.316,4.278,4.2083,4.1396,4.0978,4.0502,4.0113,4.0113,4.0269,4.0438,4.0438,4.0641,4.098,4.1474,4.1318,4.142,4.2198,4.274,4.3301,4.4032,4.4432,4.4973,4.5974,4.5838,4.6007,4.6766,4.6922,4.6687,4.5944,4.8181,4.9591,4.9875,5.0766,5.1484,5.2043,5.0959,5.0614,5.0964,5.0233,5.0224,4.5815,4.5856,4.6147,4.696,4.7848,4.9163,5.1558,5.166,5.2204,5.5645,5.3431,5.0581,4.96,4.8048,4.6889,4.6928,4.7582,4.8082,4.8082,4.7389,4.6889,4.6889,4.6124,4.5594,4.5594,4.5594,4.5594,4.5594,4.5594,4.5205,4.4355,4.4316,4.3543,4.1881,4.2654,4.2504,4.131,4.3309,4.4115,4.3808,4.5011,4.5594,4.5594,4.5594,4.5594,4.5594,4.5594,4.5594,4.5594,4.5594,4.5594,4.5594,4.5594,4.5594,4.5594,4.5594,4.559,4.5555,4.5217,4.511,4.4971,4.4247,4.399,4.3951,4.3605,4.3506,4.3506,4.3506,4.3506,4.3497,4.3497,4.3105,4.2674,4.2684,4.1778,4.092,4.0874,4.0456,4.0113,4.0113,4.0709,4.1204,4.1204,4.1813,4.23,4.23,4.2929,4.3118,4.2388,4.3653,4.4871,4.5635,4.5041,4.521,4.6699,4.6143,4.6041,4.6752,4.7515,4.7582,4.6834,4.8166,4.9259,4.9978,5.1359,5.2101,5.2101,5.2089,5.1729,5.1073,5.0321,4.999,4.5845,4.6541,4.7353,4.7086,4.8572,5.0467,5.1791,5.2027,5.2397,5.3952,5.1991,5.0062,5.0254,4.8432,4.7081,4.7658,4.7466,4.7274,4.7274,4.7043,4.6658,4.6052,4.5744,4.5594,4.5594,4.5594,4.5594,4.5594,4.5594,4.5365,4.4903,4.4345,4.3642,4.286,4.2562,4.2319,4.2158,4.3352,4.4025,4.4172,4.5132,4.5594,4.5594,4.5594,4.5594,4.5594,4.5594,4.5594,4.5594,4.5594,4.5594,4.5594,4.5594,4.5594,4.5594,4.5594,4.5443,4.5232,4.5148,4.475,4.4304,4.4065,4.3833,4.3639,4.3549,4.3506,4.3506,4.3506,4.3223,4.2957,4.2957,4.2185,4.1527,4.1958,4.1451,4.0803,4.0429,4.0217,4.0113,4.0113,4.0709,4.1204,4.1204,4.1813,4.2503,4.2997,4.2828,4.2726,4.3051,4.3992,4.4871,4.5635,4.55,4.5974,4.7447,4.738,4.7549,4.8308,4.8529,4.8105,4.6868,4.8667,4.9507,4.9245,5.0671,5.1393,5.1393,5.0889,5.0527,5.0293,4.9639,4.9301,4.577,4.6613,4.7692,4.7835,4.9572,5.1481,5.2352,5.2901,5.3362,5.3756,5.1816,5.007,5.0158,4.8394,4.6966,4.7086,4.6701,4.6394,4.6394,4.6394,4.6201,4.5667,4.5594,4.5555,4.5415,4.5405,4.5366,4.5222,4.5211,4.4941,4.4408,4.4235,4.3611,4.2347,4.2819,4.2842,4.234,4.3635,4.4432,4.4633,4.5277,4.5594,4.5594,4.5594,4.5594,4.5594,4.5594,4.5594,4.5594,4.5594,4.5594,4.5594,4.5594,4.5594,4.5581,4.5443,4.5263,4.5044,4.4756,4.438,4.3967,4.3841,4.3652,4.3506,4.3506,4.3506,4.3471,4.3241,4.2967,4.2645,4.2392,4.1603,4.0978,4.134,4.1001,4.048,4.0167,4.0113,4.0113,4.0113,4.0709,4.1204,4.1204,4.2049,4.2895,4.3321,4.3301,4.3382,4.3809,4.4567,4.5297,4.6075,4.6143,4.6718,4.8191,4.8056,4.8225,4.8951,4.9018,4.8612,4.7699,4.8928,4.953,4.934,5.02,5.0662,5.0662,5.023,4.9847,4.9576,4.9199,4.9018,4.5761,4.6387,4.7476,4.9099,5.0851,5.2351,5.3121,5.3969,5.4495,5.4221,5.2246,5.0322,4.9553,4.8048,4.662,4.5859,4.5667,4.5594,4.5594,4.5594,4.5594,4.5594,4.5594,4.5457,4.5143,4.5115,4.4954,4.4637,4.4612,4.4246,4.3396,4.4063,4.3402,4.1105,4.3213,4.3697,4.2285,4.4131,4.505,4.5121,4.5434,4.5594,4.5594,4.5594,4.5594,4.5594,4.5594,4.5594,4.5594,4.5594,4.5594,4.559,4.5568,4.5559,4.5494,4.5185,4.5022,4.4914,4.424,4.3967,4.3912,4.3605,4.3506,4.3506,4.3506,4.3506,4.341,4.2836,4.2655,4.2498,4.1945,4.1332,4.0839,4.0896,4.05,4.0113,4.0113,4.0113,4.0113,4.0113,4.0743,4.1305,4.1305,4.2544,4.3524,4.3524,4.4181,4.4702,4.4702,4.5331,4.6075,4.6819,4.6902,4.7462,4.8883,4.8394,4.8293,4.8951,4.9018,4.9018,4.9018,4.9018,4.9286,4.989,4.9904,4.9904,4.9904,4.9904,4.961,4.9018,4.9018,4.9052,4.6633,4.7233,4.8261,4.9986,5.2202,5.3972,5.4164,5.3864,5.3123,5.1799,5.0553,4.963,4.9433,4.8048,4.6851,4.6658,4.6052,4.5594,4.5594,4.5594,4.5594,4.5594,4.5594,4.5457,4.5143,4.5115,4.4954,4.4637,4.4612,4.4366,4.387,4.3429,4.3103,4.2926,4.2823,4.3062,4.3587,4.4313,4.4843,4.5121,4.5434,4.5594,4.5594,4.5594,4.5594,4.5594,4.5594,4.5594,4.5594,4.5594,4.5594,4.5573,4.5293,4.5211,4.5175,4.4837,4.4502,4.4219,4.405,4.3818,4.3597,4.3504,4.3506,4.3506,4.3506,4.3506,4.341,4.2836,4.2352,4.1995,4.202,4.1166,4.0415,4.1014,4.0608,4.0113,4.0113,4.0113,4.0113,4.0113,4.1149,4.2049,4.2049,4.3349,4.433,4.433,4.4993,4.5466,4.5466,4.6109,4.6853,4.7582,4.765,4.8022,4.8917,4.8849,4.8834,4.8984,4.9018,4.9018,4.9018,4.9018,4.9061,4.9195,4.9229,4.9229,4.9229,4.9229,4.9153,4.9018,4.9018,4.9323,4.6774,4.7505,4.8697,5.1241,5.351,5.4857,5.4049,5.3549,5.2626,5.0515,4.9707,4.9279,4.8856,4.7735,4.6774,4.6355,4.5898,4.5594,4.5594,4.5452,4.5376,4.5376,4.5222,4.4988,4.4612,4.458,4.4435,4.4102,4.4072,4.3974,4.3783,4.3376,4.3049,4.2919,4.2873,4.3053,4.3409,4.4206,4.4776,4.5121,4.5434,4.5594,4.5594,4.5594,4.5594,4.5594,4.5594,4.5594,4.5586,4.5424,4.5376,4.5346,4.4983,4.4866,4.4825,4.4441,4.4175,4.396,4.3802,4.3664,4.3506,4.3506,4.3506,4.3463,4.3196,4.3124,4.294,4.2083,4.1628,4.1427,4.1611,4.0895,4.0269,4.1035,4.0641,4.0113,4.0113,4.0113,4.0113,4.0113,4.1014,4.1779,4.1779,4.3031,4.4147,4.4533,4.4939,4.5297,4.5669,4.6346,4.709,4.7819,4.8225,4.8563,4.8984,4.9018,4.9018,4.9018,4.9018,4.9154,4.9492,4.9187,4.9018,4.9018,4.9018,4.9018,4.9018,4.9018,4.9018,4.9018,4.9018,4.939,4.6658,4.7697,4.9279,5.2236,5.4126,5.4857,5.3313,5.2967,5.2351,5.0087,4.9394,4.8894,4.8043,4.7235,4.6432,4.5706,4.5594,4.5577,4.5537,4.5268,4.5099,4.5011,4.4776,4.4428,4.4028,4.399,4.3857,4.354,4.3506,4.3506,4.3506,4.3506,4.3176,4.2543,4.3139,4.3357,4.3006,4.4062,4.4776,4.5121,4.5434,4.5594,4.5594,4.5594,4.5594,4.559,4.555,4.5489,4.5471,4.5164,4.5,4.4971,4.4612,4.4513,4.4435,4.408,4.392,4.3873,4.3597,4.3506,4.3489,4.3374,4.3347,4.3259,4.2713,4.2557,4.2312,4.1195,4.092,4.0941,4.1134,4.0641,4.0269,4.1035,4.0743,4.0282,4.0146,4.0113,4.0146,4.0269,4.1001,4.163,4.1779,4.278,4.3842,4.4499,4.4804,4.521,4.5805,4.665,4.7394,4.8022,4.8646,4.9018,4.9018,4.9018,4.9018,4.9018,4.9018,4.9323,5.0083,4.9492,4.9255,4.939,4.912,4.9018,4.9018,4.9018,4.9018,4.9018,4.912,4.9593,4.6658,4.8586,5.063,5.1774,5.2813,5.3274,5.2313,5.2077,5.1774,5.0745,4.9317,4.8043,4.7197,4.6355,4.5744,4.5633,4.5594,4.5518,4.5211,4.5143,4.4983,4.4714,4.4637,4.4428,4.4028,4.399,4.3857,4.354,4.3506,4.3506,4.3506,4.3506,4.3433,4.3322,4.3433,4.3607,4.3841,4.4349,4.4776,4.5121,4.5434,4.5594,4.5594,4.5594,4.5594,4.5581,4.5278,4.5175,4.5153,4.4812,4.4676,4.4644,4.4233,4.4073,4.4028,4.3685,4.3555,4.3555,4.3532,4.3506,4.34,4.2976,4.2789,4.2703,4.2093,4.1916,4.1789,4.1081,4.092,4.0941,4.1134,4.0641,4.0269,4.1035,4.1136,4.0865,4.0235,4.0113,4.0269,4.0933,4.2172,4.3321,4.4025,4.4296,4.4465,4.4567,4.5684,4.653,4.6631,4.7868,4.8748,4.8849,4.8951,4.9018,4.9018,4.9018,4.9018,4.9018,4.9018,4.9323,5.0083,5.0015,5.0236,5.0897,4.9661,4.9018,4.9018,4.9018,4.9018,4.9018,4.9661,5.0338,4.6296,4.7963,4.9645,5.0625,5.1557,5.2066,5.1666,5.1743,5.1543,5.024,4.9356,4.8586,4.7735,4.6471,4.555,4.5366,4.5303,4.5206,4.4872,4.4625,4.4435,4.4276,4.411,4.3896,4.3742,4.3726,4.3644,4.3523,4.3506,4.3506,4.3506,4.3506,4.3506,4.3506,4.3506,4.3563,4.3718,4.432,4.4776,4.5115,4.505,4.5033,4.5033,4.5033,4.512,4.5298,4.5169,4.4983,4.48,4.4414,4.4254,4.4219,4.3849,4.3726,4.3701,4.3546,4.3506,4.3506,4.3506,4.3506,4.3391,4.2855,4.2693,4.2537,4.1595,4.1319,4.1242,4.0613,4.0466,4.0563,4.1078,4.0641,4.0269,4.1035,4.1204,4.1102,4.0798,4.1048,4.1555,4.2273,4.2949,4.366,4.4465,4.4615,4.4736,4.5142,4.5771,4.6481,4.7327,4.7988,4.8529,4.8951,4.9018,4.9187,4.9593,4.9627,4.9796,5.0186,5.022,5.0558,5.1285,5.0947,5.1066,5.181,5.0761,5.0033,4.9627,4.9627,4.9627,4.9627,4.9947,5.071,4.5641,4.6797,4.7936,4.8802,4.9828,5.0634,5.0689,5.1063,5.1095,4.9834,4.9224,4.8705,4.7977,4.6719,4.563,4.5153,4.5017,4.4861,4.4482,4.4183,4.3952,4.3889,4.3635,4.3506,4.3506,4.3506,4.3506,4.3506,4.3506,4.3506,4.3506,4.3506,4.3506,4.3506,4.3506,4.3529,4.3639,4.4254,4.4739,4.4966,4.4726,4.4612,4.4612,4.4612,4.4695,4.4805,4.4805,4.467,4.4407,4.405,4.3873,4.3841,4.3597,4.3506,4.3506,4.3506,4.34,4.3294,4.3294,4.3214,4.2986,4.2432,4.2251,4.2041,4.1013,4.072,4.0671,4.0217,4.0113,4.0269,4.1001,4.0798,4.0574,4.1305,4.161,4.1698,4.1508,4.2049,4.2726,4.3288,4.3558,4.391,4.4499,4.477,4.5074,4.5635,4.6027,4.6669,4.7752,4.8056,4.8394,4.8951,4.9187,4.9492,5.0049,5.027,5.0608,5.1167,5.1201,5.1539,5.2266,5.1776,5.181,5.2604,5.2046,5.1251,5.0117,5.027,5.027,5.0117,5.0473,5.1251,4.4669,4.5311,4.5946,4.5997,4.7257,4.8568,4.8931,4.9645,5.0174,5.0097,4.8817,4.7554,4.7135,4.6617,4.602,4.5235,4.4837,4.4475,4.408,4.4005,4.3889,4.3555,4.3523,4.3506,4.3506,4.3506,4.3506,4.3506,4.3506,4.3506,4.3506,4.3506,4.3506,4.3506,4.3506,4.3635,4.3952,4.438,4.4618,4.4637,4.4618,4.4612,4.4612,4.4612,4.4394,4.405,4.405,4.4043,4.399,4.3652,4.354,4.3504,4.3515,4.3506,4.3506,4.3506,4.3187,4.2732,4.2732,4.2372,4.18,4.1172,4.0978,4.0897,4.0294,4.0129,4.015,4.0125,4.0113,4.0269,4.1001,4.117,4.1339,4.2063,4.2794,4.3085,4.2388,4.2828,4.3355,4.3375,4.4012,4.4533,4.4601,4.5162,4.5669,4.5689,4.6872,4.7819,4.7887,4.8496,4.8951,4.9018,4.9627,5.0083,5.0117,5.0744,5.1167,5.1201,5.1201,5.1539,5.2266,5.2266,5.2638,5.3416,5.3416,5.23,5.0117,5.0795,5.0777,5.015,5.1522,5.2232,4.4139,4.4259,4.4501,4.523,4.5881,4.654,4.7197,4.8163,4.8932,4.8932,4.888,4.8455,4.7223,4.6031,4.5023,4.4486,4.4297,4.4073,4.3726,4.3669,4.3647,4.3523,4.3506,4.3506,4.3506,4.3506,4.3506,4.3506,4.3506,4.3506,4.3506,4.3506,4.3506,4.3506,4.3506,4.3644,4.399,4.3927,4.4004,4.4204,4.3997,4.391,4.391,4.391,4.3823,4.3669,4.3669,4.3669,4.366,4.3538,4.3506,4.3506,4.3506,4.3506,4.3471,4.3124,4.2846,4.2645,4.2262,4.1979,4.1714,4.1116,4.092,4.0803,4.0279,4.0113,4.0113,4.0113,4.0438,4.0865,4.1136,4.1542,4.2083,4.2828,4.322,4.3457,4.3721,4.3992,4.4181,4.4181,4.4804,4.5297,4.5297,4.5906,4.6583,4.7041,4.7549,4.8056,4.8529,4.8849,4.9187,4.9661,4.9947,5.0473,5.142,5.1758,5.2131,5.2621,5.2672,5.279,5.3078,5.3078,5.3213,5.3484,5.3518,5.2841,5.1522,5.1792,5.1758,5.1522,5.2063,5.257,4.3783,4.3652,4.3758,4.4782,4.5065,4.5345,4.6299,4.7117,4.7761,4.8055,4.8303,4.8101,4.6877,4.5537,4.4483,4.4087,4.3912,4.3767,4.3512,4.3506,4.3506,4.3506,4.3506,4.3506,4.3506,4.3506,4.3506,4.3506,4.3506,4.3506,4.3506,4.3506,4.3506,4.3506,4.3506,4.3614,4.3818,4.3614,4.3614,4.3818,4.3614,4.3506,4.3506,4.3506,4.3506,4.3506,4.3506,4.3506,4.3506,4.3506,4.3506,4.3506,4.3506,4.3374,4.3187,4.2818,4.2432,4.2031,4.165,4.1386,4.1162,4.0745,4.0808,4.0896,4.0272,4.0451,4.0777,4.054,4.1001,4.1644,4.1867,4.2489,4.3213,4.3707,4.3809,4.3944,4.4465,4.4615,4.4668,4.4905,4.5365,4.5771,4.6041,4.6684,4.7327,4.7819,4.8124,4.8462,4.8951,4.9018,4.9289,5.0015,5.0304,5.098,5.2198,5.2536,5.2942,5.3484,5.3518,5.3518,5.3518,5.3518,5.3518,5.3518,5.3518,5.3247,5.2706,5.2706,5.257,5.23,5.257,5.2976,0.0,0.0,0.0,4.448,4.4663,4.4979,4.6161,4.6427,4.668,4.7454,4.7007,4.6356,4.5937,4.5214,4.4546,4.4092,4.3747,4.3506,4.3506,4.3506,4.3506,4.3506,4.3506,4.3506,4.3506,4.3506,4.3506,4.3506,4.3506,4.3506,4.3506,4.3506,4.3506,4.3506,4.3506,4.3506,4.3506,4.3506,4.3506,4.3506,4.3506,4.3506,4.3506,4.3506,4.3506,4.3506,4.3506,4.3497,4.3489,4.3497,4.3497,4.3489,4.3489,4.316,4.2664,4.2645,4.1906,4.0909,4.0897,4.0528,4.0113,4.0146,4.0608,4.1035,4.0371,4.1149,4.213,4.1441,4.1745,4.2489,4.3254,4.4012,4.4615,4.4615,4.4615,4.4615,4.4635,4.4635,4.4838,4.5568,4.5737,4.5974,4.6733,4.7447,4.7921,4.7921,4.8529,4.9018,4.9052,4.9052,4.9323,5.0083,5.0811,5.1539,5.2266,5.3044,5.3518,5.3518,5.3518,5.3518,5.3518,5.3518,5.3518,5.3518,5.3518,5.3518,5.3518,5.3518,5.3112,5.2367,5.3145,5.3518,4.3506,0.0,0.0,0.0,0.0,0.0,4.4237,4.477,4.5269,4.5491,4.5831,4.5861,4.5167,4.4847,4.4671,4.4535,4.3951,4.3506,4.3506,4.3506,4.3506,4.3506,4.3506,4.3506,4.3506,4.3506,4.3506,4.3506,4.3506,4.3506,4.3506,4.3506,4.3506,4.3506,4.3506,4.3506,4.3506,4.3506,4.3506,4.3506,4.3506,4.3506,4.3506,4.3506,4.3506,4.3506,4.3506,4.3277,4.293,4.333,4.3268,4.2902,4.2902,4.255,4.1989,4.1538,4.1172,4.085,4.0466,4.0229,4.0168,4.073,4.0675,4.0574,4.142,4.161,4.1576,4.188,4.2523,4.3301,4.4059,4.4432,4.4615,4.4615,4.4615,4.4736,4.5263,4.5399,4.5466,4.5669,4.6143,4.6718,4.7481,4.8191,4.8714,4.8714,4.8883,4.9187,4.9729,4.9812,5.027,5.1555,5.186,5.2334,5.3112,5.3382,5.3518,5.3518,5.3518,5.3518,5.3518,5.3518,5.3518,5.3518,5.3518,5.3518,5.3518,5.3518,5.3382,5.3179,5.3416,5.3518,4.3506,4.3506,4.3579,4.391,0.0,0.0,4.3901,4.4085,4.4305,4.4626,4.5067,4.525,4.4773,4.47,4.47,4.47,4.4305,4.4121,4.4461,4.391,4.3616,4.3975,4.369,4.3506,4.3506,4.3506,4.3506,4.3506,4.3506,4.3506,4.3506,4.3506,4.3506,4.3506,4.3506,4.3506,4.3506,4.3506,4.3506,4.3506,4.3506,4.3506,4.3506,4.3506,4.3365,4.3169,4.3169,4.2846,4.2352,4.2667,4.2609,4.2322,4.2322,4.1958,4.1362,4.1013,4.0756,4.0516,4.0204,4.0303,4.0641,4.1068,4.1339,4.1589,4.2117,4.2469,4.2625,4.2726,4.3301,4.4012,4.4465,4.4615,4.4615,4.4615,4.4838,4.5162,4.5602,4.594,4.6244,4.6568,4.694,4.7496,4.8225,4.8714,4.9018,4.9018,4.9255,4.9593,5.0049,5.0371,5.1014,5.2198,5.23,5.2638,5.345,5.3518,5.3518,5.3518,5.3518,5.3518,5.3518,5.3518,5.3518,5.3518,5.3518,5.3518,5.3518,5.3518,5.3518,5.3518,5.3518,5.3518,4.3726,4.3655,4.3721,4.4445,4.397,0.0,4.4218,4.3824,4.3495,4.4218,4.4401,4.4401,4.4401,4.4401,4.4401,4.451,4.4556,4.4903,4.5764,4.4681,4.402,4.4737,4.4195,4.3726,4.3653,4.3616,4.3616,4.3506,4.3506,4.3506,4.3506,4.3506,4.3506,4.3506,4.3506,4.3506,4.3506,4.3506,4.3506,4.3506,4.3506,4.348,4.3391,4.3391,4.3124,4.2606,4.2606,4.2272,4.1714,4.1714,4.1714,4.1714,4.1714,4.1353,4.0815,4.0815,4.0504,4.0113,4.0168,4.0641,4.1225,4.1407,4.2273,4.3186,4.2692,4.345,4.433,4.3707,4.4045,4.4615,4.4615,4.4668,4.4702,4.4702,4.5311,4.5838,4.594,4.6447,4.7124,4.7887,4.7954,4.8124,4.8883,4.9018,4.9052,4.912,4.9661,5.015,5.032,5.0913,5.1607,5.2367,5.2435,5.2739,5.345,5.3518,5.3518,5.3518,5.3518,5.3518,5.3518,5.3518,5.3518,5.3518,5.3518,5.3518,5.3518,5.3518,5.3518,5.3518,5.3518,5.3518,4.5259,4.4655,4.3879,4.4024,4.3087,0.0,4.2323,4.2241,4.217,4.2323,4.2348,4.2348,4.2348,4.2348,4.2573,4.3246,4.3758,4.4495,4.5718,4.5626,4.548,4.5663,4.5516,4.5186,4.4525,4.448,4.4195,4.3543,4.3506,4.3506,4.3506,4.3506,4.3506,4.3506,4.3506,4.3506,4.3506,4.3506,4.3506,4.3506,4.3506,4.3268,4.2882,4.2882,4.2521,4.1969,4.1969,4.1614,4.1093,4.1093,4.1093,4.1093,4.1093,4.0755,4.0266,4.0266,4.0179,4.018,4.0764,4.1068,4.1394,4.2577,4.2746,4.2726,4.3822,4.391,4.3727,4.4228,4.4465,4.4615,4.4615,4.5041,4.55,4.55,4.6041,4.6752,4.7346,4.7582,4.7887,4.8646,4.8293,4.8124,4.8883,4.9018,4.9187,4.9812,5.0015,5.0523,5.1725,5.1995,5.2401,5.3179,5.3281,5.3348,5.3484,5.3518,5.3518,5.3518,5.3518,5.3518,5.3518,5.3518,5.3518,5.3518,5.3518,5.3518,5.3518,5.3518,5.3518,5.3518,5.3518,5.3518,4.542,4.495,4.4355,4.402,4.3127,0.0,0.0,4.2048,4.181,4.181,4.181,4.181,4.181,4.181,4.2164,4.3355,4.3497,4.4068,4.5879,4.5994,4.6067,4.6461,4.614,4.5736,4.5333,4.4957,4.4378,4.3543,4.3506,4.3506,4.3506,4.3506,4.3506,4.3506,4.3506,4.3506,4.3506,4.3506,4.3506,4.3506,4.3232,4.2976,4.2684,4.2382,4.1916,4.134,4.134,4.1036,4.0492,4.0492,4.0492,4.0492,4.0492,4.0331,4.0113,4.0113,4.0337,4.0709,4.1068,4.1664,4.2408,4.3152,4.3436,4.3586,4.4364,4.433,4.4079,4.4499,4.4871,4.5142,4.5142,4.5703,4.6244,4.6244,4.6819,4.7462,4.7819,4.8191,4.8563,4.8951,4.8698,4.8563,4.8951,4.9323,4.9661,5.0049,5.0726,5.1454,5.2198,5.2638,5.3044,5.345,5.3518,5.3518,5.3518,5.3518,5.3518,5.3518,5.3518,5.3518,5.3518,5.3518,5.3518,5.3518,5.3518,5.3687,5.4059,5.3458,5.3475,5.4042,5.3827,5.3764,4.5338,4.5068,4.4757,4.4199,4.3441,4.274,0.0,0.0,0.0,4.171,4.1674,4.1674,4.1674,4.158,4.1861,4.3137,4.3191,4.3694,4.5529,4.5805,4.6144,4.7034,4.6331,4.5865,4.6094,4.525,4.4443,4.38,4.3579,4.3506,4.3506,4.3506,4.3506,4.3506,4.3506,4.3506,4.3506,4.3383,4.333,4.333,4.2789,4.2488,4.2332,4.1853,4.1284,4.0745,4.0745,4.0583,4.0303,4.0303,4.0417,4.0519,4.0371,4.0303,4.035,4.0485,4.0912,4.1441,4.1563,4.2408,4.3423,4.3592,4.4079,4.4635,4.477,4.4702,4.4649,4.4939,4.5331,4.5722,4.5858,4.6447,4.6989,4.6989,4.7597,4.8124,4.8124,4.8563,4.9018,4.9018,4.912,4.9187,4.9018,4.9593,5.015,5.027,5.1454,5.2367,5.2503,5.3112,5.3518,5.3518,5.3518,5.3518,5.3518,5.3518,5.3518,5.3518,5.3518,5.3518,5.3518,5.3518,5.3585,5.3721,5.35,5.3751,5.4491,5.35,5.3537,5.4474,5.3929,5.367,4.588,4.5375,4.4448,4.4374,4.3331,4.2218,4.1525,0.0,4.2048,4.1389,0.0,4.1253,4.1253,0.0,0.0,4.0508,4.2088,4.3378,4.3621,4.4636,4.5862,4.7211,4.6065,4.5649,4.6855,4.5581,4.4663,4.4553,4.3901,4.3506,4.3506,4.3506,4.3506,4.3506,4.3506,4.3506,4.3506,4.3041,4.278,4.277,4.22,4.1639,4.1081,4.1024,4.072,4.0179,4.0179,4.0536,4.1068,4.1068,4.1441,4.1995,4.1339,4.1068,4.1136,4.1826,4.2097,4.2252,4.2916,4.3254,4.3524,4.4228,4.4547,4.4702,4.5365,4.5142,4.4871,4.6191,4.6143,4.5838,4.6515,4.7225,4.7785,4.7785,4.8326,4.8883,4.8883,4.8951,4.9018,4.9018,4.9526,4.9763,4.912,4.9593,5.0304,5.0964,5.1776,5.257,5.3281,5.345,5.3518,5.3518,5.3518,5.3518,5.3518,5.3518,5.3518,5.3518,5.3518,5.3518,5.3518,5.3518,5.3822,5.4482,5.3472,5.3331,5.4062,5.3628,5.3648,5.4024,5.2987,5.2505,4.5802,4.5468,4.4966,4.4595,4.3701,4.2861,4.2544,4.2388,4.2198,4.188,0.0,0.0,0.0,0.0,0.0,0.0,4.2414,4.2881,4.3279,4.3103,4.3892,4.6514,4.5864,4.5247,4.5352,4.435,4.3522,4.3044,4.2711,4.2667,4.3032,4.305,4.3187,4.3497,4.3196,4.305,4.305,4.2462,4.219,4.219,4.1584,4.1138,4.0909,4.0577,4.0294,4.01,4.054,4.0899,4.1225,4.1644,4.2016,4.23,4.2422,4.2219,4.188,4.2198,4.2557,4.2997,4.3288,4.3707,4.4147,4.4499,4.4871,4.5297,4.5602,4.5771,4.6022,4.6631,4.6887,4.7041,4.7361,4.7988,4.8529,4.8529,4.8766,4.9018,4.9018,4.9018,4.912,4.956,4.988,5.015,5.0254,5.0879,5.1488,5.1776,5.2503,5.3112,5.345,5.3518,5.3518,5.3518,5.3518,5.3518,5.3518,5.3518,5.3518,5.3518,5.3271,5.3154,5.3154,5.2924,5.2936,5.325,5.2811,5.2935,5.3718,5.289,5.2786,5.3363,5.2881,5.2648,4.4924,4.4931,4.4881,4.4638,4.4147,4.366,4.3457,4.3166,4.2943,4.2943,4.2773,0.0,0.0,0.0,4.2503,4.3017,0.0,4.2557,4.3288,4.2138,4.2381,4.5489,4.5682,4.5291,4.4478,4.391,4.3284,4.2483,4.2225,4.2192,4.2448,4.2442,4.2619,4.3032,4.2648,4.2442,4.2442,4.1863,4.1538,4.1563,4.0967,4.0662,4.0684,4.0291,4.0214,4.0438,4.0967,4.1428,4.1833,4.2388,4.2726,4.2976,4.3538,4.3403,4.2943,4.2943,4.3267,4.3741,4.3741,4.4248,4.4905,4.4905,4.5399,4.6041,4.623,4.6549,4.6887,4.7293,4.7631,4.7954,4.8157,4.8597,4.9018,4.9018,4.9018,4.9052,4.9255,4.9289,4.9526,5.027,5.0541,5.0879,5.1404,5.1961,5.23,5.23,5.2976,5.3518,5.3518,5.3518,5.3518,5.3518,5.3518,5.3518,5.3518,5.3518,5.3467,5.3327,5.3238,5.3067,5.2734,5.2466,5.242,5.2612,5.2306,5.2563,5.3334,5.2188,5.1913,5.244,5.244,5.244,4.3091,4.3484,4.3653,4.4412,4.4567,4.4364,4.3592,4.3978,4.4547,4.4547,4.391,4.3592,4.4364,4.3315,4.23,0.0,4.2333,0.0,0.0,4.2138,4.1997,4.4199,4.5584,4.6059,4.5234,4.5128,4.4821,4.4065,4.3311,4.2568,4.1867,4.1832,4.1842,4.1863,4.1842,4.1832,4.1832,4.1217,4.0909,4.0897,4.038,4.0138,4.0138,4.0125,4.0506,4.117,4.1204,4.2002,4.3321,4.3355,4.3809,4.4547,4.4547,4.4547,4.4547,4.4547,4.4533,4.4567,4.4567,4.5041,4.5655,4.5655,4.6143,4.6887,4.7616,4.7361,4.709,4.8545,4.8428,4.8056,4.8781,4.8984,4.9018,4.9018,4.9018,4.9187,4.9898,5.0083,5.027,5.1032,5.1758,5.2232,5.2266,5.2266,5.23,5.23,5.2976,5.3518,5.3518,5.3518,5.3518,5.3518,5.3518,5.3518,5.3518,5.3518,5.3344,5.2928,5.3597,5.3484,5.2341,5.2292,5.2664,5.3471,5.2363,5.2197,5.2914,5.1789,5.1246,5.1246,5.1246,5.1246,4.3118,0.0,4.3592,4.4398,4.4615,4.4547,4.4262,4.479,4.5331,4.5331,4.55,4.5568,4.5365,4.4891,4.4384,0.0,4.3822,4.3721,0.0,4.2983,4.2739,4.2982,4.3854,4.4122,4.3365,4.2849,4.2243,4.1498,4.1188,4.108,4.1207,4.1695,4.2157,4.2521,4.218,4.2009,4.2009,4.0924,4.0368,4.0368,4.0179,4.0113,4.0113,4.0113,4.0506,4.1238,4.1711,4.2489,4.3457,4.3978,4.4364,4.4615,4.4615,4.4905,4.5263,4.477,4.4615,4.4682,4.5162,4.55,4.5771,4.6278,4.6921,4.7582,4.7819,4.8056,4.8376,4.8849,4.8815,4.8698,4.8951,4.9018,4.912,4.9593,4.9729,4.9932,5.0676,5.0845,5.1048,5.1792,5.2131,5.2469,5.301,5.3078,5.3078,5.3078,5.3348,5.3518,5.3518,5.3518,5.3518,5.3518,5.3518,5.3518,5.3518,5.3252,5.3051,5.2902,5.2681,5.2356,5.2008,5.1709,5.1678,5.1968,5.1622,5.1538,5.1773,5.1386,5.1206,5.1206,5.1206,5.1206,4.3186,4.3389,0.0,4.4398,4.4615,0.0,4.4939,4.5365,4.5858,4.6365,4.665,0.0,0.0,4.5872,4.5466,4.4702,4.4364,4.391,0.0,4.3457,4.3538,4.2794,4.3369,4.3538,4.276,4.2252,4.1576,4.0574,4.0506,4.0526,4.0601,4.1356,4.1952,4.23,4.2218,4.2043,4.1803,4.0912,4.0371,4.0113,4.0113,4.0235,4.0506,4.0506,4.1035,4.2002,4.2489,4.3132,4.3876,4.4398,4.4736,4.5007,4.5007,4.5432,4.6007,4.5277,4.5176,4.5447,4.594,4.6278,4.6568,4.7056,4.7699,4.8293,4.8293,4.8597,4.9052,4.9323,4.939,4.9458,4.9713,4.9781,4.9882,5.0371,5.0473,5.0676,5.1438,5.1573,5.181,5.257,5.2739,5.2875,5.3416,5.3518,5.3518,5.3518,5.3518,5.3518,5.3518,5.3518,5.3518,5.3518,5.3721,5.3821,5.371,5.3334,5.2935,5.2545,5.2303,5.2017,5.1603,5.1331,5.1535,5.2252,5.1565,5.1535,5.2252,5.1535,5.1325,5.1558,5.1558,5.1654]}]]